[[{"header":{"parameterUnit":"m.s-1","parameterCategory":1,"la1":30.6,"la2":29.2853,"lo1":-89.7004,"lo2":-87.6739,"dy":0.0162,"dx":0.0183,"nx":112,"ny":82,"refTime":"2023-07-30T12:00:00:Z","depth":0,"parameterNumber":2,"parameterNumberName":"U-component_of_WINDS"},"data":[0.0,0.0,0.0,0.0,0.0,0.0,0.0,0.0,0.0,0.0,0.0,0.0,0.0,0.0,0.0,0.0,0.0,0.0,0.0,0.0,0.0,0.0,0.0,0.0,0.0,0.0,0.0,0.0,0.0,0.0,0.0,0.0,0.0,0.0,0.0,0.0,0.0,0.0,0.0,0.0,0.0,0.0,0.0,0.0,0.0,0.0,0.0,0.0,0.0,0.0,0.0,0.0,0.0,0.0,0.0,0.0,0.0,0.0,0.0,0.0,0.0,0.0,0.0,0.0,0.0,0.0,0.0,0.0,0.0,0.0,0.0,0.0,0.0,0.0,0.0,0.0,0.0,0.0,0.0,0.0,0.0,0.0,0.0,0.0,0.0,0.0,0.0,0.0,0.0,0.0,-2.6183,-2.6814,-2.7705,-2.8387,-2.8706,-2.7717,-2.5624,-2.2207,0.0,0.0,0.0,0.0,0.0,0.0,0.0,0.0,0.0,0.0,0.0,0.0,0.0,0.0,0.0,0.0,0.0,0.0,0.0,0.0,0.0,0.0,0.0,0.0,0.0,0.0,0.0,0.0,0.0,0.0,0.0,0.0,0.0,0.0,0.0,0.0,0.0,0.0,0.0,0.0,0.0,0.0,0.0,0.0,0.0,0.0,0.0,0.0,0.0,0.0,0.0,0.0,0.0,0.0,0.0,0.0,0.0,0.0,0.0,0.0,0.0,0.0,0.0,0.0,0.0,0.0,0.0,0.0,0.0,0.0,0.0,0.0,0.0,0.0,0.0,0.0,0.0,0.0,0.0,0.0,0.0,0.0,0.0,0.0,0.0,0.0,0.0,0.0,0.0,0.0,0.0,0.0,0.0,0.0,0.0,0.0,0.0,0.0,0.0,0.0,0.0,0.0,0.0,0.0,-2.5957,-2.6727,-2.6766,-2.6924,-2.7433,-2.7141,-2.4977,-2.0384,0.0,0.0,0.0,0.0,0.0,0.0,0.0,0.0,0.0,0.0,0.0,0.0,0.0,0.0,0.0,0.0,0.0,0.0,0.0,0.0,0.0,0.0,0.0,0.0,0.0,0.0,0.0,0.0,0.0,0.0,0.0,0.0,0.0,0.0,0.0,0.0,0.0,0.0,0.0,0.0,0.0,0.0,0.0,0.0,0.0,0.0,0.0,0.0,0.0,0.0,0.0,0.0,0.0,0.0,0.0,0.0,0.0,0.0,0.0,0.0,0.0,0.0,0.0,0.0,0.0,0.0,0.0,0.0,0.0,0.0,0.0,0.0,0.0,0.0,0.0,0.0,0.0,0.0,0.0,0.0,0.0,0.0,0.0,0.0,0.0,0.0,0.0,0.0,0.0,0.0,0.0,0.0,0.0,0.0,0.0,0.0,0.0,0.0,0.0,0.0,0.0,0.0,0.0,-2.4802,-2.5664,-2.6006,-2.5763,-2.5855,-2.6484,-2.5714,-2.375,-2.0416,-1.7489,0.0,0.0,0.0,0.0,0.0,0.0,0.0,0.0,0.0,0.0,0.0,0.0,0.0,0.0,0.0,0.0,0.0,0.0,0.0,0.0,0.0,0.0,0.0,0.0,0.0,0.0,0.0,0.0,0.0,0.0,0.0,0.0,0.0,0.0,0.0,0.0,0.0,0.0,0.0,0.0,0.0,0.0,0.0,0.0,0.0,0.0,0.0,0.0,0.0,0.0,0.0,0.0,0.0,0.0,0.0,0.0,0.0,0.0,0.0,0.0,0.0,0.0,0.0,0.0,0.0,0.0,0.0,0.0,0.0,0.0,0.0,0.0,0.0,0.0,0.0,0.0,0.0,0.0,0.0,0.0,0.0,0.0,0.0,0.0,0.0,0.0,0.0,0.0,0.0,0.0,0.0,0.0,0.0,0.0,0.0,0.0,0.0,0.0,0.0,0.0,0.0,0.0,-2.5498,-2.5476,-2.5425,-2.515,-2.5133,-2.5555,-2.4478,-2.2699,-2.0144,-1.6606,0.0,0.0,0.0,0.0,0.0,0.0,0.0,0.0,0.0,0.0,0.0,0.0,0.0,0.0,0.0,0.0,0.0,0.0,0.0,0.0,0.0,0.0,0.0,0.0,0.0,0.0,0.0,0.0,0.0,0.0,0.0,0.0,0.0,0.0,0.0,0.0,0.0,0.0,0.0,0.0,0.0,0.0,0.0,0.0,0.0,0.0,0.0,0.0,0.0,0.0,0.0,0.0,0.0,0.0,0.0,0.0,0.0,0.0,0.0,0.0,0.0,0.0,0.0,0.0,0.0,0.0,0.0,0.0,0.0,0.0,0.0,0.0,0.0,0.0,0.0,0.0,0.0,0.0,0.0,0.0,0.0,0.0,0.0,0.0,0.0,0.0,0.0,0.0,0.0,0.0,0.0,0.0,0.0,0.0,0.0,0.0,0.0,0.0,0.0,0.0,0.0,0.0,-2.5543,-2.5503,-2.5481,-2.5305,-2.4966,-2.446,-2.4151,-2.2338,-1.8417,-1.5487,0.0,0.0,0.0,0.0,0.0,0.0,0.0,0.0,0.0,0.0,0.0,0.0,0.0,0.0,0.0,0.0,0.0,0.0,0.0,0.0,0.0,0.0,0.0,0.0,0.0,0.0,0.0,0.0,0.0,0.0,0.0,0.0,0.0,0.0,0.0,0.0,0.0,0.0,0.0,0.0,0.0,0.0,0.0,0.0,0.0,0.0,0.0,0.0,0.0,0.0,0.0,0.0,0.0,0.0,0.0,0.0,0.0,0.0,0.0,0.0,0.0,0.0,0.0,0.0,0.0,0.0,0.0,0.0,0.0,0.0,0.0,0.0,0.0,0.0,0.0,0.0,0.0,0.0,0.0,0.0,0.0,0.0,0.0,0.0,0.0,0.0,0.0,0.0,0.0,0.0,0.0,0.0,0.0,0.0,0.0,0.0,0.0,0.0,0.0,0.0,0.0,0.0,-2.5951,-2.6093,-2.5492,-2.5139,-2.477,-2.4337,-2.3298,-2.1524,-1.8807,0.0,0.0,0.0,0.0,0.0,0.0,0.0,0.0,0.0,0.0,0.0,0.0,0.0,0.0,0.0,0.0,0.0,0.0,0.0,0.0,0.0,0.0,0.0,0.0,0.0,0.0,0.0,0.0,0.0,0.0,0.0,0.0,0.0,0.0,0.0,0.0,0.0,0.0,0.0,0.0,0.0,0.0,0.0,0.0,0.0,0.0,0.0,0.0,0.0,0.0,0.0,0.0,0.0,0.0,0.0,0.0,0.0,0.0,0.0,0.0,0.0,0.0,0.0,0.0,0.0,0.0,0.0,0.0,0.0,0.0,0.0,0.0,0.0,0.0,0.0,0.0,0.0,0.0,0.0,0.0,0.0,0.0,0.0,0.0,0.0,0.0,0.0,0.0,0.0,0.0,0.0,0.0,0.0,0.0,0.0,0.0,0.0,0.0,0.0,0.0,0.0,0.0,-2.5301,-2.5974,-2.6129,-2.5473,-2.5031,-2.4617,-2.4184,-2.2758,-2.1019,-1.8976,0.0,0.0,0.0,0.0,0.0,0.0,0.0,0.0,0.0,0.0,0.0,0.0,0.0,0.0,0.0,0.0,0.0,0.0,0.0,0.0,0.0,0.0,0.0,0.0,0.0,0.0,0.0,0.0,0.0,0.0,0.0,0.0,0.0,0.0,0.0,0.0,0.0,0.0,0.0,0.0,0.0,0.0,0.0,0.0,0.0,0.0,0.0,0.0,0.0,0.0,0.0,0.0,0.0,0.0,0.0,0.0,0.0,0.0,0.0,0.0,0.0,0.0,0.0,0.0,0.0,0.0,0.0,0.0,0.0,0.0,0.0,0.0,0.0,0.0,0.0,0.0,0.0,0.0,0.0,0.0,0.0,0.0,0.0,0.0,0.0,0.0,0.0,0.0,0.0,0.0,0.0,0.0,0.0,0.0,0.0,0.0,0.0,0.0,0.0,0.0,0.0,0.0,-2.5267,-2.5465,-2.5473,-2.5402,-2.5042,-2.453,-2.386,-2.2632,-2.0915,0.0,0.0,0.0,0.0,0.0,0.0,0.0,0.0,0.0,0.0,0.0,0.0,0.0,0.0,0.0,0.0,0.0,0.0,0.0,0.0,0.0,0.0,0.0,0.0,0.0,0.0,0.0,0.0,0.0,0.0,0.0,0.0,0.0,0.0,0.0,0.0,0.0,0.0,0.0,0.0,0.0,0.0,0.0,0.0,0.0,0.0,0.0,0.0,0.0,0.0,0.0,0.0,0.0,0.0,0.0,0.0,0.0,0.0,0.0,0.0,0.0,0.0,0.0,0.0,0.0,0.0,0.0,0.0,0.0,0.0,0.0,0.0,0.0,0.0,0.0,0.0,0.0,0.0,0.0,0.0,0.0,0.0,0.0,0.0,0.0,0.0,0.0,0.0,0.0,0.0,0.0,0.0,0.0,0.0,0.0,0.0,0.0,0.0,0.0,0.0,0.0,0.0,0.0,-2.5386,-2.5959,-2.6055,-2.528,-2.4946,-2.447,-2.3664,-2.2544,-2.1117,-1.926,0.0,0.0,0.0,0.0,0.0,0.0,0.0,0.0,0.0,0.0,0.0,0.0,0.0,0.0,0.0,0.0,0.0,0.0,0.0,0.0,0.0,0.0,0.0,0.0,0.0,0.0,0.0,0.0,0.0,0.0,0.0,0.0,0.0,0.0,0.0,0.0,0.0,0.0,0.0,0.0,0.0,0.0,0.0,0.0,0.0,0.0,0.0,0.0,0.0,0.0,0.0,0.0,0.0,0.0,0.0,0.0,0.0,0.0,0.0,0.0,0.0,0.0,0.0,0.0,0.0,0.0,0.0,0.0,0.0,0.0,0.0,0.0,0.0,0.0,0.0,0.0,0.0,0.0,0.0,0.0,0.0,0.0,0.0,0.0,0.0,0.0,0.0,0.0,0.0,0.0,0.0,0.0,0.0,0.0,0.0,0.0,0.0,0.0,0.0,0.0,0.0,0.0,-2.5225,-2.5653,-2.5678,-2.505,-2.4804,-2.4366,-2.3578,-2.2528,-2.1163,-1.9512,0.0,0.0,0.0,0.0,0.0,0.0,0.0,0.0,0.0,0.0,0.0,0.0,0.0,0.0,0.0,0.0,0.0,0.0,0.0,0.0,0.0,0.0,0.0,0.0,0.0,0.0,0.0,0.0,0.0,0.0,0.0,0.0,0.0,0.0,0.0,0.0,0.0,0.0,0.0,0.0,0.0,0.0,0.0,0.0,0.0,0.0,0.0,0.0,0.0,0.0,0.0,0.0,0.0,0.0,0.0,0.0,0.0,0.0,0.0,0.0,0.0,0.0,0.0,0.0,0.0,0.0,0.0,0.0,0.0,0.0,0.0,0.0,0.0,0.0,0.0,0.0,0.0,0.0,0.0,0.0,0.0,0.0,0.0,0.0,0.0,0.0,0.0,0.0,0.0,0.0,0.0,0.0,0.0,0.0,0.0,0.0,0.0,0.0,0.0,0.0,0.0,0.0,-2.5018,-2.4983,-2.4873,-2.4771,-2.4591,-2.4155,-2.3473,-2.2452,-2.115,-1.9441,0.0,0.0,0.0,0.0,0.0,0.0,0.0,0.0,0.0,0.0,0.0,0.0,0.0,0.0,0.0,0.0,0.0,0.0,0.0,0.0,0.0,0.0,0.0,0.0,0.0,0.0,0.0,0.0,0.0,0.0,0.0,0.0,0.0,0.0,0.0,0.0,0.0,0.0,0.0,0.0,0.0,0.0,0.0,0.0,0.0,0.0,0.0,0.0,0.0,0.0,0.0,0.0,0.0,0.0,0.0,0.0,0.0,0.0,0.0,0.0,-2.598,-2.4334,0.0,0.0,0.0,0.0,0.0,0.0,0.0,0.0,0.0,0.0,0.0,0.0,0.0,0.0,0.0,0.0,0.0,0.0,0.0,0.0,0.0,0.0,0.0,0.0,0.0,0.0,0.0,0.0,0.0,0.0,0.0,0.0,0.0,0.0,0.0,0.0,0.0,0.0,0.0,0.0,-2.574,-2.5755,-2.5439,-2.465,-2.43,-2.3755,-2.288,-2.2061,-2.0814,-1.9046,-1.7584,0.0,0.0,0.0,0.0,0.0,0.0,0.0,0.0,0.0,0.0,0.0,0.0,0.0,0.0,0.0,0.0,0.0,0.0,0.0,0.0,0.0,0.0,0.0,0.0,0.0,0.0,0.0,0.0,0.0,0.0,0.0,0.0,0.0,0.0,0.0,0.0,0.0,0.0,0.0,0.0,0.0,0.0,0.0,0.0,0.0,0.0,0.0,0.0,0.0,0.0,0.0,0.0,0.0,0.0,0.0,0.0,0.0,0.0,0.0,-2.7944,-2.6538,0.0,0.0,0.0,0.0,0.0,0.0,0.0,0.0,0.0,0.0,0.0,0.0,0.0,0.0,0.0,0.0,0.0,0.0,0.0,0.0,0.0,0.0,0.0,0.0,0.0,0.0,0.0,0.0,0.0,0.0,0.0,0.0,0.0,0.0,0.0,0.0,0.0,0.0,0.0,0.0,-2.5294,-2.5245,-2.4846,-2.3959,-2.3707,-2.3285,-2.2435,-2.1608,-2.0445,-1.889,-1.7572,0.0,0.0,0.0,0.0,0.0,0.0,0.0,0.0,0.0,0.0,0.0,0.0,0.0,0.0,0.0,0.0,0.0,0.0,0.0,0.0,0.0,0.0,0.0,0.0,0.0,0.0,0.0,0.0,0.0,0.0,0.0,0.0,0.0,0.0,0.0,0.0,0.0,0.0,0.0,0.0,0.0,0.0,0.0,0.0,0.0,0.0,0.0,0.0,0.0,0.0,0.0,0.0,0.0,-3.2235,-3.3035,-3.2976,-3.2326,-3.1775,-3.1108,-2.8682,-2.8014,-2.8473,-2.7189,0.0,0.0,0.0,0.0,0.0,0.0,0.0,0.0,0.0,0.0,0.0,0.0,0.0,0.0,0.0,0.0,0.0,0.0,0.0,0.0,0.0,0.0,0.0,0.0,-2.8699,-2.8962,-2.6461,0.0,0.0,0.0,0.0,0.0,0.0,0.0,0.0,0.0,0.0,0.0,-2.4506,-2.437,-2.3919,-2.3074,-2.2919,-2.2626,-2.195,-2.1017,-1.998,-1.8754,-1.7261,-1.5957,0.0,0.0,0.0,0.0,0.0,0.0,0.0,0.0,0.0,0.0,0.0,0.0,0.0,0.0,0.0,0.0,0.0,0.0,0.0,0.0,0.0,0.0,0.0,0.0,0.0,0.0,0.0,0.0,0.0,0.0,0.0,0.0,-1.8217,-1.8139,0.0,0.0,0.0,0.0,0.0,0.0,0.0,0.0,0.0,0.0,0.0,0.0,0.0,-2.8396,-2.9045,-3.2355,-3.4056,-3.4056,-3.5285,-3.5508,-3.4767,-3.3058,-3.133,-2.9745,-2.8998,0.0,-2.876,-2.7666,0.0,0.0,0.0,0.0,0.0,0.0,0.0,0.0,0.0,0.0,0.0,0.0,0.0,0.0,0.0,0.0,0.0,0.0,0.0,0.0,0.0,0.0,-2.972,-2.8971,-2.9574,-3.0058,0.0,-2.678,-2.4532,-2.2665,-2.1391,-2.031,0.0,0.0,0.0,0.0,0.0,0.0,-2.4218,-2.4147,-2.3607,-2.2228,-2.1866,-2.1523,-2.1004,-2.0224,-1.9287,-1.8274,-1.704,-1.6239,-1.5831,-1.4286,0.0,0.0,0.0,0.0,0.0,0.0,0.0,0.0,0.0,0.0,0.0,0.0,0.0,0.0,0.0,0.0,0.0,0.0,0.0,0.0,0.0,0.0,0.0,0.0,0.0,0.0,0.0,0.0,0.0,-1.4237,-2.1634,-2.1668,-2.1586,-2.0664,0.0,0.0,0.0,0.0,0.0,0.0,0.0,0.0,0.0,-2.8895,-3.016,-3.1279,-3.2344,-3.4211,-3.4876,-3.4297,-3.4788,-3.4567,-3.3693,-3.1613,-3.048,-2.9927,-2.8255,-2.8103,-2.8882,-2.8102,-2.7792,-2.7745,0.0,0.0,0.0,0.0,-2.6845,-2.7735,-2.7567,-2.79,-2.8146,-2.7007,0.0,0.0,0.0,0.0,0.0,0.0,0.0,0.0,0.0,0.0,-2.8868,-2.8695,-2.8913,-2.9141,-2.8832,-2.72,-2.5507,-2.4609,-2.3368,-2.2277,-2.1572,-2.1338,0.0,0.0,0.0,-2.3682,-2.4021,-2.3436,-2.2601,-2.1617,-2.1055,-2.0475,-1.9732,-1.9082,-1.8387,-1.7706,-1.6562,-1.5863,-1.5619,-1.4338,-1.3192,0.0,0.0,0.0,0.0,0.0,0.0,0.0,0.0,0.0,0.0,0.0,0.0,0.0,0.0,0.0,0.0,0.0,0.0,0.0,0.0,0.0,0.0,0.0,0.0,0.0,0.0,0.0,0.0,-1.9217,-2.394,-2.4996,-2.5608,-2.4957,0.0,0.0,0.0,0.0,0.0,0.0,-2.7627,-2.8385,-2.9758,-3.1915,-3.2677,-3.3574,-3.4726,-3.5026,-3.4758,-3.4027,-3.3518,-3.289,-3.2164,-3.0087,-2.9234,-2.9285,-2.7336,-2.717,-2.8304,-2.8028,-2.8317,-2.8837,-2.7871,-2.7494,-2.7494,-2.7195,-2.7733,-2.8588,-2.8525,-2.8834,-2.9152,-2.8214,-2.6914,-2.5382,-2.4059,0.0,0.0,0.0,0.0,-2.5955,-2.6263,-2.6932,-2.7563,-2.7748,-2.7869,-2.7913,-2.785,-2.6881,-2.6056,-2.5981,-2.4671,-2.3591,-2.3367,-2.2451,0.0,-2.2869,-2.2699,-2.264,-2.3135,-2.2224,-2.1287,-2.0692,-2.0029,-1.9403,-1.8693,-1.814,-1.7612,-1.7079,-1.6015,-1.5222,-1.4913,-1.4076,-1.3059,-1.1881,0.0,0.0,0.0,0.0,0.0,0.0,0.0,0.0,0.0,0.0,0.0,0.0,0.0,0.0,0.0,0.0,0.0,0.0,0.0,0.0,0.0,0.0,0.0,0.0,0.0,0.0,0.0,0.0,0.0,-2.9797,-3.0002,0.0,0.0,0.0,0.0,-2.7527,-2.8722,-2.972,-3.0313,-3.0959,-3.1945,-3.3365,-3.4038,-3.4726,-3.5444,-3.4528,-3.4027,-3.3959,-3.2177,-3.1315,-3.1167,-2.9086,-2.7614,-2.667,-2.6577,-2.6577,-2.6637,-2.7167,-2.7989,-2.8875,-2.8285,-2.8059,-2.7913,-2.6926,-2.7541,-2.8762,-2.7698,-2.8093,-2.9038,-2.949,-2.7901,-2.5396,-2.3367,-2.3387,0.0,0.0,-2.4002,-2.5199,-2.4381,-2.5146,-2.6233,-2.6193,-2.6775,-2.7134,-2.6363,-2.6131,-2.6069,0.0,-2.4921,-2.3954,-2.3966,0.0,-2.285,-2.252,-2.2418,-2.2083,-2.1103,-2.039,-1.9738,-1.91,-1.8531,-1.821,-1.8131,-1.7626,-1.7079,-1.6464,-1.5398,-1.4473,-1.3893,-1.3258,-1.2575,-1.1828,-1.0961,0.0,0.0,0.0,0.0,0.0,0.0,0.0,0.0,0.0,0.0,0.0,0.0,0.0,0.0,0.0,0.0,0.0,0.0,0.0,0.0,0.0,0.0,0.0,0.0,0.0,0.0,0.0,0.0,-3.1551,-3.2262,0.0,-3.0136,-3.0384,-3.0744,-3.0954,-3.2191,-3.3001,-3.3081,-3.3088,-3.3583,-3.4771,-3.3796,-3.3661,-3.4543,-3.3602,-3.282,-3.2177,-3.1536,-3.048,-2.9164,-2.7752,-2.6461,-2.5378,-2.5378,-2.5797,-2.6543,-2.6689,-2.7846,-2.9465,-2.9264,-2.9189,-2.9024,-2.7963,-2.7903,-2.8228,-2.7174,-2.7281,-2.7803,-2.7381,-2.5905,-2.4146,-2.343,-2.3225,-2.3306,-2.3541,-2.3862,-2.4181,-2.4041,-2.4646,-2.5241,-2.4964,-2.4767,-2.453,-2.4398,-2.3696,-2.3321,-2.4051,-2.4052,-2.4004,-2.4004,-2.2937,-2.2115,-2.2293,-2.1406,-2.0733,-2.0801,-1.9926,-1.9128,-1.8567,-1.7975,-1.7463,-1.7118,-1.6544,-1.6102,-1.5884,-1.4548,-1.3731,-1.3782,-1.2487,-1.1373,-1.0634,-0.9846,-0.8815,0.0,0.0,0.0,0.0,0.0,0.0,0.0,0.0,0.0,0.0,0.0,0.0,0.0,0.0,0.0,0.0,0.0,0.0,0.0,0.0,0.0,0.0,0.0,0.0,0.0,-3.3743,-3.5289,-3.3557,-3.4498,-3.4496,-3.2507,-3.2744,-3.3126,-3.3307,-3.4063,-3.4395,-3.4046,-3.3696,-3.3822,-3.4491,-3.3255,-3.289,-3.3518,-3.2593,-3.1815,-3.118,-3.0908,-2.982,-2.8084,-2.6964,-2.588,-2.4787,-2.4787,-2.521,-2.5975,-2.6307,-2.7383,-2.8712,-2.8712,-2.8712,-2.8542,-2.7441,-2.7267,-2.7429,-2.6608,-2.6382,-2.6368,-2.5194,-2.3981,-2.2966,-2.2433,-2.2101,-2.2017,-2.2603,-2.2867,-2.2925,-2.2847,-2.3515,-2.4066,-2.3323,-2.3001,-2.2816,-2.279,-2.2112,-2.1707,-2.2435,-2.3037,-2.3552,-2.3929,-2.2571,-2.1465,-2.1638,-2.0355,-1.9515,-2.0042,-1.9215,-1.8597,-1.8546,-1.7956,-1.7281,-1.6522,-1.6242,-1.5856,-1.5211,-1.406,-1.3436,-1.345,-1.207,-1.0861,-0.9983,-0.8764,-0.7945,-0.7442,0.0,0.0,0.0,0.0,0.0,0.0,0.0,0.0,0.0,0.0,0.0,0.0,0.0,0.0,0.0,0.0,0.0,0.0,0.0,0.0,0.0,0.0,0.0,-3.4351,-3.6352,-3.7332,-3.6,-3.6783,-3.6817,-3.5359,-3.5467,-3.5295,-3.4601,-3.4327,-3.379,-3.3091,-3.2681,-3.2566,-3.2566,-3.2522,-3.2536,-3.2522,-3.1609,-3.118,-3.118,-3.0203,-2.9197,-2.8004,-2.6953,-2.5891,-2.4787,-2.4787,-2.4787,-2.4872,-2.5975,-2.6472,-2.6472,-2.6483,-2.6472,-2.6367,-2.5189,-2.543,-2.6278,-2.5856,-2.5464,-2.4837,-2.3324,-2.2558,-2.1889,-2.0321,-1.9893,-1.9856,-1.9895,-2.0838,-2.1653,-2.0815,-2.1779,-2.265,-2.1296,-2.1592,-2.2051,-2.1525,-2.1387,-2.1375,-2.14,-2.1838,-2.2552,-2.3666,-2.2372,-2.0926,-2.0413,-1.9264,0.0,-1.8655,-1.8199,-1.8145,-1.8846,-1.847,-1.7671,-1.6537,-1.6812,-1.6287,-1.4542,-1.4027,-1.3497,-1.2854,-1.2035,-1.1053,-0.9927,-0.799,-0.7103,-0.7349,0.0,0.0,0.0,0.0,0.0,0.0,0.0,0.0,0.0,0.0,0.0,0.0,0.0,0.0,0.0,0.0,0.0,0.0,0.0,0.0,0.0,-3.4036,-3.7184,-3.7107,-3.7893,-3.8097,-3.714,-3.597,-3.5331,-3.5529,-3.4198,-3.3403,-3.3744,-3.3062,-3.2356,-3.1597,-3.1237,-3.1351,-3.2014,-3.1056,-3.0921,-3.1609,-3.062,-3.0216,-3.0216,-2.9934,-2.8791,-2.6964,-2.6637,-2.5389,-2.3637,-2.4457,-2.4787,-2.4787,-2.5126,-2.5294,-2.5378,-2.6141,-2.6259,-2.5853,-2.4791,-2.3857,-2.3207,-2.3435,-2.2956,-2.2285,-2.1931,-2.1439,-2.0871,-1.9762,-1.9453,-1.9555,-1.9802,-1.9959,-2.0128,-2.0772,-2.0857,-2.0729,-2.0582,-2.0052,-1.9517,-1.9377,-1.8983,-1.8821,-1.9272,-1.9459,-1.9935,-2.1209,-2.0229,-1.9218,-1.9023,-1.8329,0.0,-1.7376,-1.7183,-1.7226,-1.7579,-1.7508,-1.7255,-1.6955,-1.6634,-1.602,-1.4986,-1.4099,-1.3385,-1.281,-1.2311,-1.13,-0.9817,-0.8753,-0.8279,0.0,0.0,0.0,0.0,0.0,0.0,0.0,0.0,0.0,0.0,0.0,0.0,0.0,0.0,0.0,0.0,0.0,0.0,0.0,0.0,0.0,0.0,-3.5232,-3.7746,-3.8303,-3.8591,-3.8356,-3.7292,-3.5352,-3.3933,-3.3549,-3.2102,-3.1323,-3.1649,-3.0754,-3.0183,-2.9983,-2.9649,-2.981,-3.0583,-2.9817,-2.9834,-3.062,-2.9821,-2.9553,-2.9792,-2.9052,-2.7985,-2.6472,-2.5975,-2.4798,-2.3135,-2.38,-2.4125,-2.4125,-2.4125,-2.4125,0.0,0.0,0.0,0.0,0.0,-2.2531,-2.1654,-2.1919,-2.143,-2.0673,-2.0737,-2.0346,-1.9668,-1.917,-1.9014,-1.8987,-1.9091,-1.9307,-1.9568,-1.9528,-1.9654,-1.9733,-1.9213,-1.877,-1.8453,-1.8182,-1.7835,-1.7723,-1.807,-1.7855,0.0,-1.8623,-1.8382,-1.8038,-1.8038,-1.728,-1.6629,-1.6428,-1.6548,-1.6751,-1.7035,-1.7224,-1.7105,-1.6633,-1.6103,0.0,0.0,0.0,-1.2833,-1.2443,-1.1885,0.0,0.0,0.0,-0.9192,-0.9547,0.0,0.0,0.0,-1.0084,-1.098,0.0,0.0,0.0,0.0,0.0,0.0,0.0,0.0,0.0,0.0,0.0,0.0,0.0,0.0,0.0,0.0,-3.549,-3.6869,-3.7948,-3.8063,-3.7666,-3.6608,-3.4644,-3.2596,-3.0717,-2.972,-2.9182,-2.9045,-2.8135,-2.7747,-2.8232,-2.8099,0.0,0.0,0.0,-2.9089,-2.9591,-2.9089,-2.9013,-2.9424,-2.7944,-2.6837,-2.6151,-2.5134,-2.4067,-2.2998,-2.2998,-2.2998,-2.2998,-2.2998,-2.2998,-2.2998,-2.2998,-2.2734,-2.2314,-2.1894,-2.1494,-2.1152,-2.1103,0.0,0.0,-1.9805,-1.9287,-1.8691,-1.8523,-1.8523,-1.8555,-1.8125,-1.8801,-1.9359,-1.7849,-1.848,-1.9149,-1.7497,-1.7625,-1.8012,-1.7456,-1.7357,-1.7357,-1.7357,-1.681,-1.6379,-1.6379,-1.6817,-1.7196,-1.7196,-1.6123,-1.5424,-1.5725,-1.605,-1.6411,-1.6844,0.0,0.0,-1.605,-1.5602,-1.4963,-1.4085,-1.2924,-1.2202,-1.2056,-1.1321,-1.1298,-1.2104,-1.0329,-0.9804,-1.0587,-1.0622,-1.0651,-1.0692,-1.1474,-1.2038,0.0,0.0,0.0,0.0,0.0,0.0,0.0,0.0,0.0,0.0,0.0,0.0,0.0,0.0,0.0,-3.1958,-3.388,-3.5185,-3.4987,-3.4016,-3.3747,-3.4933,-3.2787,-3.1045,-3.0596,-2.8686,-2.767,-2.8177,-2.7328,-2.6764,-2.6866,-2.7271,-2.7494,-2.7595,-2.8034,-2.8323,-2.8436,-2.8323,-2.7916,-2.7215,0.0,0.0,-2.4089,-2.3837,-2.3135,-2.2129,-2.2129,-2.2129,-2.2129,-2.2129,-2.2129,-2.2129,-2.2129,-2.1865,-2.1426,-2.0986,-2.0762,-2.0644,-2.0293,-2.0059,-1.9795,-1.9111,-1.9004,-1.9033,-1.834,-1.8369,0.0,-1.8125,-1.8203,-1.8257,-1.7798,-1.751,-1.7173,-1.6732,-1.6331,-1.5964,-1.5874,-1.5853,-1.5853,-1.5853,-1.569,-1.5633,-1.5633,-1.5702,-1.5761,-1.5761,-1.529,-1.4929,-1.5008,-1.476,-1.4952,-1.6009,-1.6181,-1.6242,-1.6381,-1.5958,-1.5276,-1.4231,-1.3172,-1.2652,-1.2832,-1.2356,-1.1592,-1.0773,-1.0609,-1.0085,-0.915,-0.9425,-0.9693,-0.9948,-1.176,-1.2707,0.0,0.0,0.0,0.0,0.0,0.0,0.0,0.0,0.0,0.0,0.0,-2.8197,-2.7857,0.0,-3.1002,-3.1974,-3.2838,-3.3258,-3.3006,-3.1811,-3.138,-3.2415,-3.1028,-2.9723,-2.9132,-2.8235,-2.7652,-2.7431,-2.6948,-2.6611,-2.6508,-2.6716,-2.6992,-2.7268,-2.7544,-2.7591,-2.7385,-2.7591,-2.7054,-2.5919,-2.5576,-2.4735,-2.3492,-2.296,-2.2431,-2.1885,-2.1885,-2.1885,-2.1885,-2.1265,-2.0967,-2.0696,-2.0191,-2.0154,-2.0391,-2.0324,-1.9918,-1.9467,-1.9597,-1.9463,-1.9209,-1.8779,-1.8643,-1.8564,-1.8135,-1.8154,-1.8281,-1.8066,-1.8008,-1.7929,-1.765,-1.7139,-1.6625,-1.6367,-1.586,-1.541,-1.541,-1.541,-1.541,-1.541,-1.505,-1.4805,-1.4805,-1.4344,-1.4157,-1.4562,-1.4213,-1.3764,-1.3214,-1.3141,-1.3231,-1.3689,-1.4408,-1.4758,-1.4573,-1.4221,-1.3601,-1.2649,-1.1822,-1.1476,-1.1617,-1.0907,-1.0265,-0.9641,-0.9757,-0.947,-0.8776,-0.8969,-0.9148,-0.9442,-1.0496,-1.1236,0.0,0.0,0.0,0.0,0.0,0.0,0.0,-2.428,-2.5786,-2.622,-2.7207,-2.8091,-2.8164,-2.9067,-3.0108,-3.1149,-3.0954,-3.073,-3.0885,-2.9943,-2.9339,-2.9769,-2.9305,-2.8454,-2.7326,-2.7641,-2.7597,-2.6781,-2.679,-2.6751,-2.6508,-2.6533,-2.6584,-2.681,-2.6822,-2.6577,-2.5981,-2.6348,-2.5862,-2.4425,-2.3962,-2.3437,-2.2787,-2.1969,-2.1631,-2.1631,-2.1631,-2.1539,-2.1293,-2.0329,-1.9623,-1.9082,-1.8102,-1.8158,-1.8823,-1.9217,-1.8745,-1.805,-1.8499,-1.8404,-1.8038,-1.7953,-1.7707,-1.7442,-1.7442,-1.7385,-1.7406,-1.7413,-1.7396,-1.7187,-1.6864,-1.6465,-1.5974,-1.56,-1.5179,-1.4932,-1.4932,-1.4932,-1.4932,-1.4932,-1.4392,-1.3974,-1.3974,-1.3185,-1.2772,-1.3464,-1.3173,-1.2545,-1.162,-1.1739,-1.1806,-1.155,-1.2613,-1.3059,-1.2397,-1.2074,-1.1652,-1.0967,-1.0312,-0.9977,-1.0024,-0.9227,-0.8684,-0.8544,-0.8473,-0.8403,-0.8192,-0.8192,-0.8284,-0.8461,-0.85,-0.9064,0.1562,-0.1346,-0.5767,-0.9492,-1.2345,-1.5474,0.0,-2.2025,-2.2702,-2.4186,-2.5492,-2.6219,-2.5592,-2.6313,-2.6887,-2.662,-2.6516,-2.6796,-2.7661,-2.6906,-2.6706,-2.7788,-2.7633,-2.7159,-2.6422,-2.6229,-2.6118,-2.5998,-2.6359,-2.6526,-2.6521,-2.6533,-2.6119,-2.5313,-2.5242,-2.4813,-2.383,-2.392,-2.3183,-2.1818,-2.2093,-2.1556,-2.0289,-2.0615,-2.0713,-2.0713,-2.0713,-2.0222,-1.9332,-1.9172,-1.8495,-1.7521,-1.7188,-1.65,-1.587,-1.6884,-1.7164,-1.6985,-1.6362,-1.6164,-1.608,-1.5686,-1.5551,-1.5517,-1.5517,-1.5289,-1.5155,-1.5424,-1.5112,-1.4661,-1.4486,-1.4199,-1.3827,-1.3456,-1.3277,-1.3252,-1.3252,-1.3252,-1.3252,-1.3252,-1.3191,-1.313,-1.313,-1.2712,-1.248,-1.2705,-1.2312,-1.1872,-1.1567,-1.1452,-1.1416,-1.1472,-1.1646,-1.1691,-1.1455,-1.1193,-1.0915,-1.0638,-0.986,-0.9527,-0.9752,-0.914,-0.8403,-0.7491,-0.7491,-0.6999,-0.6154,-0.6154,-0.6165,-0.6183,-0.6257,-0.7555,0.1413,-0.1405,-0.4581,-0.7672,-1.0778,-1.4309,-1.8793,-2.0282,-2.1034,-2.2203,-2.3888,-2.4855,-2.3669,-2.4903,-2.597,-2.5554,-2.5138,-2.5256,-2.632,-2.5777,-2.5516,-2.6057,-2.5937,-2.6194,-2.716,-2.7516,-2.7346,-2.6509,-2.6961,-2.6604,-2.5213,-2.5176,-2.4807,-2.3837,-2.3537,-2.2886,-2.1973,-2.2451,-2.1854,-2.0192,-2.0949,-2.072,-1.9551,-1.9193,-1.8859,-1.8431,-1.8431,-1.825,-1.7971,-1.7191,-1.6541,-1.6028,-1.514,-1.4468,-1.4295,-1.5695,-1.5843,-1.5331,-1.5414,-1.5458,-1.5433,-1.5284,-1.5234,-1.5234,-1.5234,-1.4977,-1.4712,-1.4869,-1.4613,-1.4279,-1.4213,-1.3938,-1.3559,-1.341,-1.3157,-1.3009,-1.3009,-1.3009,-1.3009,-1.3009,-1.2634,-1.2328,-1.2328,-1.1632,-1.1063,-1.1122,-1.1176,-1.0946,-1.0235,-1.0089,-1.0307,-1.084,-1.0462,-1.0439,-1.1007,-1.0538,-1.0,-0.9478,-0.8703,-0.8133,-0.7777,-0.7077,-0.6513,-0.6218,-0.6052,-0.5854,-0.5545,-0.5545,-0.5593,-0.5681,-0.583,-0.6452,0.2535,-0.0442,-0.3314,-0.6715,-0.9644,-1.2745,-1.6487,-1.8097,-1.9125,-2.0358,-2.203,-2.2955,-2.1997,-2.3026,-2.3895,-2.3775,-2.3307,-2.3503,-2.494,-2.4584,-2.4368,-2.495,-2.4772,-2.5205,-2.6817,-2.7131,-2.683,-2.58,-2.6228,-2.5732,-2.3955,-2.3997,-2.3559,-2.2384,-2.197,-2.1376,-2.041,-2.0794,-2.0236,-1.8739,-1.9315,-1.915,-1.8356,-1.7721,-1.7223,-1.6771,-1.6771,-1.6694,-1.6541,-1.5571,-1.5004,-1.4583,-1.3502,-1.308,-1.3196,-1.4433,-1.4364,-1.3894,-1.4286,-1.4378,-1.4378,-1.4378,-1.4378,-1.4363,-1.4332,-1.4065,-1.3789,-1.3789,-1.3613,-1.341,-1.341,-1.3154,-1.2877,-1.2782,-1.2578,-1.2336,-1.2336,-1.2336,-1.2336,-1.2336,-1.1841,-1.1469,-1.1469,-1.0794,-1.0241,-1.0241,-1.0391,-1.0222,-0.9341,-0.8945,-0.9105,-0.9965,-0.9268,-0.9192,-1.0231,-0.9764,-0.9124,-0.8433,-0.7777,-0.7073,-0.6379,-0.5568,-0.5182,-0.5294,-0.5186,-0.5186,-0.5298,-0.5342,-0.5416,-0.5532,-0.5677,-0.5823,0.6747,0.3082,-0.1698,-0.6752,-0.8776,-1.0357,-1.3351,-1.4962,-1.6542,-1.9007,-1.9579,-1.9915,-2.0604,-1.9922,-1.953,-2.009,-1.9952,-2.0633,-2.3238,-2.2682,-2.281,-2.4759,-2.4534,-2.4231,-2.4284,-2.3419,-2.2857,-2.2857,-2.3325,-2.3414,-2.2987,-2.3325,-2.2707,-2.0917,-2.0836,-2.0339,-1.936,-1.8452,-1.7807,-1.7279,-1.6736,-1.6338,-1.5945,-1.6288,-1.6455,-1.6388,-1.6388,-1.5795,-1.4902,-1.4817,-1.4209,-1.3193,-1.2956,-1.2835,-1.2802,-1.2499,-1.2573,-1.2775,-1.2472,-1.2372,-1.2372,-1.2372,-1.2372,-1.2318,-1.2107,-1.1747,-1.1505,-1.1505,-1.1296,-1.1068,-1.1068,-1.1061,-1.0987,-1.0769,-1.0688,-1.0688,-1.0688,-1.0688,-1.0688,-1.0688,-1.0618,-1.0624,-1.0624,-1.0618,-1.0611,-1.0611,-1.0294,-0.9893,-0.9256,-0.8329,-0.8008,-0.8765,-0.8168,-0.8062,-0.8778,-0.8838,-0.8562,-0.797,-0.7417,-0.6862,-0.6245,-0.5505,-0.5131,-0.5138,-0.5131,-0.5131,-0.5138,-0.5287,-0.5428,-0.5439,-0.5525,-0.5674,0.6346,0.2921,-0.1511,-0.6016,-0.8196,-0.9904,-1.2479,-1.4101,-1.5742,-1.8433,-1.8754,-1.8562,-1.8863,-1.8465,-1.8004,-1.7951,-1.8356,-1.9349,-2.1222,-2.1566,-2.1956,-2.2874,-2.3356,-2.3097,-2.1968,-2.3538,-2.4223,-2.32,-2.4177,-2.3989,-2.1902,-2.1991,-2.1228,-1.9404,-1.9053,-1.8478,-1.7549,-1.7195,-1.6626,-1.5854,-1.5685,-1.5162,-1.4413,-1.4522,-1.4402,-1.4008,-1.4008,-1.3515,-1.2745,-1.3263,-1.2809,-1.193,-1.2339,-1.2452,-1.2438,-1.2338,-1.2365,-1.2438,-1.2338,-1.2305,-1.2305,-1.2305,-1.2305,-1.2245,-1.1957,-1.1663,-1.1383,-1.1189,-1.0929,-1.0701,-1.0701,-1.0701,-1.0681,-1.0645,-1.0624,-1.0624,-1.0624,-1.0624,-1.0624,-1.0624,-1.0624,-1.0624,-1.0624,-1.0401,-1.001,-0.9392,-0.9166,-0.8968,-0.8608,-0.7609,-0.7074,-0.7295,-0.7128,-0.7074,-0.7343,-0.7488,-0.7221,-0.6559,-0.6533,-0.6191,-0.5501,-0.5161,-0.5033,-0.5128,-0.504,-0.5036,-0.5131,-0.5284,-0.5428,-0.5432,-0.5518,-0.5616,0.5638,0.2092,-0.2096,-0.636,-0.8664,-1.0537,-1.2691,-1.4596,-1.6411,-1.8411,-1.8205,-1.7528,-1.7102,-1.6308,-1.5687,-1.5614,-1.6644,-1.7926,-1.9156,-1.9939,-2.0657,-2.1425,-2.2029,-2.1979,-2.1134,-2.3186,-2.3931,-2.244,-2.3225,-2.2856,-2.0657,-2.0584,-1.9942,-1.8408,-1.7791,-1.7217,-1.6636,-1.593,-1.5084,-1.4163,-1.3746,-1.3244,-1.2631,-1.2224,-1.1903,-1.1587,-1.1587,-1.1301,-1.0897,-1.1348,-1.113,-1.0577,-1.1016,-1.1248,-1.1248,-1.1248,-1.1248,-1.1248,-1.162,-1.1768,-1.1694,-1.1323,-1.1409,-1.1569,-1.1288,-1.122,-1.1142,-1.0587,-1.0322,-1.0168,-0.9804,-0.9719,-0.9768,-0.967,-0.9646,-0.9646,-0.9646,-0.9646,-0.9646,-0.9646,-0.9646,-0.9646,-0.9646,-0.9419,-0.8993,-0.8172,-0.7824,-0.7712,-0.779,-0.6884,-0.6312,-0.6588,-0.6439,-0.6399,-0.6593,-0.6784,-0.6568,-0.5829,-0.5992,-0.579,-0.5053,-0.5016,-0.4989,-0.4972,-0.4989,-0.5013,-0.5053,-0.526,-0.5428,-0.5428,-0.546,-0.5538,0.4697,0.0726,-0.3396,-0.7519,-1.0003,-1.1904,-1.3769,-1.607,-1.8067,-1.8594,-1.7715,-1.6473,-1.536,-1.3732,-1.272,-1.3193,-1.4819,-1.6346,-1.7288,-1.8086,-1.9102,-2.0352,-2.0518,-2.085,-2.167,-2.2269,-2.2076,-2.0634,-2.0614,-2.0247,-1.9393,-1.9325,-1.8921,-1.8008,-1.7139,-1.6636,-1.6498,-1.4585,-1.3164,-1.2218,-1.1143,-1.0633,-1.0703,-0.9585,-0.9168,-0.9296,-0.9296,-0.9296,-0.9221,-0.9301,-0.9296,-0.9221,-0.9301,-0.9296,-0.9296,-0.9296,-0.9296,-0.9448,-1.034,-1.0708,-1.0565,-0.9599,-0.9744,-1.0306,-0.9974,-1.0344,-1.062,-0.9556,-0.939,-0.9374,-0.8278,-0.8184,-0.8286,-0.8077,-0.8027,-0.8027,-0.8027,-0.8027,-0.8027,-0.8027,-0.8027,-0.8021,-0.7947,-0.7749,-0.7517,-0.7094,-0.6383,-0.6203,-0.6899,-0.6096,-0.571,-0.6426,-0.6057,-0.5923,-0.644,-0.6682,-0.6525,-0.5785,-0.5897,-0.5642,-0.4942,-0.5057,-0.4992,-0.4718,-0.4989,-0.5064,-0.4931,-0.522,-0.5428,-0.5428,-0.5428,-0.544,0.3542,-0.0364,-0.4201,-0.7549,-1.001,-1.1924,-1.3233,-1.431,-1.538,-1.6484,-1.4689,-1.2932,-1.2851,-1.2312,-1.2202,-1.3126,-1.4819,-1.6446,-1.7877,-1.8373,-1.8877,-1.9541,-1.9893,-2.0049,-1.9961,-2.0947,-2.1135,-2.0137,-2.106,-2.1064,-1.9833,-1.9479,-1.8921,-1.8008,-1.7794,-1.7001,-1.5587,-1.3665,-1.2137,-1.1162,-1.0873,-1.0353,-0.9669,-0.9386,-0.9246,-0.9296,-0.9296,-0.8841,-0.8237,-0.8993,-0.8846,-0.8237,-0.8993,-0.9296,-0.9296,-0.9296,-0.9296,-0.9221,-0.8765,-0.9064,-0.9669,-0.9372,-0.9406,-0.9537,-0.9218,-0.9135,-0.9119,-0.8617,-0.8464,-0.8359,-0.8107,-0.8067,-0.8093,-0.8042,-0.8027,-0.8027,-0.8027,-0.8027,-0.8027,-0.8027,-0.8027,-0.7906,-0.7676,-0.7036,-0.6451,-0.6151,-0.543,-0.5123,-0.5835,-0.525,-0.4842,-0.5011,-0.4993,-0.4969,-0.5022,-0.5281,-0.5333,-0.5157,-0.5136,-0.5202,-0.524,-0.507,-0.4989,-0.5016,-0.5091,-0.5111,-0.5077,-0.5267,-0.5428,-0.5428,-0.5428,-0.5449,0.2026,-0.2509,-0.6576,-0.8216,-1.0718,-1.2926,-1.3459,-1.4798,-1.5896,-1.5875,-1.4285,-1.2628,-1.1703,-1.0928,-1.0925,-1.2253,-1.4342,-1.6013,-1.6819,-1.7404,-1.8105,-1.8906,-1.8572,-1.8394,-1.8727,-1.8844,-1.8782,-1.8488,-2.0109,-2.0697,-1.9697,-1.9066,-1.8317,-1.7373,-1.7019,-1.5869,-1.3947,-1.2879,-1.1768,-1.0783,-1.0302,-0.9569,-0.8613,-0.8067,-0.7929,-0.8012,0.0,-0.7629,-0.7173,-0.7783,-0.7629,-0.7176,-0.7783,-0.7956,-0.789,-0.7977,-0.7899,-0.769,-0.7179,-0.7305,-0.7781,-0.7956,-0.8174,-0.837,-0.8176,-0.8298,-0.8319,-0.7787,-0.7536,-0.7307,-0.699,-0.6859,-0.6859,-0.6859,-0.6859,-0.6859,-0.6859,-0.6859,-0.6859,-0.6859,-0.6859,-0.6798,-0.6476,-0.6046,-0.562,-0.5455,-0.5006,-0.4808,-0.5125,-0.4779,-0.4543,-0.4555,-0.4701,-0.4755,-0.467,-0.4877,-0.4955,-0.4826,-0.4942,-0.503,-0.5064,-0.5098,-0.5087,-0.504,-0.5165,-0.5199,-0.5131,-0.5284,-0.5428,-0.5428,-0.543,-0.546,0.0622,-0.4526,-0.8898,-0.8963,-1.1335,-1.3543,-1.3368,-1.5294,-1.6755,-1.5083,-1.395,-1.2525,-1.0361,-0.8927,-0.8679,-1.0324,-1.3173,-1.5121,-1.4697,-1.5762,-1.6929,-1.7973,-1.677,-1.6305,-1.7506,-1.652,-1.6041,-1.6444,-1.8267,-1.9142,-1.8835,-1.8021,-1.722,-1.6383,-1.5449,-1.4196,-1.2519,-1.2224,-1.162,-1.0559,-0.9464,-0.844,-0.7548,-0.6493,-0.6132,-0.6338,-0.6338,-0.6338,-0.6338,-0.6338,-0.6338,-0.6338,-0.6264,-0.6169,-0.6047,-0.6183,-0.6061,-0.5854,-0.5983,-0.5942,-0.5874,-0.6146,-0.6659,-0.7122,-0.7146,-0.7481,-0.7728,-0.6975,-0.6621,-0.6334,-0.5624,-0.5428,-0.5428,-0.5428,-0.5428,-0.5428,-0.5428,-0.5428,-0.5428,-0.5428,-0.5428,-0.5318,-0.5182,-0.5145,-0.5091,-0.4965,-0.4931,-0.4874,-0.4738,-0.4589,-0.4545,-0.4677,-0.4826,-0.4918,-0.4918,-0.505,-0.5013,-0.4738,-0.4962,-0.4996,-0.4758,-0.5121,-0.522,-0.4982,-0.523,-0.5294,-0.5162,-0.5294,-0.5428,-0.5432,-0.5518,-0.5589,0.0211,-0.3526,-0.7105,-0.8134,-0.9453,-1.0407,-1.031,-1.0573,-1.0633,-0.9988,-0.7565,-0.5291,-0.4585,-0.424,-0.4528,-0.5699,-1.0616,-1.3755,-1.2124,-1.4065,-1.5634,-1.542,-1.4899,-1.4712,-1.4916,-1.501,-1.5101,-1.5238,-1.5805,-1.6266,-1.637,-1.5668,-1.5189,-1.5052,-1.4103,-1.354,-1.3455,-1.1822,-1.0565,-0.9518,-0.85,-0.7524,-0.6567,-0.6307,-0.6237,-0.6338,-0.6338,0.0,-0.6338,-0.6338,-0.6338,-0.6264,-0.6271,-0.6259,-0.6204,-0.5921,-0.5976,-0.6162,-0.6027,-0.6013,-0.5996,-0.6054,-0.6122,-0.6275,-0.6405,-0.637,-0.6186,-0.6044,-0.5841,-0.5624,-0.5428,-0.5428,-0.5428,-0.5428,-0.5428,-0.5428,-0.5428,-0.5428,-0.5428,-0.5428,-0.5428,-0.5418,-0.5325,-0.5223,-0.5071,-0.5098,-0.4947,-0.4874,-0.4773,-0.4693,-0.466,-0.4687,-0.4826,-0.4918,-0.4918,-0.505,-0.5057,-0.4891,-0.4928,-0.4986,-0.505,-0.5128,-0.5206,-0.5284,-0.5401,-0.5415,-0.5321,-0.5415,-0.5428,-0.5432,-0.5456,-0.5461,0.2742,-0.1009,-0.4814,-0.5841,-0.7815,-0.9029,-0.7261,-0.6641,-0.6179,-0.5038,-0.2413,-0.0306,-0.0077,-0.1139,-0.2039,-0.196,-0.5712,-0.8749,-0.8901,-1.0136,-1.1563,-1.3056,-1.2385,-1.1831,-1.1956,-1.1699,-1.1526,-1.1526,-1.1805,-1.296,-1.5176,-1.436,-1.3739,-1.3739,-1.2792,-1.2179,-1.1965,-1.1095,-0.9914,-0.8542,-0.8012,-0.7249,-0.6338,-0.6338,-0.6338,-0.6338,-0.6338,-0.6264,-0.6271,-0.6271,-0.6307,-0.6325,-0.6332,-0.565,-0.4581,-0.4418,-0.4954,-0.5863,-0.609,-0.6061,-0.586,-0.5721,-0.5864,-0.6012,-0.6254,-0.619,-0.6001,-0.5775,-0.5669,-0.5538,-0.5452,-0.542,-0.546,-0.5449,-0.5428,-0.5428,-0.5428,-0.5428,-0.5428,-0.5428,-0.5432,-0.5369,-0.5369,-0.5318,-0.4941,-0.4001,-0.4622,-0.4826,-0.3854,-0.3668,-0.388,-0.4507,-0.4813,-0.507,-0.5152,-0.5213,-0.5189,-0.504,-0.5104,-0.5145,-0.5131,-0.5209,-0.5284,-0.5425,-0.5428,-0.5403,-0.542,-0.542,-0.5391,-0.5408,-0.5412,-0.489,0.6069,0.2581,-0.089,-0.2062,-0.4681,-0.63,-0.3748,-0.2692,-0.1848,-0.0573,0.1673,0.3362,0.3289,0.1616,0.058,0.182,0.1148,-0.0787,-0.4332,-0.4488,-0.5814,-1.0044,-0.9315,-0.8655,-0.9145,-0.8583,-0.8148,-0.8281,-0.8466,-1.0009,-1.3301,-1.2504,-1.191,-1.191,-1.1174,-1.0553,-1.0033,-0.9868,-0.9117,-0.7719,-0.7536,-0.7099,-0.6338,-0.6338,-0.6338,-0.6338,-0.6264,-0.6271,-0.6274,-0.577,-0.5625,-0.5692,-0.6125,-0.5274,-0.3646,-0.2788,-0.3231,-0.4357,-0.5227,-0.5405,-0.5254,-0.5517,-0.5476,-0.5343,-0.5541,-0.56,-0.555,-0.5256,-0.5375,-0.5603,-0.5536,-0.5528,-0.5518,-0.5399,-0.5369,-0.5369,-0.5369,-0.5369,-0.5369,-0.5369,-0.5376,-0.5246,-0.4903,-0.5119,-0.4782,-0.2947,-0.3558,-0.4005,-0.3389,-0.2925,-0.3059,-0.3913,-0.4268,-0.4751,-0.5369,-0.5372,-0.5304,-0.5152,-0.5284,-0.5294,-0.5078,-0.5284,-0.5432,-0.5432,-0.5369,-0.5379,-0.5395,-0.5038,-0.4827,-0.4818,-0.525,-0.4621,0.8869,0.7386,0.6393,0.3967,0.1922,0.053,0.0719,0.1968,0.316,0.3257,0.452,0.5444,0.5231,0.47,0.49,0.6481,1.0558,1.0744,0.289,0.3157,0.1575,-0.5243,-0.5703,-0.5903,-0.7246,-0.7242,-0.7451,-0.7987,-0.7879,-0.8148,-0.8923,-0.8861,-0.8789,-0.8789,-0.8721,-0.8764,-0.8925,-0.8129,-0.7721,-0.752,-0.6798,-0.6416,-0.6338,-0.6338,-0.6338,-0.6338,-0.6271,-0.6278,0.0,-0.4206,-0.3404,-0.3618,-0.5565,-0.6158,-0.557,-0.1681,-0.0349,-0.0765,-0.244,-0.3138,-0.3693,-0.556,-0.4781,-0.3024,-0.3319,-0.3426,-0.3352,-0.3352,-0.4332,-0.548,-0.5673,-0.561,-0.541,-0.5396,-0.5393,-0.5393,-0.5393,-0.5393,-0.5393,-0.5393,-0.5393,-0.4846,-0.3215,-0.4308,-0.4788,-0.2948,-0.1411,-0.1614,-0.4779,-0.3701,-0.2624,-0.2421,-0.2422,-0.3253,-0.5243,-0.5393,-0.5401,-0.5385,-0.5373,-0.5308,-0.5088,-0.5294,-0.5376,-0.5376,-0.5386,-0.54,-0.5408,-0.3774,-0.2972,-0.298,-0.4649,-0.5324,1.5093,1.2617,1.0149,0.8595,0.6899,0.5802,0.639,0.6801,0.6861,0.6511,0.689,0.7147,0.6827,0.6218,0.6246,0.7659,0.9657,1.1575,1.322,1.0331,0.6483,0.2224,0.0879,-0.0746,-0.3466,-0.517,-0.6161,-0.6446,-0.6365,-0.632,-0.6269,-0.7378,-0.7953,-0.7887,-0.8081,-0.7994,-0.766,-0.7375,-0.7082,-0.6771,-0.6458,-0.6338,-0.6338,-0.6268,-0.6271,-0.6271,-0.6285,-0.6298,0.0,-0.5372,-0.3527,-0.1327,-0.216,-0.2527,-0.2329,-0.0615,-0.0,-0.0137,-0.082,-0.1983,-0.3428,-0.5597,-0.5381,-0.392,-0.187,-0.1241,-0.1229,-0.1226,-0.2464,-0.3776,-0.3912,-0.3825,-0.3758,-0.3758,-0.3758,-0.3758,-0.3758,-0.3758,-0.3758,-0.3758,-0.4645,-0.5199,-0.4445,-0.3096,-0.1884,-0.1209,-0.0471,-0.0539,-0.1954,-0.155,-0.1012,-0.0877,-0.0865,-0.1191,-0.2075,-0.3151,-0.3806,-0.3767,-0.3799,-0.4204,-0.5232,-0.5355,-0.4909,-0.382,-0.375,-0.4333,-0.5405,-0.4675,-0.3198,-0.1066,-0.1848,-0.2168,2.0299,1.776,1.4836,1.3383,1.1918,1.0855,1.1045,1.0779,1.02,0.9446,0.9047,0.8712,0.8158,0.7192,0.6922,0.8019,0.8409,1.1043,1.7903,1.3876,0.9829,0.8805,0.6252,0.3128,-0.0479,-0.3533,-0.5123,-0.4645,-0.4601,-0.4515,-0.4267,-0.5415,-0.6311,-0.6871,-0.7021,-0.6933,-0.6459,-0.662,-0.6499,-0.6135,-0.6227,-0.6271,-0.6271,-0.6281,-0.5964,-0.5404,-0.6058,-0.6315,0.0,-0.4917,-0.2686,-0.0,-0.0,-0.0,-0.0,-0.0,-0.0,-0.0,-0.0,-0.0944,-0.2432,-0.3931,-0.4136,-0.3316,-0.0742,-0.0,-0.0,-0.0,-0.0885,-0.1928,-0.1887,-0.1877,-0.1877,-0.1877,-0.1877,-0.1877,-0.1877,-0.1877,-0.1877,-0.1877,-0.296,-0.3777,-0.3777,-0.1683,-0.0,-0.0,-0.0,0.0404,0.1482,0.1616,0.1212,0.0135,-0.0,-0.0,-0.0,-0.114,-0.1877,-0.1877,-0.189,-0.2441,-0.3738,-0.4813,-0.4831,-0.3509,-0.2449,-0.2509,-0.3767,-0.3834,-0.2455,-0.0,-0.0,-0.0,2.3587,2.2669,2.1518,1.88,1.7269,1.5925,1.4143,1.3599,1.3122,1.2002,1.1066,1.0151,0.9027,0.7736,0.7172,0.8049,0.9009,1.0833,1.4465,1.2629,1.1597,1.3614,0.9336,0.4839,0.1127,-0.2778,-0.4442,-0.283,-0.2749,-0.27,-0.27,-0.2406,-0.3202,-0.535,-0.5219,-0.5223,-0.5446,-0.5611,-0.5689,-0.5696,-0.6149,-0.6295,-0.6295,-0.6295,-0.5176,-0.3281,-0.5358,-0.6329,0.0,-0.1759,-0.0075,-0.0,-0.0,-0.0,-0.0,-0.0,-0.0,-0.0,-0.0,-0.0,-0.0067,-0.0067,-0.0067,-0.0067,-0.0,-0.0,-0.0,-0.0,-0.0,-0.0,-0.0,-0.0,-0.0,-0.0,-0.0,-0.0,-0.0,-0.0,-0.0,-0.0,-0.0067,-0.0067,-0.0067,-0.0,-0.0,-0.0,-0.0,0.128,0.4867,0.5343,0.3974,0.0402,-0.0,-0.0,-0.0,-0.0,-0.0,-0.0,-0.0,-0.007,-0.007,-0.352,-0.5419,-0.5343,-0.1821,-0.0074,-0.0076,-0.0076,-0.0,-0.0,-0.0,-0.0,2.5735,2.4942,2.3754,2.2018,2.0141,1.8216,1.6389,1.5203,1.4058,1.2349,1.1458,1.0724,0.9616,0.8651,0.7999,0.7717,0.8516,1.101,1.6147,1.4941,1.4459,1.6806,1.0734,0.4711,0.0633,0.099,0.1206,0.0692,0.0626,0.0622,0.0622,-0.119,-0.2492,-0.3202,-0.3395,-0.3975,-0.5046,-0.5375,-0.4988,-0.3955,-0.4022,-0.4085,-0.4146,-0.5668,-0.5918,-0.5196,-0.2986,-0.1963,-0.188,-0.0526,-0.0,-0.0,-0.0,0.1494,0.3708,0.3708,0.2891,0.1676,0.0403,-0.0,-0.0,-0.0,-0.0,-0.0,-0.0,-0.0,-0.0,-0.0,-0.0,-0.0,-0.0,-0.0,-0.0,-0.0,-0.0,-0.0,-0.0,-0.0,-0.0,-0.0,-0.0,-0.0,-0.0,0.202,0.3708,0.3708,0.2621,0.228,0.3422,0.4645,0.4989,0.3828,0.1473,-0.0,-0.0,-0.0,-0.0,-0.0,-0.0,-0.0,-0.0,-0.1088,-0.1676,-0.1676,-0.0593,-0.0,-0.0,-0.0,0.1481,0.4332,0.4332,0.3534,2.6661,2.6554,2.5858,2.4642,2.3195,2.1464,1.9457,1.7802,1.6009,1.3568,1.2125,1.0857,0.9418,0.8441,0.7983,0.8297,0.9073,1.0143,1.1715,1.1363,1.0949,1.1025,0.7134,0.3862,0.2201,0.2851,0.3278,0.3084,0.3074,0.3074,0.3074,0.1338,-0.0171,-0.1311,-0.1547,-0.2124,-0.3017,-0.4637,-0.4927,-0.3971,-0.2595,-0.196,-0.2006,-0.3332,-0.396,-0.3805,-0.1173,-0.0,0.0,-0.0,0.0808,0.2033,0.2018,0.299,0.4445,0.5132,0.4715,0.3556,0.2412,0.1607,0.1005,0.1007,0.1008,0.0873,0.0202,-0.0,-0.0,-0.0,-0.0,-0.0,-0.0,-0.0,-0.0,-0.0,-0.0,0.0404,0.1752,0.202,0.1818,0.1143,0.1008,0.1008,0.1008,0.2891,0.4582,0.5269,0.4442,0.3689,0.3687,0.4703,0.5389,0.5389,0.3351,0.1742,0.1075,0.1864,0.1685,0.007,-0.0,-0.0,-0.0,-0.0,-0.0,-0.0,-0.0,-0.0,-0.0,0.1637,0.3698,0.6329,0.6322,0.5587,0.0,2.737,2.762,2.6598,2.6075,2.5183,2.2916,2.1015,0.0,1.5469,1.3026,1.0865,0.8831,0.7544,0.7466,0.9543,0.9897,0.783,0.1931,0.249,0.2163,-0.1405,0.0597,0.3065,0.5145,0.3128,0.2512,0.4379,0.4494,0.4494,0.4494,0.4494,0.3228,0.0428,0.0184,0.0126,-0.0,-0.3313,-0.499,-0.4999,-0.158,-0.0,-0.0,0.0302,0.0227,-0.0,-0.0,-0.0,0.0,0.0302,0.2376,0.5394,0.5396,0.4406,0.308,0.4776,0.5393,0.5393,0.5393,0.43,0.2878,0.288,0.288,0.2611,0.087,0.0201,-0.0,-0.0,0.0202,0.0404,0.0404,0.0269,0.0202,0.0202,0.0202,0.1144,0.4456,0.5343,0.4925,0.3218,0.288,0.288,0.288,0.288,0.3485,0.5119,0.5393,0.5389,0.5379,0.5376,0.5376,0.5376,0.5379,0.47,0.3013,0.484,0.4437,0.0704,0.0294,0.0227,0.0228,0.0233,0.0235,0.0235,0.0235,0.0235,0.0235,0.4171,0.6165,0.6325,0.6305,0.6295,2.4396,0.0,2.6543,2.6896,2.621,2.5207,0.0,2.2516,2.0199,1.7456,1.5094,1.2944,1.1154,0.9665,0.8673,0.8422,0.5427,0.0111,-0.8527,-0.766,-0.5843,-0.4948,0.3812,0.8441,0.5206,0.4241,0.3969,0.4477,0.4525,0.4525,0.4525,0.448,0.4163,0.3438,0.231,0.1113,-0.0,-0.0813,-0.1238,-0.1264,-0.0424,-0.0,0.0074,0.287,0.265,-0.0,-0.0,-0.0,0.022,0.2954,0.464,0.539,0.5378,0.5148,0.4834,0.5246,0.5376,0.5369,0.5379,0.5106,0.4767,0.4776,0.4779,0.4709,0.4236,0.2213,-0.0,-0.0,0.2021,0.4118,0.4118,0.3092,0.2078,0.2078,0.2078,0.2278,0.3153,0.4439,0.5262,0.4846,0.4779,0.4779,0.4779,0.4773,0.4903,0.5312,0.5376,0.5369,0.5432,0.5432,0.5432,0.5432,0.5372,0.5243,0.4834,0.3993,0.3886,0.4773,0.3268,0.2357,0.2401,0.2338,0.2344,0.2344,0.2344,0.2344,0.2344,0.3365,0.4704,0.6291,0.6285,0.6278,2.3494,2.5061,2.6472,2.6718,2.6859,2.6615,2.5544,2.3911,2.1857,1.9111,1.6731,1.4494,1.2465,1.0423,0.8345,0.6343,0.3045,-0.2669,-1.2367,-1.411,-1.2648,-0.7987,-0.0761,0.3513,0.2642,0.3708,0.4512,0.4477,0.4522,0.4625,0.4948,0.4956,0.5031,0.5132,0.4311,0.3032,0.1252,0.1253,0.1271,0.1237,0.1237,0.1254,0.1285,0.3289,0.3579,0.2432,0.159,0.1226,0.1426,0.3381,0.4633,0.5395,0.5383,0.5379,0.5369,0.5369,0.5432,0.5428,0.5369,0.5369,0.5372,0.5379,0.5379,0.5379,0.5386,0.4025,0.2277,0.1476,0.2619,0.4375,0.5199,0.4645,0.3961,0.3961,0.3961,0.3959,0.3956,0.4751,0.5559,0.5488,0.5484,0.5504,0.5569,0.5521,0.5474,0.5474,0.5471,0.544,0.5435,0.5428,0.5428,0.5428,0.5432,0.5399,0.5471,0.4571,0.4599,0.5992,0.5133,0.4558,0.454,0.4543,0.4543,0.4543,0.4543,0.4543,0.4543,0.4538,0.5168,0.6278,0.6274,0.6268,2.3106,2.5185,2.686,2.6386,2.7393,2.8049,2.6382,2.5023,2.3341,2.0702,1.8281,1.5993,1.3805,1.092,0.7597,0.3876,-0.0676,-0.6656,-1.5164,-1.9005,-1.8232,-1.0872,-0.7568,-0.4253,-0.0174,0.2606,0.4252,0.448,0.4577,0.4893,0.5487,0.5597,0.5835,0.6158,0.6163,0.5331,0.352,0.3177,0.3035,0.3039,0.3041,0.3088,0.3105,0.3101,0.3946,0.5312,0.0,0.0,0.3122,0.312,0.4025,0.5418,0.5426,0.5369,0.5428,0.5428,0.5428,0.5428,0.5428,0.5428,0.5428,0.5428,0.5428,0.5428,0.5372,0.5376,0.5103,0.3549,0.308,0.3485,0.4982,0.5393,0.5389,0.5389,0.5389,0.5393,0.541,0.5562,0.5652,0.5616,0.5603,0.5637,0.5776,0.5701,0.5623,0.5623,0.5623,0.5566,0.5416,0.5463,0.5456,0.5428,0.5428,0.5423,0.5579,0.561,0.5694,0.5795,0.6105,0.6254,0.6288,0.6291,0.6291,0.6291,0.6291,0.6291,0.6291,0.6281,0.6274,0.6274,0.6268,0.6338,2.2749,2.5226,2.7111,2.6249,2.6542,2.6932,2.6569,2.5216,2.3694,2.2488,2.0316,1.8233,1.6851,1.3246,0.8318,0.1783,-1.271,-2.3986,-2.6309,-2.503,-2.1352,-1.4569,-0.8413,-0.3149,0.0895,0.2066,0.307,0.4421,0.5011,0.5378,0.5487,0.6105,0.6693,0.7313,0.7351,0.7274,0.7128,0.5407,0.4577,0.4535,0.4563,0.4712,0.4984,0.4832,0.4963,0.5363,0.0,0.4959,0.5014,0.5004,0.5138,0.541,0.5376,0.5428,0.5428,0.5428,0.5428,0.5428,0.5428,0.5428,0.5428,0.5428,0.5428,0.5428,0.5428,0.5432,0.5362,0.509,0.4964,0.504,0.5312,0.5372,0.5432,0.5432,0.5432,0.5403,0.5532,0.5474,0.5542,0.5722,0.5674,0.5637,0.5776,0.5783,0.5769,0.5769,0.5769,0.5718,0.5576,0.5555,0.5504,0.5442,0.5428,0.5423,0.5579,0.5698,0.5837,0.5993,0.6044,0.6129,0.6261,0.6268,0.6268,0.6268,0.6268,0.6268,0.6268,0.6264,0.6264,0.6264,0.6338,0.6338,2.2259,2.4524,2.623,2.562,2.7064,2.835,2.7231,2.6636,2.5845,2.4169,2.2451,2.0848,1.9502,1.6244,0.985,-0.196,-1.5716,-2.557,-2.7516,-2.5466,-2.1592,-1.5676,-1.0708,-0.5513,0.0166,0.1615,0.2852,0.4376,0.514,0.5677,0.6091,0.6781,0.7686,0.8751,0.8784,0.8992,0.9481,0.7813,0.6678,0.6083,0.6096,0.5937,0.572,0.6166,0.6256,0.5963,0.0,0.6086,0.609,0.5568,0.5369,0.5369,0.5428,0.5686,0.6071,0.6071,0.6071,0.6009,0.5557,0.5428,0.5428,0.5428,0.5428,0.5428,0.5428,0.5428,0.5428,0.5428,0.5432,0.5369,0.5369,0.5432,0.5428,0.5428,0.5428,0.5449,0.545,0.5477,0.5525,0.5661,0.5694,0.5752,0.5898,0.5925,0.5925,0.5925,0.5925,0.5844,0.5616,0.5589,0.5532,0.5446,0.5428,0.5454,0.5684,0.5766,0.5901,0.6139,0.6156,0.6186,0.6335,0.6338,0.6338,0.6338,0.6338,0.6338,0.6338,0.6338,0.6338,0.6338,0.6338,0.6338,2.1694,2.3739,2.5249,2.4991,2.7203,2.9079,2.7715,2.7737,2.7493,2.5645,2.441,2.304,2.118,1.7102,0.9456,-0.4661,-1.5241,-2.2737,-2.5617,-2.3904,-2.0695,-1.6292,-1.2671,-0.7729,-0.0662,0.1673,0.3254,0.4383,0.5278,0.5977,0.6578,0.749,0.8605,0.9963,1.0038,1.0382,1.1038,0.9974,0.877,0.7456,0.7155,0.6705,0.6228,0.7034,0.7073,0.6577,0.6718,0.6806,0.6845,0.6147,0.5913,0.6017,0.6017,0.64,0.6981,0.6981,0.6981,0.6915,0.6272,0.6017,0.5947,0.5752,0.5686,0.5686,0.5491,0.5428,0.5435,0.5406,0.5456,0.5428,0.5428,0.5428,0.5428,0.5428,0.5428,0.5439,0.5406,0.5508,0.561,0.5681,0.5779,0.5905,0.6057,0.6084,0.6084,0.6084,0.6084,0.5989,0.5728,0.5694,0.5633,0.5481,0.5464,0.5572,0.5833,0.5888,0.601,0.6247,0.6338,0.6338,0.6338,0.6338,0.6338,0.6338,0.6338,0.6338,0.6338,0.6338,0.6338,0.6338,0.6338,0.6338,2.0985,2.322,2.475,2.4723,2.5804,2.7006,2.7554,2.7459,2.7167,2.6739,2.5858,2.4199,2.1193,1.3496,0.4774,-0.4096,-1.3001,-1.9944,-2.3273,-2.1458,-1.9122,-1.7372,-1.3213,-0.7747,-0.0667,0.2633,0.4392,0.4497,0.5742,0.6549,0.6602,0.7925,0.9344,1.068,1.0739,1.1031,1.1701,1.1616,1.0549,0.8567,0.7268,0.6683,0.6815,0.6887,0.7011,0.7026,0.7041,0.7218,0.7466,0.7404,0.7521,0.7832,0.7832,0.7832,0.7897,0.7897,0.7897,0.7892,0.7832,0.7832,0.7702,0.685,0.6588,0.6461,0.562,0.5428,0.5459,0.5535,0.5471,0.5428,0.5428,0.5428,0.5428,0.5428,0.5428,0.5466,0.5542,0.5583,0.5671,0.5945,0.6006,0.6061,0.6217,0.6244,0.6244,0.6244,0.6244,0.6183,0.602,0.5996,0.5939,0.5786,0.5769,0.5837,0.6,0.6146,0.6237,0.6335,0.6338,0.6338,0.6338,0.6338,0.6338,0.6338,0.6338,0.6338,0.6338,0.6338,0.6338,0.6338,0.6338,0.6338,2.0603,2.181,2.2597,2.3374,2.3581,2.4236,2.6803,2.7578,2.7453,2.6336,2.5496,2.3834,2.0246,1.1049,0.2517,-0.1883,-1.0846,-1.8056,-2.0314,-1.8616,-1.6558,-1.5004,-1.1426,-0.6753,-0.0609,0.2749,0.4668,0.5105,0.6063,0.6806,0.727,0.8625,0.9857,1.0753,1.1178,1.174,1.2483,1.2008,1.141,1.0629,0.9658,0.8784,0.8045,0.8715,0.859,0.7805,0.8039,0.8221,0.8315,0.7964,0.7886,0.8027,0.8613,0.8812,0.8812,0.8812,0.8812,0.8748,0.8156,0.8027,0.7962,0.7632,0.7502,0.7437,0.7116,0.6985,0.703,0.7292,0.7292,0.697,0.5837,0.5433,0.5428,0.5428,0.5428,0.5446,0.5437,0.5447,0.5508,0.5715,0.5827,0.5935,0.6091,0.6196,0.6338,0.6338,0.6338,0.643,0.6857,0.6396,0.6187,0.6666,0.6244,0.5966,0.6023,0.6173,0.6338,0.6338,0.6338,0.6338,0.6338,0.6338,0.6338,0.6338,0.6338,0.6338,0.6338,0.6338,0.6338,0.6342,0.6349,0.6393,1.9991,2.0136,1.9899,2.0554,2.0202,2.0517,2.3634,2.6139,2.7645,2.696,2.4879,2.2114,1.8702,1.0124,0.2541,-0.0507,-0.9283,-1.6008,-1.681,-1.5658,-1.3767,-1.1139,-0.8214,-0.4344,0.0887,0.3312,0.4764,0.545,0.6202,0.6939,0.7688,0.9013,1.0117,1.0762,1.1446,1.2153,1.2881,1.2391,1.2166,1.2138,1.1683,1.0704,0.9363,1.0136,0.9921,0.9037,0.9451,0.9708,0.9754,0.9556,0.934,0.9233,0.9582,0.9722,0.9722,0.9722,0.9722,0.9658,0.9,0.8801,0.8801,0.8484,0.842,0.8355,0.8091,0.8027,0.8088,0.8383,0.8363,0.8019,0.6867,0.6531,0.6408,0.6234,0.6316,0.634,0.6218,0.6293,0.6407,0.6529,0.6734,0.6927,0.7049,0.7171,0.7253,0.7253,0.7253,0.7435,0.797,0.7434,0.7166,0.7406,0.6923,0.6475,0.6101,0.6156,0.6186,0.6186,0.6186,0.621,0.6257,0.6213,0.621,0.6335,0.6213,0.6213,0.6338,0.6338,0.6338,0.6264,0.6407,0.6471,1.9052,1.8244,1.6816,1.6103,1.5644,1.5802,1.7608,2.2808,2.76,2.8885,2.4135,1.9009,1.6579,1.0936,0.4904,-0.042,-0.8497,-1.3733,-1.2735,-1.2622,-1.084,-0.6018,-0.3503,-0.0387,0.4107,0.4501,0.4805,0.545,0.6202,0.6939,0.7688,0.9061,1.012,1.0762,1.1458,1.2129,1.2881,1.2881,1.2881,1.2881,1.2881,1.2157,1.0813,1.0813,1.0813,1.0838,1.1306,1.1672,1.1919,1.243,1.2262,1.1703,1.0919,1.0618,1.0618,1.0624,1.0624,1.0624,1.0624,1.0624,1.0428,0.9594,0.9338,0.9139,0.8285,0.8027,0.8118,0.8498,0.8305,0.8134,0.8508,0.8689,0.871,0.8128,0.8195,0.8292,0.8077,0.831,0.8624,0.8629,0.8988,0.9296,0.9296,0.9296,0.9296,0.9296,0.9296,0.9296,0.9296,0.9296,0.8917,0.7936,0.7783,0.7403,0.6412,0.6118,0.603,0.603,0.603,0.6098,0.6251,0.6108,0.6101,0.6254,0.6108,0.6105,0.6338,0.6338,0.6338,0.6264,0.6407,0.6474,1.6778,1.5722,1.4474,1.1857,1.068,1.0742,1.3066,1.8551,2.3474,2.4678,2.1023,1.7681,1.7867,0.9178,0.1214,-0.1206,-0.7321,-1.1772,-1.176,-0.9332,-0.648,-0.3516,-0.0494,0.2458,0.5206,0.6123,0.6657,0.6999,0.7248,0.7688,0.8448,0.9332,1.01,1.0762,1.1458,1.2129,1.2881,1.2881,1.2881,1.2881,1.2881,1.2403,1.1516,1.1516,1.1266,1.0838,1.1201,1.1564,1.1927,1.2315,1.2362,1.2222,1.1983,1.1864,1.1835,1.1574,1.1469,1.1351,1.0807,1.0624,1.0561,1.0301,1.0238,1.0174,0.9907,0.9843,0.9918,1.0201,1.0188,1.0168,1.0257,1.0443,1.017,0.8391,0.8077,0.8149,0.8235,0.8363,0.8551,0.8872,0.9041,0.9183,0.9271,0.9296,0.9296,0.9296,0.9296,0.9296,0.9296,0.989,0.9664,0.8012,0.7783,0.7706,0.7403,0.7279,0.7247,0.7247,0.7247,0.6859,0.6016,0.5996,0.6051,0.6098,0.6054,0.6105,0.6338,0.6338,0.6338,0.6345,0.6515,0.663,1.6077,1.378,1.1194,0.8375,0.7198,0.7582,1.0889,1.6932,2.1952,2.2332,1.9889,1.7301,1.6194,0.7858,0.0457,-0.1661,-0.581,-0.8954,-0.9589,-0.6612,-0.3306,-0.0386,0.2415,0.4613,0.6013,0.6961,0.7551,0.767,0.7923,0.8311,0.8752,0.9666,1.0364,1.0762,1.1724,1.2452,1.2881,1.2881,1.2881,1.2881,1.2881,1.2666,1.2236,1.2236,1.2039,1.166,1.1999,1.2529,1.3026,1.2728,1.2694,1.2813,1.2307,1.2225,1.2388,1.2114,1.1966,1.171,1.1226,1.0788,1.0408,1.0584,1.0481,1.0408,1.0584,1.0624,1.0685,1.0909,1.0909,1.0848,1.0962,1.1035,1.0718,0.9332,0.9139,0.9225,0.9277,0.9369,0.9558,0.9967,1.0122,1.0277,1.0456,1.0496,1.0496,1.0496,1.0496,1.0496,1.0496,1.1019,1.0789,0.9135,0.8983,0.8836,0.8466,0.8312,0.8341,0.8341,0.8341,0.7899,0.7011,0.6745,0.6648,0.6716,0.7017,0.7147,0.6872,0.6872,0.6721,0.6345,0.6502,0.6644,1.601,1.2125,0.7579,0.5267,0.4731,0.5875,1.0202,1.6692,2.1651,2.1209,2.0,1.7634,1.3055,0.723,0.2015,-0.1361,-0.3792,-0.5523,-0.6158,-0.3921,-0.0756,0.3175,0.5089,0.6277,0.6745,0.7393,0.7805,0.7978,0.8515,0.8829,0.8903,1.0115,1.0813,1.0813,1.2098,1.2822,1.2881,1.2881,1.2881,1.2881,1.2881,1.2881,1.2881,1.2881,1.2881,1.29,1.333,1.3945,1.4583,1.3405,1.3194,1.3483,1.2321,1.2141,1.2539,1.2489,1.223,1.1966,1.1751,1.1009,1.0181,1.0483,1.0341,1.0174,1.0474,1.0624,1.0678,1.0875,1.0742,1.0588,1.0875,1.0735,1.0591,1.0618,1.0762,1.0889,1.0648,1.0808,1.1082,1.1369,1.1643,1.1911,1.2178,1.2225,1.2231,1.2258,1.2238,1.2231,1.2258,1.2238,1.1851,1.0896,1.0748,1.0387,0.9518,0.9332,0.928,0.928,0.928,0.9114,0.8826,0.8061,0.7724,0.7905,0.8694,0.8704,0.7931,0.7931,0.748,0.657,0.672,0.6796,1.2706,0.9724,0.6381,0.1392,0.1795,0.4488,0.8293,1.2841,1.6789,1.8608,1.8706,1.763,1.4896,0.9159,0.4397,0.3047,0.0104,-0.162,-0.0479,0.1017,0.3133,0.6131,0.6972,0.7551,0.8212,0.8595,0.922,1.0077,0.9953,0.978,0.9599,1.0364,1.0813,1.0813,1.1625,1.2295,1.2881,1.2881,1.2881,0.0,1.2881,1.2881,1.2881,1.2881,1.2881,1.29,1.333,1.3613,1.3779,1.3465,1.3432,1.3499,1.3247,1.3349,1.3661,1.3048,1.2959,1.3006,1.1499,1.0791,1.0559,1.0288,1.0167,1.0174,1.0474,1.0624,1.0638,1.0698,1.0441,1.0281,1.0575,1.0434,1.0274,1.0571,1.0672,1.0759,1.0862,1.0949,1.1082,1.1369,1.1476,1.1543,1.1603,1.1617,1.169,1.1924,1.1764,1.1697,1.1931,1.1757,1.1339,1.0538,1.0489,1.0493,1.0473,1.0439,1.0404,1.0404,1.0404,1.0085,0.9229,0.8881,0.8763,0.8813,0.8983,0.9074,0.8998,0.8998,0.8846,0.8623,0.8815,0.8542,1.1973,0.8986,0.6081,0.2332,0.2856,0.5012,0.7913,1.1313,1.4597,1.7278,1.8091,1.7876,1.6424,1.2242,0.8427,0.6694,0.5215,0.4442,0.4862,0.5198,0.5877,0.7359,0.7931,0.839,0.8864,0.9845,1.0442,1.0508,1.0795,1.0764,1.0305,1.0914,1.1266,1.1266,1.1981,1.2501,1.2881,1.2881,1.2881,1.2881,1.2881,1.2881,1.2881,1.2881,1.2881,1.2891,1.3115,1.332,1.3496,1.3291,1.333,1.3486,1.3281,1.3467,1.3776,1.3346,1.2996,1.262,1.1632,1.0688,0.9953,0.9924,0.9913,0.994,1.0094,1.0241,1.0321,1.018,1.0027,0.9947,1.01,1.0027,0.9987,1.0274,1.0454,1.0665,1.0755,1.0788,1.0868,1.1162,1.1223,1.1263,1.1403,1.1423,1.1523,1.1824,1.1737,1.1744,1.2037,1.1944,1.1683,1.1313,1.1326,1.1388,1.1527,1.1539,1.1539,1.1539,1.1539,1.1242,1.0726,1.0666,1.0443,0.9928,1.0375,1.0438,1.004,1.004,0.9744,0.9301,0.9412,0.9189,1.2869,0.9255,0.6056,0.5008,0.5333,0.6452,0.8692,1.1222,1.3989,1.7146,1.8084,1.8217,1.7843,1.5241,1.2377,1.0047,0.9977,0.9961,0.9221,0.8527,0.8061,0.8109,0.8619,0.9133,0.9498,1.0844,1.1385,1.0598,1.1389,1.1603,1.1015,1.1625,1.1922,1.1814,1.251,1.2881,1.2881,1.2881,1.2881,1.2881,1.2881,1.2881,1.2881,1.2881,1.2881,1.2881,1.2881,1.3076,1.3369,1.3027,1.3086,1.3359,1.3018,1.3135,1.3496,1.3266,1.2686,1.1961,1.1619,1.0551,0.9315,0.9563,0.9606,0.9619,0.9666,0.9846,0.9993,0.9753,0.9646,0.9633,0.9733,0.9686,0.9693,1.0033,1.0307,1.0557,1.0611,1.0624,1.0698,1.0868,1.0915,1.0995,1.1236,1.1316,1.145,1.175,1.179,1.1897,1.2191,1.2184,1.2171,1.2225,1.2271,1.2325,1.2378,1.2432,1.2458,1.2458,1.2405,1.2378,1.2378,1.2325,1.1922,1.1087,1.1848,1.1922,1.1087,1.1087,1.064,0.9825,0.9825,0.9811,1.5146,1.0274,0.5655,0.6105,0.6775,0.7992,1.0673,1.2493,1.4785,1.8868,1.9059,1.8715,1.951,1.6559,1.3947,1.3761,1.2063,1.0798,1.0789,1.031,0.9908,0.9873,0.9962,1.0229,1.0859,1.114,1.1442,1.1892,1.2089,1.2016,1.1697,1.2344,1.2452,1.1814,1.251,1.2881,1.2881,1.2881,1.2881,1.2881,1.2881,1.2881,1.2881,1.2881,1.2881,1.2881,1.2881,1.291,1.2959,1.29,1.291,1.2959,1.29,1.3135,1.3406,1.2391,1.2217,1.2211,1.0617,0.9911,0.9678,0.9357,0.9243,0.9345,0.9606,0.9713,0.9733,0.9693,0.9499,0.9362,0.9927,0.9679,0.9382,0.9987,1.0147,1.0247,1.0571,1.0624,1.0631,1.0672,1.0678,1.0628,1.0668,1.0882,1.1149,1.1443,1.1483,1.159,1.1891,1.1703,1.1643,1.1904,1.2151,1.2405,1.2741,1.2933,1.3093,1.3093,1.2839,1.2761,1.2761,1.2438,1.2224,1.2077,1.2224,1.2224,1.2077,1.2077,1.2003,1.1922,1.1922,1.167,1.557,1.1753,0.8468,0.8758,0.9395,1.0414,1.233,1.392,1.6011,1.9572,2.0318,2.0518,2.126,1.9061,1.6861,1.6103,1.4572,1.3155,1.2177,1.2148,1.1704,1.0375,1.0822,1.1039,1.0544,1.1267,1.1778,1.1875,1.2314,1.2522,1.2442,1.2715,1.2764,1.2452,1.2715,1.2881,1.2881,1.2881,1.2881,1.2881,1.2881,1.2881,1.2881,1.2881,1.2881,1.2881,1.2881,1.2881,1.2881,1.2881,1.2881,1.2881,1.2881,1.2998,1.3026,1.2144,1.1681,1.1353,1.0221,0.9562,0.9232,0.9059,0.905,0.9176,0.9198,0.9305,0.9399,0.9239,0.9218,0.921,0.9359,0.9312,0.9289,0.9773,0.9873,1.0,1.0524,1.0624,1.0624,1.0624,1.0624,1.0672,1.0775,1.0909,1.1149,1.1603,1.167,1.1777,1.2078,1.1997,1.2031,1.2405,1.3061,1.3339,1.3057,1.3655,1.3818,1.3037,1.2896,1.2748,1.2505,1.2371,1.2305,1.2305,1.2305,1.2305,1.2305,1.2305,1.2385,1.2552,1.2552,1.2549,1.6001,1.3883,1.2054,1.1752,1.2137,1.2922,1.4052,1.544,1.7265,2.0146,2.1352,2.2096,2.2748,2.1187,1.9344,1.804,1.674,1.5404,1.3967,1.3911,1.334,1.1562,1.2088,1.2163,1.1095,1.1972,1.2448,1.2003,1.2535,1.2881,1.2881,1.2881,1.2881,1.2881,1.2881,1.2881,1.2881,1.2881,1.2968,1.3152,1.2968,1.2968,1.3104,1.2978,1.2881,1.2881,1.2881,1.2881,1.2881,1.2881,1.2881,1.2881,1.2881,1.2774,1.251,1.1823,1.1116,1.0466,0.9762,0.9211,0.8804,0.8804,0.8958,0.9037,0.8871,0.8958,0.9044,0.8958,0.9017,0.917,0.9158,0.9245,0.9426,0.9719,0.9793,0.9933,1.0448,1.0624,1.0624,1.0624,1.0685,1.0742,1.0955,1.1116,1.1363,1.1804,1.1931,1.2058,1.2271,1.2519,1.2783,1.3161,1.423,1.4645,1.4216,1.4926,1.5023,1.4009,1.3544,1.321,1.2974,1.2526,1.2305,1.2305,1.2305,1.2305,1.2305,1.2378,1.2525,1.2829,1.2903,1.3026,1.7292,1.6804,1.5802,1.4596,1.4709,1.5326,1.6071,1.7019,1.8389,2.0862,2.1937,2.2761,2.3747,2.2172,2.0521,1.9942,1.8216,1.6804,1.6426,1.549,1.4765,1.4565,1.4225,1.3952,1.3891,1.376,1.3523,1.3055,1.2929,1.2881,1.2881,1.2881,1.2881,1.2881,1.2881,1.2881,1.2881,1.2881,1.32,1.3732,1.3152,1.32,1.3732,1.3152,1.2881,1.2881,1.2881,1.2881,1.2881,1.2881,1.2881,1.2881,1.2881,1.2452,1.1765,1.1116,1.0415,0.9762,0.9061,0.8804,0.8804,0.8804,0.8818,0.8824,0.8811,0.8818,0.8884,0.909,0.9176,0.9309,0.9907,0.9853,0.9733,1.0027,1.0094,1.018,1.0494,1.0624,1.0624,1.0624,1.0782,1.0975,1.0989,1.1456,1.183,1.1864,1.2104,1.2285,1.2298,1.3098,1.3799,1.4276,1.5404,1.6267,1.6637,1.699,1.7106,1.709,1.5583,1.4687,1.4665,1.3112,1.2305,1.2305,1.2305,1.2305,1.2305,1.2585,1.2808,1.2829,1.3053,1.3347,1.5182,1.7212,1.8618,1.8036,1.7801,1.7768,1.8059,1.8971,2.0125,2.161,2.274,2.3673,2.4386,2.336,2.1997,2.0653,1.944,1.8255,1.713,1.6977,1.657,1.5433,1.5231,1.4933,1.4227,1.4061,1.3939,1.3762,1.393,1.3884,1.3515,1.3457,1.3286,1.2929,1.2881,1.3113,1.3457,1.3884,1.4154,1.4376,1.3789,1.36,1.3779,1.32,1.2881,1.2881,1.2881,1.2881,1.2881,1.2881,1.2881,1.2881,1.2881,1.2725,1.2353,1.1225,1.0914,1.0914,0.9814,0.9465,0.9465,0.9465,0.9159,0.8804,0.8804,0.8804,0.8831,0.8931,0.9044,0.919,0.9265,0.9479,0.987,1.0678,1.1027,1.1392,1.2004,1.2151,1.2151,1.2151,1.2421,1.2713,1.2937,1.2892,1.2841,1.3042,1.259,1.2305,1.2305,1.2586,1.3145,1.4209,1.5495,1.6445,1.674,1.7757,1.8037,1.7067,1.6199,1.5771,1.5847,1.4156,1.3338,1.3614,1.2955,1.2492,1.2305,1.2412,1.3024,1.4091,1.4214,1.4857,1.0949,1.4448,1.7461,1.7852,1.8518,1.9176,1.9623,2.0524,2.1398,2.2044,2.3153,2.4099,2.446,2.407,2.3206,2.1697,2.0877,1.9921,1.8446,1.8456,1.8152,1.685,1.6625,1.6267,1.5582,1.5125,1.4849,1.4861,1.4789,0.0,1.3815,1.3668,1.3279,1.2666,1.2666,1.304,1.3768,1.419,1.4606,1.5005,1.419,1.3909,1.405,1.3286,1.2881,1.2881,1.2881,1.2881,1.2881,1.2881,1.2881,1.2881,1.2881,1.2774,1.2403,1.1475,1.1266,1.1366,1.0415,1.0167,1.0167,1.0167,0.9666,0.9159,0.9159,0.8956,0.8831,0.8925,0.9037,0.9212,0.9391,0.9876,1.0624,1.1636,1.2122,1.2603,1.3278,1.3183,1.3042,1.3166,1.3534,1.3899,1.4264,1.409,1.3916,1.3715,1.3171,1.2732,1.2732,1.3091,1.3829,1.5319,1.6621,1.7579,1.7943,1.8952,1.9155,1.8239,1.7389,1.6869,1.6563,1.4945,1.4029,1.403,1.3278,1.2806,1.2605,1.2705,1.3333,1.4424,1.4843,1.5919,0.0,0.0,0.0,1.3828,1.6657,1.9357,2.0648,2.1567,2.2124,2.2135,2.3129,2.4006,2.4025,2.4288,2.4155,2.3093,2.2444,2.1661,2.0501,1.9934,1.9453,1.9007,1.8477,1.8106,1.8124,1.71,1.6439,1.6421,1.5398,1.4468,1.3909,1.3384,1.2837,1.2246,1.2246,1.2759,1.3815,1.3815,1.4457,1.5632,1.4411,1.4143,1.4663,1.3478,1.2929,1.2881,1.2881,1.2881,1.2881,1.2881,1.2881,1.2881,1.2881,1.2452,1.1814,1.1814,1.1416,1.0864,1.0864,1.0813,1.0813,1.0813,1.0364,0.9814,0.9814,0.9361,0.8918,0.92,0.9225,0.9452,1.0485,1.1223,1.1906,1.2827,1.332,1.3735,1.4123,1.3606,1.3169,1.358,1.3955,1.433,1.4672,1.5055,1.4879,1.3954,1.3745,1.3745,1.3745,1.4601,1.5884,1.7685,1.8682,1.9564,2.0478,2.0479,2.0489,2.0489,1.9198,1.8035,1.6946,1.5584,1.4421,1.3299,1.3299,1.3299,1.3299,1.3494,1.3634,1.3729,1.5143,1.6437,0.0413,0.0,0.0,0.0,0.0,0.0,1.9364,2.1323,2.2863,2.2947,2.3523,2.4145,2.4624,2.4762,2.4511,2.3689,2.273,2.1795,2.0943,2.0416,2.0043,1.9932,1.9169,1.8668,1.8693,1.7693,1.7037,0.0,1.6386,1.5744,1.5129,1.4141,1.332,1.2743,1.3142,1.37,1.4422,1.4869,1.5499,1.6238,1.5454,1.496,1.4652,1.392,1.3334,1.2881,1.2881,1.2881,1.2881,1.2881,1.2881,1.2881,1.2881,1.2774,1.255,1.1972,1.203,1.2255,1.1724,1.1516,1.1516,1.1516,1.1065,1.0517,1.0517,1.0415,1.0285,1.0327,1.035,1.0543,1.1352,1.1485,1.1817,1.3473,1.374,1.385,1.4847,1.4864,1.4784,1.4896,1.5504,1.6038,1.615,1.6193,1.614,1.586,1.5234,1.4807,1.4807,1.5314,1.6071,1.7252,1.7464,1.7965,1.8893,1.847,1.8221,1.8221,1.8,1.7731,1.7241,1.6784,1.633,1.5921,1.5076,1.5083,1.585,1.4926,1.4978,1.6079,1.8189,1.9423,-0.4439,-0.1579,0.1868,0.6854,0.0,0.0,1.7657,2.0129,2.21,2.3298,2.3892,2.4342,2.4799,2.4957,2.4812,2.4149,2.3397,2.2505,2.1397,2.0878,2.0516,2.0314,1.9666,1.9244,1.9244,1.8263,1.7626,1.7626,1.6909,1.6053,1.5028,1.4023,1.3217,1.2607,1.2966,1.3636,1.4698,1.5062,1.5644,1.6466,1.5908,1.541,1.505,1.4457,1.3826,1.3286,1.3286,1.3152,1.2881,1.2881,1.2881,1.2881,1.2881,1.2881,1.2832,1.2403,1.255,1.2822,1.2403,1.2236,1.2236,1.2236,1.1774,1.1216,1.1216,1.1015,1.0813,1.0813,1.1015,1.1387,1.2204,1.2175,1.2422,1.4237,1.4249,1.4101,1.5158,1.541,1.5469,1.5644,1.625,1.6787,1.6973,1.7073,1.707,1.6636,1.614,1.579,1.579,1.5979,1.6545,1.7673,1.7651,1.7983,1.887,1.8647,1.8452,1.8691,1.8834,1.8634,1.8052,1.7982,1.767,1.7083,1.6461,1.6693,1.7804,1.6008,1.6095,1.7804,1.9243,2.0263,-0.8824,-0.6353,-0.3059,0.0456,0.507,0.0,1.526,1.8545,2.108,2.3203,2.4099,2.4504,2.4591,2.4926,2.4981,2.4388,2.4116,2.3469,2.1943,2.1383,2.0943,2.0449,2.0035,1.9747,1.9711,1.8779,1.8185,1.8106,1.7118,1.5856,1.4355,1.3685,1.3115,1.2517,1.248,1.3242,1.4778,1.4789,1.5377,1.6466,1.5952,1.5676,1.5588,1.505,1.4468,1.3909,1.3909,1.36,1.3113,1.3017,1.2968,1.2881,1.2881,1.2881,1.2881,1.2881,1.2881,1.2881,1.2881,1.2881,1.2881,1.2881,1.2452,1.1922,1.1922,1.1516,1.1023,1.1023,1.1501,1.2168,1.2994,1.3101,1.3428,1.5029,1.4795,1.4424,1.5234,1.541,1.5527,1.5918,1.6387,1.6855,1.7246,1.7705,1.7716,1.6853,1.6775,1.6775,1.6775,1.6811,1.7274,1.8453,1.854,1.8817,1.9609,1.9601,1.9698,2.0207,2.0275,1.9866,1.8868,1.9,1.8585,1.7496,1.7577,1.8149,1.9036,1.7001,1.7163,1.9195,1.925,1.9958,-0.8904,-0.7823,-0.6149,-0.3069,0.1493,0.0,1.0665,1.8139,2.3756,2.2335,2.3302,2.4322,2.403,2.46,2.4772,2.37,2.3795,2.3653,2.2635,2.2124,2.1635,2.0943,2.0449,2.007,1.9711,1.9132,1.8574,1.8145,1.7118,1.6145,1.5357,1.5168,1.4856,1.4244,1.4198,1.4597,1.541,1.541,1.5776,1.6522,1.638,1.6051,1.5588,1.5499,1.5096,1.4514,1.4514,1.4479,1.4294,1.3826,1.3334,1.2881,1.2881,1.2881,1.2881,1.2881,1.2881,1.2881,1.2881,1.2881,1.2881,1.2881,1.2774,1.2666,1.2666,1.2618,1.2471,1.2471,1.2807,1.3282,1.3782,1.3908,1.415,1.5166,1.5029,1.4795,1.5303,1.541,1.5439,1.5527,1.6182,1.6758,1.6846,1.75,1.794,1.7725,1.7725,1.7725,1.7725,1.8014,1.8325,1.8553,1.8143,1.8081,1.8556,1.7795,1.749,1.7963,1.8415,1.838,1.7649,1.8953,1.9418,1.8709,1.952,1.9678,1.9036,1.855,1.9027,2.0333,2.0611,2.0902,-0.7925,-0.745,-0.6725,-0.4861,-0.1472,0.0,0.0,1.2637,1.765,2.0103,2.0862,2.1228,2.1765,2.3024,2.386,2.3416,2.386,2.4005,2.3305,2.2565,2.1898,2.1368,2.091,2.0499,2.0035,1.9543,1.8939,1.8185,1.7585,1.6925,1.6046,1.6003,1.562,1.4744,1.4698,1.5005,1.5576,1.5588,1.5908,1.6522,1.6522,1.6337,1.6051,1.6051,1.5732,1.5141,1.5141,1.4971,1.4663,1.4376,1.4061,1.3752,1.3162,1.2881,1.2881,1.2881,1.2881,1.2881,1.2881,1.2881,1.2881,1.2881,1.2881,1.2881,1.2881,1.2881,1.2881,1.2881,1.3184,1.3603,1.397,1.4077,1.4291,1.5205,1.5088,1.4902,1.5322,1.541,1.541,1.541,1.6123,1.6665,1.6665,1.7441,1.8008,1.8008,1.8008,1.8008,1.8008,1.8193,1.8189,1.7816,1.7844,1.7953,1.829,1.8087,1.8308,1.8912,1.9238,1.9307,1.8939,1.9792,2.0101,1.9835,2.0323,2.0323,1.9766,1.9766,2.0079,2.0566,2.0791,2.1133,-0.6924,-0.6588,-0.6421,-0.5706,-0.3893,-0.1144,0.0,0.0,0.0,1.6592,1.7404,1.7392,1.9031,2.0788,2.2081,2.2399,2.3246,2.3783,2.3581,2.2778,2.2096,2.1845,2.1502,2.1117,2.0636,2.0119,1.9453,1.8555,1.8352,1.7826,1.6915,1.6786,1.6324,1.5392,1.5267,1.5492,1.6073,1.5901,1.6015,1.6481,1.6413,1.6358,1.6358,1.6358,1.6139,1.5764,1.5764,1.5511,1.5028,1.4926,1.488,1.4744,1.3563,1.3152,1.32,1.2978,1.2968,1.3065,1.2929,1.2881,1.2881,1.2881,1.2881,1.2881,1.2881,1.2881,1.2881,1.2881,1.3242,1.3711,1.4,1.4204,1.4551,1.5244,1.5156,1.5,1.5342,1.541,1.5439,1.5518,1.6182,1.6665,1.6665,1.7441,1.8008,1.8008,1.8008,1.8008,1.8008,1.8008,1.782,1.7359,1.7764,1.8251,1.8577,1.9069,1.9736,2.0518,2.0566,2.0566,2.0566,2.0566,2.0566,2.0566,2.0566,2.0566,2.0566,2.0566,2.0566,2.0566,2.0654,2.1074,-0.6759,-0.6588,-0.6421,-0.5706,-0.5437,-0.4351,-0.0378,0.0,0.6779,1.1239,0.0,1.4662,1.6848,0.0,0.0,1.8995,2.0467,2.1923,2.287,2.2775,2.2609,2.2488,2.2444,2.2224,2.177,2.103,2.0396,1.9986,1.917,1.8655,1.8521,1.811,1.7851,1.77,1.7247,1.729,1.78,1.6883,1.6448,1.649,1.6008,1.5781,1.5781,1.5781,1.6003,1.638,1.638,1.638,1.625,1.5732,1.5499,1.5365,1.419,1.4003,1.4387,1.3296,1.3238,1.3637,1.3113,1.2881,1.2881,1.2881,1.2881,1.2881,1.2881,1.2881,1.2881,1.2881,1.3447,1.4019,1.4068,1.4697,1.5293,1.5391,1.5381,1.5352,1.54,1.541,1.5527,1.5918,1.6387,1.6665,1.6665,1.7441,1.8008,1.8008,1.8008,1.8008,1.8008,1.8008,1.8105,1.8373,1.8523,1.8854,1.9684,1.9798,2.0049,2.0537,2.0566,2.0566,2.0566,2.0566,2.0566,2.0566,2.0566,2.0566,2.0566,2.0566,2.0566,2.0576,2.0977,2.1211,-0.5567,-0.5655,-0.5819,-0.5113,-0.5437,-0.5303,-0.313,-0.1059,0.1532,0.5227,0.0,0.0,0.0,0.0,0.0,0.0,1.8997,2.0877,2.2091,2.2691,2.2979,2.2944,2.3214,2.3301,2.3037,2.2034,2.1259,2.0973,2.059,2.0039,1.9295,1.9095,1.8719,1.8124,1.7894,1.7864,1.8107,1.7646,1.7223,1.6835,1.6388,1.5945,1.5595,1.5663,1.5819,1.6057,1.6371,1.6522,1.6466,1.6238,1.6139,1.6051,1.5186,1.4778,1.4652,1.4107,1.4107,1.4283,1.4025,1.3931,1.3884,1.3563,1.3658,1.3789,1.3113,1.3152,1.3385,1.3263,1.3672,1.4136,1.4453,1.4961,1.541,1.541,1.541,1.541,1.541,1.541,1.5469,1.5654,1.625,1.6665,1.6665,1.7441,1.8008,1.8008,1.8008,1.8008,1.8008,1.8008,1.7985,1.8052,1.8423,1.8793,1.9331,1.9669,2.0098,2.0537,2.0566,2.0566,2.0566,2.0566,2.0566,2.0566,2.0566,2.0566,2.0566,2.0566,2.0566,2.0566,2.0762,2.0986,-0.4723,-0.4838,-0.5109,-0.4625,-0.516,-0.5588,-0.4688,-0.4051,-0.2861,-0.0165,0.2164,0.0,0.0,0.0,1.2515,1.4601,0.0,1.9388,2.1019,2.2201,2.3003,2.3282,2.3999,2.4378,2.4208,2.3342,2.2677,2.2333,2.2005,2.1401,2.046,2.0227,1.9801,1.9027,1.8707,1.859,1.8714,1.8311,1.7755,1.7098,1.6656,1.6086,1.5432,1.5428,1.5499,1.5643,1.5944,1.6132,1.63,1.6283,1.6384,1.6479,1.6008,1.5599,1.5152,1.4835,1.4789,1.4926,1.4755,1.4698,1.4606,1.419,1.4329,1.4525,1.3658,1.3778,1.4174,1.3841,1.4138,1.4646,1.4753,1.5098,1.541,1.541,1.541,1.541,1.541,1.541,1.5449,1.5566,1.6113,1.6592,1.6709,1.7441,1.8008,1.8008,1.8008,1.8008,1.8008,1.8008,1.8004,1.7917,1.8309,1.8692,1.9025,1.9564,2.0098,2.0537,2.0566,2.0566,2.0566,2.0566,2.0566,2.0566,2.0566,2.0566,2.0566,2.0566,2.0566,2.0566,2.0566,2.0742,-0.456,-0.4519,-0.4515,-0.4519,-0.5003,-0.5324,-0.468,-0.5003,-0.5218,-0.4425,-0.1932,0.1095,0.4036,0.6216,0.8499,1.123,1.4094,0.0,0.0,2.1193,2.2513,2.3566,2.4836,2.5523,2.5179,2.5181,2.4935,2.4346,2.3204,2.2539,2.2513,2.1845,2.1404,2.1392,2.02,1.9765,2.0231,1.8797,1.7752,1.7107,1.6564,1.5972,1.5291,1.4905,1.5025,1.5495,1.5117,1.5257,1.5714,1.5721,1.6032,1.6522,1.6466,1.6479,1.6293,1.5107,1.505,1.5499,1.4926,1.4698,1.4698,1.4663,1.4698,1.4709,1.4652,1.5034,1.5319,1.4588,1.5101,1.5652,1.4988,1.5098,1.541,1.541,1.541,1.541,1.541,1.541,1.5537,1.5957,1.6125,1.6221,1.666,1.7441,1.8008,1.8008,1.8008,1.8008,1.8008,1.8008,1.8174,1.8543,1.8572,1.8818,1.9214,1.9687,2.0098,2.0537,2.0566,2.0566,2.0566,2.0566,2.0566,2.0566,2.0566,2.0566,2.0566,2.0566,2.0566,2.0566,2.0566,2.0576,0.0,0.0,-0.5054,-0.4625,0.0,-0.5928,-0.4791,-0.5003,-0.5336,-0.4653,-0.2613,-0.0166,0.25,0.4848,0.7272,0.9826,1.2751,1.5608,0.0,2.0861,2.2982,2.3971,2.4469,2.5134,2.6227,2.5262,2.4618,2.4716,2.3866,2.3118,2.2633,2.2358,2.2017,2.1515,2.1097,2.0814,2.0758,1.9777,1.8858,1.7944,1.6969,1.6045,1.517,1.5119,1.5192,1.5385,1.5588,1.5787,1.5973,1.6049,1.6187,1.6393,1.6456,1.6522,1.6436,1.6064,1.602,1.6151,1.5964,1.5876,1.5832,1.5421,1.5555,1.5816,1.5371,1.5623,1.6089,1.612,1.6387,1.6611,1.6655,1.6502,1.6415,1.6781,1.6186,1.5838,1.668,1.6083,1.5566,1.6239,1.6622,1.6708,1.6382,1.7852,1.8772,1.7787,1.7832,1.8008,1.8008,1.8008,1.8164,1.8594,1.8896,1.9238,1.9668,2.0098,2.041,2.0557,2.0566,2.0566,2.0566,2.0566,2.0566,2.0566,2.0566,2.0566,2.0566,2.0566,2.0566,2.0566,2.0566,2.0566,-0.4366,-0.4798,0.0,-0.4625,-0.5386,0.0,-0.4736,-0.5117,-0.5399,-0.4657,-0.3469,-0.1726,0.0947,0.3984,0.686,0.894,1.1893,1.4979,0.0,2.0845,2.2858,2.3823,2.4467,2.5298,2.6466,2.5727,2.5129,2.5099,2.4671,2.4076,2.3312,2.3153,2.2891,2.2409,2.1966,2.1616,2.1381,2.0645,1.972,1.8582,1.7673,1.6635,1.5521,1.5318,1.5245,1.524,1.5682,1.5997,1.6208,1.651,1.6652,1.6677,1.6738,1.668,1.6522,1.6522,1.6522,1.6522,1.6522,1.6522,1.6423,1.6051,1.6194,1.6436,1.6242,1.6574,1.705,1.7027,1.7312,1.7569,1.7384,1.7209,1.7176,1.75,1.6961,1.6601,1.7401,1.6856,1.6301,1.681,1.7123,1.7211,1.6746,1.8207,1.9084,1.7965,1.8436,1.8911,1.8911,1.8654,1.8572,1.8843,1.9002,1.9287,1.9863,2.0039,2.0244,2.0547,2.042,2.041,2.0557,2.0566,2.0498,2.0332,2.0488,2.0488,2.0332,2.0488,2.0566,2.0566,2.0566,2.0566]},{"header":{"parameterUnit":"m.s-1","parameterCategory":1,"la1":30.6,"la2":29.2853,"lo1":-89.7004,"lo2":-87.6739,"dy":0.0162,"dx":0.0183,"nx":112,"ny":82,"refTime":"2023-07-30T12:00:00:Z","depth":0,"parameterNumber":3,"parameterNumberName":"V-component_of_WINDS"},"data":[0.0,0.0,0.0,0.0,0.0,0.0,0.0,0.0,0.0,0.0,0.0,0.0,0.0,0.0,0.0,0.0,0.0,0.0,0.0,0.0,0.0,0.0,0.0,0.0,0.0,0.0,0.0,0.0,0.0,0.0,0.0,0.0,0.0,0.0,0.0,0.0,0.0,0.0,0.0,0.0,0.0,0.0,0.0,0.0,0.0,0.0,0.0,0.0,0.0,0.0,0.0,0.0,0.0,0.0,0.0,0.0,0.0,0.0,0.0,0.0,0.0,0.0,0.0,0.0,0.0,0.0,0.0,0.0,0.0,0.0,0.0,0.0,0.0,0.0,0.0,0.0,0.0,0.0,0.0,0.0,0.0,0.0,0.0,0.0,0.0,0.0,0.0,0.0,0.0,0.0,-0.12,0.0351,-0.2851,-0.6228,-0.8982,-1.198,-1.4719,-1.7195,0.0,0.0,0.0,0.0,0.0,0.0,0.0,0.0,0.0,0.0,0.0,0.0,0.0,0.0,0.0,0.0,0.0,0.0,0.0,0.0,0.0,0.0,0.0,0.0,0.0,0.0,0.0,0.0,0.0,0.0,0.0,0.0,0.0,0.0,0.0,0.0,0.0,0.0,0.0,0.0,0.0,0.0,0.0,0.0,0.0,0.0,0.0,0.0,0.0,0.0,0.0,0.0,0.0,0.0,0.0,0.0,0.0,0.0,0.0,0.0,0.0,0.0,0.0,0.0,0.0,0.0,0.0,0.0,0.0,0.0,0.0,0.0,0.0,0.0,0.0,0.0,0.0,0.0,0.0,0.0,0.0,0.0,0.0,0.0,0.0,0.0,0.0,0.0,0.0,0.0,0.0,0.0,0.0,0.0,0.0,0.0,0.0,0.0,0.0,0.0,0.0,0.0,0.0,0.0,-0.1417,-0.1928,-0.3168,-0.499,-0.7415,-1.0283,-1.3141,-1.607,0.0,0.0,0.0,0.0,0.0,0.0,0.0,0.0,0.0,0.0,0.0,0.0,0.0,0.0,0.0,0.0,0.0,0.0,0.0,0.0,0.0,0.0,0.0,0.0,0.0,0.0,0.0,0.0,0.0,0.0,0.0,0.0,0.0,0.0,0.0,0.0,0.0,0.0,0.0,0.0,0.0,0.0,0.0,0.0,0.0,0.0,0.0,0.0,0.0,0.0,0.0,0.0,0.0,0.0,0.0,0.0,0.0,0.0,0.0,0.0,0.0,0.0,0.0,0.0,0.0,0.0,0.0,0.0,0.0,0.0,0.0,0.0,0.0,0.0,0.0,0.0,0.0,0.0,0.0,0.0,0.0,0.0,0.0,0.0,0.0,0.0,0.0,0.0,0.0,0.0,0.0,0.0,0.0,0.0,0.0,0.0,0.0,0.0,0.0,0.0,0.0,0.0,0.0,-0.0379,0.0056,-0.1591,-0.3163,-0.4967,-0.7034,-1.0129,-1.303,-1.5454,-1.8755,0.0,0.0,0.0,0.0,0.0,0.0,0.0,0.0,0.0,0.0,0.0,0.0,0.0,0.0,0.0,0.0,0.0,0.0,0.0,0.0,0.0,0.0,0.0,0.0,0.0,0.0,0.0,0.0,0.0,0.0,0.0,0.0,0.0,0.0,0.0,0.0,0.0,0.0,0.0,0.0,0.0,0.0,0.0,0.0,0.0,0.0,0.0,0.0,0.0,0.0,0.0,0.0,0.0,0.0,0.0,0.0,0.0,0.0,0.0,0.0,0.0,0.0,0.0,0.0,0.0,0.0,0.0,0.0,0.0,0.0,0.0,0.0,0.0,0.0,0.0,0.0,0.0,0.0,0.0,0.0,0.0,0.0,0.0,0.0,0.0,0.0,0.0,0.0,0.0,0.0,0.0,0.0,0.0,0.0,0.0,0.0,0.0,0.0,0.0,0.0,0.0,0.0,0.2119,0.1279,-0.111,-0.3032,-0.4999,-0.7027,-1.0264,-1.3105,-1.5457,-1.8688,0.0,0.0,0.0,0.0,0.0,0.0,0.0,0.0,0.0,0.0,0.0,0.0,0.0,0.0,0.0,0.0,0.0,0.0,0.0,0.0,0.0,0.0,0.0,0.0,0.0,0.0,0.0,0.0,0.0,0.0,0.0,0.0,0.0,0.0,0.0,0.0,0.0,0.0,0.0,0.0,0.0,0.0,0.0,0.0,0.0,0.0,0.0,0.0,0.0,0.0,0.0,0.0,0.0,0.0,0.0,0.0,0.0,0.0,0.0,0.0,0.0,0.0,0.0,0.0,0.0,0.0,0.0,0.0,0.0,0.0,0.0,0.0,0.0,0.0,0.0,0.0,0.0,0.0,0.0,0.0,0.0,0.0,0.0,0.0,0.0,0.0,0.0,0.0,0.0,0.0,0.0,0.0,0.0,0.0,0.0,0.0,0.0,0.0,0.0,0.0,0.0,0.0,0.1786,0.1113,-0.1838,-0.2883,-0.4515,-0.7304,-0.988,-1.2832,-1.6294,-1.9125,0.0,0.0,0.0,0.0,0.0,0.0,0.0,0.0,0.0,0.0,0.0,0.0,0.0,0.0,0.0,0.0,0.0,0.0,0.0,0.0,0.0,0.0,0.0,0.0,0.0,0.0,0.0,0.0,0.0,0.0,0.0,0.0,0.0,0.0,0.0,0.0,0.0,0.0,0.0,0.0,0.0,0.0,0.0,0.0,0.0,0.0,0.0,0.0,0.0,0.0,0.0,0.0,0.0,0.0,0.0,0.0,0.0,0.0,0.0,0.0,0.0,0.0,0.0,0.0,0.0,0.0,0.0,0.0,0.0,0.0,0.0,0.0,0.0,0.0,0.0,0.0,0.0,0.0,0.0,0.0,0.0,0.0,0.0,0.0,0.0,0.0,0.0,0.0,0.0,0.0,0.0,0.0,0.0,0.0,0.0,0.0,0.0,0.0,0.0,0.0,0.0,0.0,0.153,0.0228,-0.1336,-0.3421,-0.5491,-0.7441,-1.0434,-1.332,-1.5992,0.0,0.0,0.0,0.0,0.0,0.0,0.0,0.0,0.0,0.0,0.0,0.0,0.0,0.0,0.0,0.0,0.0,0.0,0.0,0.0,0.0,0.0,0.0,0.0,0.0,0.0,0.0,0.0,0.0,0.0,0.0,0.0,0.0,0.0,0.0,0.0,0.0,0.0,0.0,0.0,0.0,0.0,0.0,0.0,0.0,0.0,0.0,0.0,0.0,0.0,0.0,0.0,0.0,0.0,0.0,0.0,0.0,0.0,0.0,0.0,0.0,0.0,0.0,0.0,0.0,0.0,0.0,0.0,0.0,0.0,0.0,0.0,0.0,0.0,0.0,0.0,0.0,0.0,0.0,0.0,0.0,0.0,0.0,0.0,0.0,0.0,0.0,0.0,0.0,0.0,0.0,0.0,0.0,0.0,0.0,0.0,0.0,0.0,0.0,0.0,0.0,0.0,0.188,0.1077,-0.0456,-0.167,-0.402,-0.6138,-0.7799,-1.0855,-1.3715,-1.6065,0.0,0.0,0.0,0.0,0.0,0.0,0.0,0.0,0.0,0.0,0.0,0.0,0.0,0.0,0.0,0.0,0.0,0.0,0.0,0.0,0.0,0.0,0.0,0.0,0.0,0.0,0.0,0.0,0.0,0.0,0.0,0.0,0.0,0.0,0.0,0.0,0.0,0.0,0.0,0.0,0.0,0.0,0.0,0.0,0.0,0.0,0.0,0.0,0.0,0.0,0.0,0.0,0.0,0.0,0.0,0.0,0.0,0.0,0.0,0.0,0.0,0.0,0.0,0.0,0.0,0.0,0.0,0.0,0.0,0.0,0.0,0.0,0.0,0.0,0.0,0.0,0.0,0.0,0.0,0.0,0.0,0.0,0.0,0.0,0.0,0.0,0.0,0.0,0.0,0.0,0.0,0.0,0.0,0.0,0.0,0.0,0.0,0.0,0.0,0.0,0.0,0.0,0.0551,0.0444,-0.089,-0.3063,-0.4641,-0.6401,-0.8508,-1.1161,-1.3909,0.0,0.0,0.0,0.0,0.0,0.0,0.0,0.0,0.0,0.0,0.0,0.0,0.0,0.0,0.0,0.0,0.0,0.0,0.0,0.0,0.0,0.0,0.0,0.0,0.0,0.0,0.0,0.0,0.0,0.0,0.0,0.0,0.0,0.0,0.0,0.0,0.0,0.0,0.0,0.0,0.0,0.0,0.0,0.0,0.0,0.0,0.0,0.0,0.0,0.0,0.0,0.0,0.0,0.0,0.0,0.0,0.0,0.0,0.0,0.0,0.0,0.0,0.0,0.0,0.0,0.0,0.0,0.0,0.0,0.0,0.0,0.0,0.0,0.0,0.0,0.0,0.0,0.0,0.0,0.0,0.0,0.0,0.0,0.0,0.0,0.0,0.0,0.0,0.0,0.0,0.0,0.0,0.0,0.0,0.0,0.0,0.0,0.0,0.0,0.0,0.0,0.0,0.0,0.0499,-0.0963,-0.2853,-0.3947,-0.5416,-0.7132,-0.9203,-1.1425,-1.3779,-1.6304,0.0,0.0,0.0,0.0,0.0,0.0,0.0,0.0,0.0,0.0,0.0,0.0,0.0,0.0,0.0,0.0,0.0,0.0,0.0,0.0,0.0,0.0,0.0,0.0,0.0,0.0,0.0,0.0,0.0,0.0,0.0,0.0,0.0,0.0,0.0,0.0,0.0,0.0,0.0,0.0,0.0,0.0,0.0,0.0,0.0,0.0,0.0,0.0,0.0,0.0,0.0,0.0,0.0,0.0,0.0,0.0,0.0,0.0,0.0,0.0,0.0,0.0,0.0,0.0,0.0,0.0,0.0,0.0,0.0,0.0,0.0,0.0,0.0,0.0,0.0,0.0,0.0,0.0,0.0,0.0,0.0,0.0,0.0,0.0,0.0,0.0,0.0,0.0,0.0,0.0,0.0,0.0,0.0,0.0,0.0,0.0,0.0,0.0,0.0,0.0,0.0,0.0,-0.1212,-0.2753,-0.4528,-0.521,-0.6357,-0.7741,-0.9526,-1.1541,-1.3744,-1.6156,0.0,0.0,0.0,0.0,0.0,0.0,0.0,0.0,0.0,0.0,0.0,0.0,0.0,0.0,0.0,0.0,0.0,0.0,0.0,0.0,0.0,0.0,0.0,0.0,0.0,0.0,0.0,0.0,0.0,0.0,0.0,0.0,0.0,0.0,0.0,0.0,0.0,0.0,0.0,0.0,0.0,0.0,0.0,0.0,0.0,0.0,0.0,0.0,0.0,0.0,0.0,0.0,0.0,0.0,0.0,0.0,0.0,0.0,0.0,0.0,0.0,0.0,0.0,0.0,0.0,0.0,0.0,0.0,0.0,0.0,0.0,0.0,0.0,0.0,0.0,0.0,0.0,0.0,0.0,0.0,0.0,0.0,0.0,0.0,0.0,0.0,0.0,0.0,0.0,0.0,0.0,0.0,0.0,0.0,0.0,0.0,0.0,0.0,0.0,0.0,0.0,0.0,-0.3851,-0.4743,-0.5914,-0.6637,-0.7343,-0.8376,-0.9783,-1.1688,-1.38,-1.6241,0.0,0.0,0.0,0.0,0.0,0.0,0.0,0.0,0.0,0.0,0.0,0.0,0.0,0.0,0.0,0.0,0.0,0.0,0.0,0.0,0.0,0.0,0.0,0.0,0.0,0.0,0.0,0.0,0.0,0.0,0.0,0.0,0.0,0.0,0.0,0.0,0.0,0.0,0.0,0.0,0.0,0.0,0.0,0.0,0.0,0.0,0.0,0.0,0.0,0.0,0.0,0.0,0.0,0.0,0.0,0.0,0.0,0.0,0.0,0.0,-2.5754,-2.5643,0.0,0.0,0.0,0.0,0.0,0.0,0.0,0.0,0.0,0.0,0.0,0.0,0.0,0.0,0.0,0.0,0.0,0.0,0.0,0.0,0.0,0.0,0.0,0.0,0.0,0.0,0.0,0.0,0.0,0.0,0.0,0.0,0.0,0.0,0.0,0.0,0.0,0.0,0.0,0.0,-0.4945,-0.5828,-0.6935,-0.7419,-0.8072,-0.9238,-1.1098,-1.2609,-1.4507,-1.685,-1.8289,0.0,0.0,0.0,0.0,0.0,0.0,0.0,0.0,0.0,0.0,0.0,0.0,0.0,0.0,0.0,0.0,0.0,0.0,0.0,0.0,0.0,0.0,0.0,0.0,0.0,0.0,0.0,0.0,0.0,0.0,0.0,0.0,0.0,0.0,0.0,0.0,0.0,0.0,0.0,0.0,0.0,0.0,0.0,0.0,0.0,0.0,0.0,0.0,0.0,0.0,0.0,0.0,0.0,0.0,0.0,0.0,0.0,0.0,0.0,-2.8811,-2.8584,0.0,0.0,0.0,0.0,0.0,0.0,0.0,0.0,0.0,0.0,0.0,0.0,0.0,0.0,0.0,0.0,0.0,0.0,0.0,0.0,0.0,0.0,0.0,0.0,0.0,0.0,0.0,0.0,0.0,0.0,0.0,0.0,0.0,0.0,0.0,0.0,0.0,0.0,0.0,0.0,-0.7915,-0.8508,-0.9228,-0.9197,-0.9518,-1.0367,-1.2055,-1.3371,-1.4991,-1.7083,-1.8436,0.0,0.0,0.0,0.0,0.0,0.0,0.0,0.0,0.0,0.0,0.0,0.0,0.0,0.0,0.0,0.0,0.0,0.0,0.0,0.0,0.0,0.0,0.0,0.0,0.0,0.0,0.0,0.0,0.0,0.0,0.0,0.0,0.0,0.0,0.0,0.0,0.0,0.0,0.0,0.0,0.0,0.0,0.0,0.0,0.0,0.0,0.0,0.0,0.0,0.0,0.0,0.0,0.0,-2.5987,-2.6395,-2.767,-2.81,-2.976,-3.2354,-3.1995,-3.1804,-3.1762,-3.1694,0.0,0.0,0.0,0.0,0.0,0.0,0.0,0.0,0.0,0.0,0.0,0.0,0.0,0.0,0.0,0.0,0.0,0.0,0.0,0.0,0.0,0.0,0.0,0.0,-2.114,-2.2123,-1.9402,0.0,0.0,0.0,0.0,0.0,0.0,0.0,0.0,0.0,0.0,0.0,-1.1362,-1.1559,-1.1731,-1.1191,-1.124,-1.1778,-1.2994,-1.4176,-1.554,-1.7261,-1.8754,-2.015,0.0,0.0,0.0,0.0,0.0,0.0,0.0,0.0,0.0,0.0,0.0,0.0,0.0,0.0,0.0,0.0,0.0,0.0,0.0,0.0,0.0,0.0,0.0,0.0,0.0,0.0,0.0,0.0,0.0,0.0,0.0,0.0,-2.3317,-2.3427,0.0,0.0,0.0,0.0,0.0,0.0,0.0,0.0,0.0,0.0,0.0,0.0,0.0,-2.5906,-2.6614,-2.6553,-2.6488,-2.6488,-2.7198,-2.8118,-2.9303,-3.0962,-3.2871,-3.4827,-3.6131,0.0,-3.3973,-3.2826,0.0,0.0,0.0,0.0,0.0,0.0,0.0,0.0,0.0,0.0,0.0,0.0,0.0,0.0,0.0,0.0,0.0,0.0,0.0,0.0,0.0,0.0,-2.2805,-2.2432,-2.2898,-2.3484,0.0,-2.4432,-2.5073,-2.5506,-2.6533,-2.7199,0.0,0.0,0.0,0.0,0.0,0.0,-1.3912,-1.3523,-1.3288,-1.2512,-1.2944,-1.358,-1.4301,-1.5448,-1.6693,-1.788,-1.9008,-2.0599,-2.282,-2.3086,0.0,0.0,0.0,0.0,0.0,0.0,0.0,0.0,0.0,0.0,0.0,0.0,0.0,0.0,0.0,0.0,0.0,0.0,0.0,0.0,0.0,0.0,0.0,0.0,0.0,0.0,0.0,0.0,0.0,-2.0145,-2.126,-2.0294,-2.1586,-2.255,0.0,0.0,0.0,0.0,0.0,0.0,0.0,0.0,0.0,-2.579,-2.6334,-2.7071,-2.787,-2.8201,-2.8622,-2.9163,-2.9581,-3.0314,-3.1282,-3.3168,-3.4603,-3.5824,-3.7157,-3.7125,-3.6148,-3.5171,-3.4167,-3.3066,0.0,0.0,0.0,0.0,-3.0881,-3.0534,-3.1573,-3.1122,-3.0183,-3.0661,0.0,0.0,0.0,0.0,0.0,0.0,0.0,0.0,0.0,0.0,-2.5879,-2.4834,-2.5356,-2.5895,-2.5508,-2.6267,-2.7115,-2.7331,-2.8348,-2.8771,-2.7611,-2.635,0.0,0.0,0.0,-1.9263,-1.6976,-1.6107,-1.546,-1.4788,-1.4743,-1.5081,-1.5979,-1.6809,-1.7679,-1.8496,-1.9477,-2.0767,-2.2515,-2.3398,-2.4551,0.0,0.0,0.0,0.0,0.0,0.0,0.0,0.0,0.0,0.0,0.0,0.0,0.0,0.0,0.0,0.0,0.0,0.0,0.0,0.0,0.0,0.0,0.0,0.0,0.0,0.0,0.0,0.0,-1.7303,-1.837,-1.694,-1.9209,-2.0849,0.0,0.0,0.0,0.0,0.0,0.0,-2.4335,-2.4893,-2.5755,-2.6898,-2.7419,-2.8172,-2.9139,-2.9783,-3.0482,-3.118,-3.1669,-3.2321,-3.3017,-3.4765,-3.594,-3.6651,-3.7452,-3.7741,-3.7561,-3.6692,-3.5599,-3.4367,-3.3215,-3.2766,-3.2766,-3.299,-3.2615,-3.2313,-3.4145,-3.391,-3.2806,-3.3181,-3.236,-3.1066,-2.9977,0.0,0.0,0.0,0.0,-2.7471,-2.7555,-2.7888,-2.7927,-2.6796,-2.7148,-2.755,-2.6661,-2.7474,-2.8311,-2.8353,-2.9271,-2.9526,-2.8096,-2.6876,0.0,-2.4099,-2.26,-2.1113,-1.9586,-1.8484,-1.7626,-1.7057,-1.6511,-1.6498,-1.7356,-1.7905,-1.8478,-1.9051,-1.9954,-2.1145,-2.2639,-2.3897,-2.5086,-2.6223,0.0,0.0,0.0,0.0,0.0,0.0,0.0,0.0,0.0,0.0,0.0,0.0,0.0,0.0,0.0,0.0,0.0,0.0,0.0,0.0,0.0,0.0,0.0,0.0,0.0,0.0,0.0,0.0,0.0,-1.3267,-1.7409,0.0,0.0,0.0,0.0,-2.2491,-2.3467,-2.4499,-2.5435,-2.6093,-2.6924,-2.7996,-2.8561,-2.9139,-2.9741,-3.0683,-3.118,-3.1254,-3.3031,-3.3876,-3.4013,-3.5758,-3.698,-3.7738,-3.778,-3.778,-3.769,-3.6216,-3.5187,-3.4412,-3.3709,-3.344,-3.3562,-3.4309,-3.4469,-3.443,-3.5292,-3.5003,-3.4454,-3.5145,-3.4455,-3.3246,-3.2609,-3.175,0.0,0.0,-2.9772,-2.9899,-2.88,-2.8422,-2.8254,-2.8211,-2.7605,-2.7252,-2.8025,-2.8268,-2.8325,0.0,-2.8542,-2.8674,-2.8562,0.0,-2.6872,-2.4901,-2.4572,-2.3578,-2.1103,-2.0213,-1.9567,-1.9017,-1.837,-1.7973,-1.8052,-1.8574,-1.9051,-1.9534,-2.0434,-2.197,-2.4184,-2.4804,-2.6071,-2.8206,-2.8554,0.0,0.0,0.0,0.0,0.0,0.0,0.0,0.0,0.0,0.0,0.0,0.0,0.0,0.0,0.0,0.0,0.0,0.0,0.0,0.0,0.0,0.0,0.0,0.0,0.0,0.0,0.0,0.0,-1.413,-1.6616,0.0,-2.0041,-2.1374,-2.2645,-2.3859,-2.5037,-2.625,-2.7635,-2.889,-2.9452,-2.9176,-3.0564,-3.1116,-3.0696,-3.1609,-3.2393,-3.3031,-3.3671,-3.4603,-3.5695,-3.6828,-3.779,-3.8525,-3.8525,-3.8246,-3.7732,-3.7245,-3.629,-3.5115,-3.4876,-3.4786,-3.4898,-3.563,-3.5875,-3.5968,-3.6723,-3.6204,-3.511,-3.4422,-3.3913,-3.3541,-3.3307,-3.2711,-3.1931,-3.1099,-3.068,-3.0129,-2.8907,-2.8857,-2.8781,-2.7483,-2.7267,-2.7244,-2.6625,-2.6549,-2.6828,-2.7668,-2.8286,-2.8607,-2.8607,-2.7335,-2.624,-2.5986,-2.4843,-2.3538,-2.2209,-2.1182,-2.0245,-1.9565,-1.8942,-1.8727,-1.9095,-1.9543,-1.9884,-2.0058,-2.1568,-2.308,-2.436,-2.5745,-2.6957,-2.7885,-2.8194,-2.8389,0.0,0.0,0.0,0.0,0.0,0.0,0.0,0.0,0.0,0.0,0.0,0.0,0.0,0.0,0.0,0.0,0.0,0.0,0.0,0.0,0.0,0.0,0.0,0.0,0.0,-1.2365,-1.3635,-1.4417,-1.6547,-1.8535,-1.992,-2.1264,-2.2767,-2.4533,-2.6256,-2.7852,-2.9336,-3.0877,-3.1402,-3.0784,-3.1974,-3.2321,-3.1669,-3.2593,-3.338,-3.4027,-3.4327,-3.5225,-3.66,-3.7456,-3.8189,-3.8908,-3.8908,-3.8635,-3.8149,-3.7921,-3.7175,-3.6258,-3.6258,-3.6258,-3.6368,-3.7084,-3.7188,-3.7068,-3.7303,-3.6648,-3.5472,-3.4518,-3.409,-3.3889,-3.3893,-3.355,-3.295,-3.1835,-3.1187,-3.056,-2.9243,-2.891,-2.8554,-2.7187,-2.7051,-2.6952,-2.576,-2.5549,-2.5869,-2.6737,-2.7455,-2.8068,-2.8517,-2.7259,-2.6272,-2.6484,-2.5361,-2.4207,-2.3363,-2.2399,-2.1488,-2.0779,-2.0206,-1.9967,-2.0222,-2.0696,-2.1042,-2.1129,-2.272,-2.424,-2.5564,-2.6952,-2.8111,-2.8993,-2.912,-2.9394,-2.9848,0.0,0.0,0.0,0.0,0.0,0.0,0.0,0.0,0.0,0.0,0.0,0.0,0.0,0.0,0.0,0.0,0.0,0.0,0.0,0.0,0.0,0.0,0.0,-1.1577,-1.3863,-1.5368,-1.3909,-1.7152,-1.937,-1.8702,-2.1101,-2.3251,-2.434,-2.7061,-2.9244,-3.0322,-3.1837,-3.2566,-3.2566,-3.2664,-3.2678,-3.2664,-3.3602,-3.4027,-3.4027,-3.5052,-3.5894,-3.6661,-3.744,-3.8206,-3.8908,-3.8908,-3.8908,-3.8854,-3.8149,-3.7806,-3.7806,-3.7822,-3.7806,-3.7831,-3.8603,-3.8421,-3.7703,-3.6926,-3.6198,-3.5636,-3.5575,-3.5071,-3.4525,-3.4499,-3.4455,-3.4047,-3.1994,-3.1482,-3.1213,-2.9726,-2.8512,-2.7599,-2.7504,-2.7023,-2.6396,-2.5766,-2.5601,-2.5586,-2.5616,-2.6141,-2.6995,-2.8329,-2.7875,-2.7148,-2.6483,-2.6272,0.0,-2.4533,-2.3825,-2.3225,-2.2761,-2.2109,-2.1628,-2.1358,-2.2009,-2.2521,-2.2717,-2.3813,-2.5518,-2.7883,-2.8352,-2.9564,-3.1725,-3.1462,-3.1714,-3.248,0.0,0.0,0.0,0.0,0.0,0.0,0.0,0.0,0.0,0.0,0.0,0.0,0.0,0.0,0.0,0.0,0.0,0.0,0.0,0.0,0.0,-1.7436,-1.6652,-1.3966,-1.5022,-1.6565,-1.7814,-1.8925,-2.0091,-2.1454,-2.3067,-2.483,-2.6602,-2.8113,-2.939,-3.0513,-3.2066,-3.2607,-3.1874,-3.3743,-3.4341,-3.3602,-3.461,-3.5067,-3.5067,-3.5359,-3.6196,-3.7456,-3.769,-3.8541,-3.9731,-3.9139,-3.8908,-3.8908,-3.869,-3.858,-3.8525,-3.8035,-3.7502,-3.7094,-3.7812,-3.7994,-3.7685,-3.6434,-3.6207,-3.6189,-3.4591,-3.4645,-3.5081,-3.4057,-3.3694,-3.3363,-3.1845,-3.103,-3.0266,-2.846,-2.8058,-2.7886,-2.6945,-2.6489,-2.6255,-2.6067,-2.5654,-2.5434,-2.5926,-2.6177,-2.6455,-2.6903,-2.6723,-2.6451,-2.6303,-2.5815,0.0,-2.436,-2.4089,-2.3601,-2.2601,-2.2309,-2.2185,-2.2096,-2.2582,-2.3093,-2.3523,-2.4921,-2.6411,-2.7946,-2.8829,-2.9826,-3.09,-3.1563,-3.2013,0.0,0.0,0.0,0.0,0.0,0.0,0.0,0.0,0.0,0.0,0.0,0.0,0.0,0.0,0.0,0.0,0.0,0.0,0.0,0.0,0.0,0.0,-2.0961,-2.0816,-1.8993,-1.8718,-1.9019,-1.9933,-2.072,-2.1618,-2.2736,-2.3863,-2.5252,-2.7031,-2.8678,-2.9921,-3.0779,-3.2357,-3.3108,-3.2797,-3.4301,-3.4931,-3.461,-3.4916,-3.522,-3.5504,-3.5558,-3.6306,-3.7806,-3.8149,-3.8924,-4.007,-3.961,-3.9368,-3.9368,-3.9368,-3.9368,0.0,0.0,0.0,0.0,0.0,-3.7684,-3.7317,-3.648,-3.6021,-3.5628,-3.4342,-3.403,-3.4066,-3.3203,-3.2933,-3.2722,-3.1617,-3.1049,-3.0422,-2.8951,-2.8464,-2.8051,-2.6936,-2.6436,-2.611,-2.5847,-2.547,-2.531,-2.5687,-2.5979,0.0,-2.6229,-2.6375,-2.6493,-2.6493,-2.6108,-2.5484,-2.4587,-2.4765,-2.4487,-2.3232,-2.3384,-2.3544,-2.3426,-2.41,0.0,0.0,0.0,-2.8322,-2.9855,-3.0961,0.0,0.0,0.0,-3.3144,-3.3023,0.0,0.0,0.0,-3.5754,-3.6774,0.0,0.0,0.0,0.0,0.0,0.0,0.0,0.0,0.0,0.0,0.0,0.0,0.0,0.0,0.0,0.0,-2.5315,-2.5936,-2.5117,-2.3784,-2.2409,-2.1242,-2.2391,-2.3251,-2.3042,-2.4067,-2.5256,-2.6614,-2.9007,-3.0681,-3.1217,-3.2611,0.0,0.0,0.0,-3.4666,-3.5265,-3.4666,-3.473,-3.5379,-3.5447,-3.6268,-3.7696,-3.8335,-3.9082,-3.9834,-3.9834,-3.9834,-3.9834,-3.9834,-3.9834,-3.9834,-3.9834,-3.9377,-3.865,-3.7922,-3.7229,-3.6637,-3.6552,0.0,0.0,-3.4303,-3.3406,-3.2374,-3.2246,-3.2246,-3.2138,-3.1393,-3.129,-3.1132,-3.0152,-2.9147,-2.8123,-2.7202,-2.6629,-2.6085,-2.5518,-2.5373,-2.5373,-2.5373,-2.5762,-2.6085,-2.6085,-2.6524,-2.6862,-2.6862,-2.6701,-2.6185,-2.5043,-2.5438,-2.5392,-2.428,0.0,0.0,-2.4952,-2.5966,-2.6855,-2.7348,-2.8859,-3.0585,-3.2462,-3.3593,-3.4012,-3.3713,-3.4319,-3.4473,-3.4097,-3.4209,-3.4302,-3.4433,-3.5845,-3.7326,0.0,0.0,0.0,0.0,0.0,0.0,0.0,0.0,0.0,0.0,0.0,0.0,0.0,0.0,0.0,-2.6816,-2.7804,-2.8366,-2.7706,-2.7668,-2.6724,-2.3896,-2.3387,-2.3288,-2.3266,-2.5379,-2.7072,-2.781,-2.9954,-3.1337,-3.1456,-3.2214,-3.2766,-3.2886,-3.341,-3.3754,-3.3888,-3.3754,-3.4015,-3.4678,0.0,0.0,-3.6918,-3.7058,-3.7569,-3.8328,-3.8328,-3.8328,-3.8328,-3.8328,-3.8328,-3.8328,-3.8328,-3.7872,-3.711,-3.6349,-3.596,-3.5757,-3.5148,-3.4742,-3.4286,-3.3102,-3.2916,-3.2966,-3.1765,-3.1816,0.0,-3.1393,-3.1213,-3.0841,-2.9043,-2.8715,-2.844,-2.6647,-2.6391,-2.6569,-2.6418,-2.6385,-2.6385,-2.6385,-2.6505,-2.6539,-2.6539,-2.6657,-2.6758,-2.6758,-2.6219,-2.5728,-2.5479,-2.5058,-2.4762,-2.4652,-2.4797,-2.513,-2.5713,-2.6823,-2.7418,-2.7338,-2.9412,-3.112,-3.2164,-3.3268,-3.3666,-3.3157,-3.3906,-3.4046,-3.356,-3.4275,-3.495,-3.5569,-3.5403,-3.5883,0.0,0.0,0.0,0.0,0.0,0.0,0.0,0.0,0.0,0.0,0.0,-2.723,-2.8596,0.0,-2.9808,-2.9947,-3.0222,-3.0342,-2.9981,-2.9664,-2.8255,-2.5098,-2.4902,-2.4831,-2.4229,-2.5647,-2.7174,-2.8655,-2.9798,-3.0748,-3.1452,-3.1839,-3.2168,-3.2497,-3.2826,-3.3322,-3.3969,-3.3322,-3.3709,-3.5027,-3.4722,-3.5326,-3.6699,-3.7103,-3.7517,-3.7905,-3.7905,-3.7905,-3.7905,-3.8167,-3.802,-3.7723,-3.7974,-3.7705,-3.6977,-3.5559,-3.5205,-3.5301,-3.4287,-3.3711,-3.3271,-3.2527,-3.229,-3.2154,-3.141,-3.1444,-3.1664,-3.1292,-3.119,-3.0898,-2.952,-2.9097,-2.8651,-2.7238,-2.679,-2.6691,-2.6691,-2.6691,-2.6691,-2.6691,-2.6873,-2.6987,-2.6987,-2.6837,-2.6626,-2.6407,-2.5774,-2.5219,-2.4982,-2.4977,-2.4885,-2.4569,-2.5082,-2.5692,-2.629,-2.7761,-2.8676,-2.8746,-3.0399,-3.1531,-3.1916,-3.2599,-3.2806,-3.2547,-3.2941,-3.3025,-3.2751,-3.3184,-3.3844,-3.4634,-3.433,-3.5101,0.0,0.0,0.0,0.0,0.0,0.0,0.0,-2.8808,-2.7896,-2.9506,-2.9561,-2.9993,-3.2399,-3.2567,-3.2571,-3.3257,-3.2905,-3.2525,-3.2404,-3.1279,-2.9467,-2.657,-2.6619,-2.6534,-2.5482,-2.6002,-2.7119,-2.8971,-2.9493,-3.0236,-3.1452,-3.1482,-3.1822,-3.2523,-3.2538,-3.3115,-3.4322,-3.3272,-3.3553,-3.5209,-3.4864,-3.5242,-3.629,-3.711,-3.7466,-3.7466,-3.7466,-3.7496,-3.7636,-3.8033,-3.7897,-3.745,-3.7739,-3.7646,-3.7143,-3.5393,-3.507,-3.5235,-3.3894,-3.3031,-3.2542,-3.2388,-3.1944,-3.1466,-3.1466,-3.1363,-3.124,-3.1414,-3.1223,-3.0848,-3.0267,-2.9551,-2.8818,-2.7998,-2.7383,-2.6939,-2.6939,-2.6939,-2.6939,-2.6939,-2.721,-2.7426,-2.7426,-2.7034,-2.6627,-2.6283,-2.5577,-2.4888,-2.4363,-2.489,-2.5031,-2.4353,-2.516,-2.605,-2.6738,-2.8102,-2.9207,-2.9929,-3.082,-3.1402,-3.1551,-3.1916,-3.2128,-3.2166,-3.2184,-3.2203,-3.2257,-3.2257,-3.2617,-3.3317,-3.3469,-3.4735,-3.9754,-3.8531,-3.8022,-3.9159,-3.7163,-3.5377,0.0,-3.5592,-3.4137,-3.4542,-3.5411,-3.5922,-3.5387,-3.6216,-3.6837,-3.6306,-3.6164,-3.5884,-3.5246,-3.3977,-3.2254,-3.0061,-2.8242,-2.6923,-2.6307,-2.7399,-2.8254,-2.8497,-3.019,-3.1334,-3.1467,-3.1482,-3.1826,-3.2545,-3.26,-3.2928,-3.3718,-3.3534,-3.3574,-3.3758,-3.4348,-3.4665,-3.479,-3.5526,-3.5876,-3.5876,-3.5876,-3.611,-3.655,-3.6634,-3.6893,-3.715,-3.6443,-3.6417,-3.6717,-3.6003,-3.5784,-3.561,-3.4111,-3.3512,-3.3336,-3.2702,-3.242,-3.235,-3.235,-3.1874,-3.1419,-3.2156,-3.1331,-3.0226,-3.0201,-2.9603,-2.8828,-2.8053,-2.7836,-2.7783,-2.7783,-2.7783,-2.7783,-2.7783,-2.7811,-2.784,-2.784,-2.726,-2.6764,-2.6637,-2.5959,-2.5173,-2.4388,-2.4421,-2.4481,-2.4325,-2.4416,-2.5214,-2.6986,-2.6693,-2.7187,-2.903,-2.9468,-2.9988,-3.0695,-3.1615,-3.2203,-3.2447,-3.2447,-3.2577,-3.2807,-3.2807,-3.2864,-3.296,-3.3761,-3.4795,-4.0464,-4.0229,-4.0209,-4.0411,-3.9878,-3.9313,-3.94,-3.8346,-3.7558,-3.8263,-3.8228,-3.791,-3.7513,-3.727,-3.6917,-3.6159,-3.5735,-3.5244,-3.4457,-3.3593,-3.2659,-3.1751,-3.0911,-2.9607,-2.7638,-2.8246,-2.8817,-2.8929,-3.0075,-3.1012,-3.1555,-3.1509,-3.1751,-3.251,-3.21,-3.2233,-3.2885,-3.2514,-3.2707,-3.3439,-3.3363,-3.3483,-3.3863,-3.4448,-3.5098,-3.5786,-3.5786,-3.6207,-3.6847,-3.6657,-3.672,-3.6861,-3.6327,-3.6263,-3.629,-3.5044,-3.4763,-3.4843,-3.3434,-3.2962,-3.2908,-3.259,-3.2484,-3.2484,-3.2484,-3.1936,-3.137,-3.1706,-3.0985,-3.0106,-3.0137,-2.9554,-2.8912,-2.8594,-2.8216,-2.7897,-2.7897,-2.7897,-2.7897,-2.7897,-2.8047,-2.8183,-2.8183,-2.7738,-2.7381,-2.7357,-2.6489,-2.5632,-2.5018,-2.4972,-2.4883,-2.4635,-2.4797,-2.5357,-2.6411,-2.6413,-2.6746,-2.7721,-2.8465,-2.9079,-2.954,-3.0057,-3.0643,-3.1262,-3.0778,-3.0836,-3.1448,-3.1448,-3.1718,-3.2218,-3.3064,-3.3983,-4.0017,-4.0486,-4.096,-4.1234,-4.1772,-4.2016,-4.1325,-4.0646,-4.0323,-4.0831,-4.0155,-3.9362,-3.9078,-3.8321,-3.7508,-3.661,-3.5889,-3.5175,-3.4485,-3.3682,-3.3234,-3.3412,-3.3325,-3.2407,-3.0178,-3.0,-3.0061,-3.0208,-3.0305,-3.0803,-3.1789,-3.1415,-3.1549,-3.2417,-3.1967,-3.1992,-3.2663,-3.2327,-3.2542,-3.3291,-3.3119,-3.3169,-3.3459,-3.4042,-3.4734,-3.556,-3.556,-3.6006,-3.672,-3.6463,-3.6447,-3.6554,-3.6113,-3.5936,-3.5768,-3.4209,-3.4047,-3.4389,-3.3252,-3.2872,-3.2872,-3.2872,-3.2872,-3.2836,-3.2572,-3.1964,-3.1339,-3.1339,-3.0755,-3.0118,-3.0118,-2.9719,-2.9265,-2.905,-2.8586,-2.8201,-2.8201,-2.8201,-2.8201,-2.8201,-2.8412,-2.8565,-2.8565,-2.8304,-2.8136,-2.8136,-2.7246,-2.6285,-2.5491,-2.526,-2.5016,-2.4664,-2.4955,-2.5254,-2.5484,-2.5771,-2.6128,-2.6544,-2.7577,-2.837,-2.8774,-2.8982,-2.939,-3.0025,-2.941,-2.941,-3.0044,-3.0294,-3.0717,-3.1371,-3.2199,-3.3026,-3.7781,-3.8098,-3.8889,-4.2039,-4.2661,-4.2728,-4.3669,-4.3453,-4.2814,-4.1949,-4.175,-4.1288,-4.0006,-4.0176,-4.0042,-3.8799,-3.7923,-3.7222,-3.6653,-3.5432,-3.4791,-3.5524,-3.5038,-3.4606,-3.4521,-3.3291,-3.2492,-3.2492,-3.1236,-3.1072,-3.2376,-3.1236,-3.111,-3.2364,-3.2393,-3.2707,-3.3364,-3.3808,-3.3667,-3.3017,-3.4125,-3.4252,-3.3617,-3.4341,-3.4694,-3.4747,-3.4747,-3.5064,-3.5537,-3.5551,-3.5841,-3.6248,-3.5357,-3.5027,-3.4935,-3.411,-3.4312,-3.4862,-3.4037,-3.3762,-3.3762,-3.3762,-3.3762,-3.3615,-3.2818,-3.2056,-3.1396,-3.1396,-3.0827,-3.0204,-3.0204,-3.0186,-2.9984,-2.919,-2.897,-2.897,-2.897,-2.897,-2.897,-2.897,-2.8975,-2.8994,-2.8994,-2.8975,-2.8957,-2.8957,-2.8282,-2.7181,-2.5605,-2.4893,-2.4465,-2.4246,-2.4412,-2.4447,-2.4282,-2.4281,-2.469,-2.5666,-2.6744,-2.7778,-2.8763,-2.8994,-2.9102,-2.914,-2.9102,-2.9102,-2.914,-2.9987,-3.0398,-3.0456,-3.1333,-3.2179,-3.5988,-3.7112,-3.8447,-4.0256,-4.1204,-4.1651,-4.1463,-4.1539,-4.1551,-4.1159,-4.0217,-3.9358,-3.8889,-3.8496,-3.7958,-3.7009,-3.6417,-3.601,-3.5849,-3.4681,-3.4134,-3.4889,-3.5624,-3.5908,-3.5328,-3.4089,-3.2735,-3.1353,-3.0806,-3.0705,-3.1134,-3.0688,-3.1032,-3.2294,-3.1867,-3.1844,-3.232,-3.251,-3.263,-3.2686,-3.307,-3.327,-3.3347,-3.3598,-3.4137,-3.4891,-3.4891,-3.544,-3.6242,-3.5473,-3.5432,-3.5655,-3.4604,-3.4211,-3.4174,-3.3899,-3.3972,-3.4174,-3.3899,-3.3807,-3.3807,-3.3807,-3.3807,-3.3642,-3.2852,-3.2045,-3.1274,-3.0742,-3.0026,-2.9402,-2.9402,-2.9402,-2.9347,-2.9049,-2.8994,-2.8994,-2.8994,-2.8994,-2.8994,-2.8994,-2.8994,-2.8994,-2.8994,-2.8576,-2.8073,-2.7668,-2.7394,-2.6801,-2.5727,-2.5082,-2.467,-2.4626,-2.4654,-2.467,-2.4591,-2.5078,-2.5603,-2.6062,-2.7476,-2.8515,-2.8975,-2.8541,-2.8544,-2.9083,-2.8582,-2.8563,-2.9102,-2.9967,-3.0398,-3.0417,-3.1295,-3.1852,-3.4147,-3.5466,-3.6913,-3.8521,-3.949,-4.0023,-3.9946,-4.0102,-4.0366,-4.0633,-3.9718,-3.891,-3.9099,-3.842,-3.741,-3.6125,-3.549,-3.4992,-3.4558,-3.3681,-3.3544,-3.4792,-3.5773,-3.6398,-3.6422,-3.5198,-3.3862,-3.2498,-3.1675,-3.1315,-3.1508,-3.0807,-3.0855,-3.1884,-3.1606,-3.1545,-3.1789,-3.2127,-3.2533,-3.2965,-3.2781,-3.2987,-3.3561,-3.3358,-3.3847,-3.4884,-3.4884,-3.5306,-3.5923,-3.5188,-3.5032,-3.5142,-3.4413,-3.4111,-3.4111,-3.4111,-3.4111,-3.4111,-3.3986,-3.3935,-3.3961,-3.4087,-3.3852,-3.3363,-3.2551,-3.1685,-3.0821,-3.0107,-2.9765,-2.9529,-2.9302,-2.9474,-2.9622,-2.9326,-2.9251,-2.9251,-2.9251,-2.9251,-2.9251,-2.9251,-2.9251,-2.9251,-2.9251,-2.8565,-2.7677,-2.6728,-2.6628,-2.6458,-2.5884,-2.525,-2.4855,-2.4804,-2.5125,-2.5196,-2.4823,-2.554,-2.61,-2.6295,-2.7599,-2.846,-2.8659,-2.8448,-2.8294,-2.8198,-2.8294,-2.8429,-2.8659,-2.9833,-3.0398,-3.0398,-3.0968,-3.141,-3.2396,-3.3293,-3.4482,-3.6958,-3.7659,-3.8044,-3.9153,-3.9281,-3.9416,-4.0334,-4.0024,-3.977,-4.0276,-3.9601,-3.8294,-3.6248,-3.5339,-3.4464,-3.3211,-3.2627,-3.3085,-3.525,-3.5537,-3.6113,-3.7533,-3.6519,-3.5675,-3.556,-3.3639,-3.2719,-3.3254,-3.1382,-3.0576,-3.119,-3.1565,-3.1789,-3.1861,-3.2759,-3.3419,-3.3797,-3.3302,-3.3469,-3.4204,-3.3703,-3.3919,-3.4694,-3.4694,-3.4694,-3.4714,-3.4713,-3.4694,-3.4714,-3.4713,-3.4694,-3.4694,-3.4694,-3.4694,-3.4653,-3.4357,-3.4223,-3.4288,-3.4612,-3.3982,-3.2937,-3.212,-3.1139,-3.0199,-2.963,-3.001,-3.0424,-2.985,-3.0281,-3.0658,-2.9885,-2.9696,-2.9696,-2.9696,-2.9696,-2.9696,-2.9696,-2.9696,-2.9677,-2.9657,-2.8921,-2.7811,-2.6246,-2.6086,-2.6089,-2.5974,-2.5392,-2.4981,-2.4847,-2.5722,-2.5914,-2.4903,-2.5607,-2.6171,-2.6365,-2.716,-2.7733,-2.8025,-2.8679,-2.8313,-2.6755,-2.8294,-2.8717,-2.7967,-2.9602,-3.0398,-3.0398,-3.0398,-3.0852,-3.2346,-3.3338,-3.4216,-3.5515,-3.6403,-3.6972,-3.6857,-3.7771,-3.8549,-3.8367,-3.7772,-3.7294,-3.7322,-3.7339,-3.7005,-3.6064,-3.5339,-3.4871,-3.471,-3.3317,-3.2696,-3.3846,-3.4455,-3.4726,-3.4573,-3.5739,-3.606,-3.4878,-3.2899,-3.1824,-3.1895,-3.0872,-3.0576,-3.119,-3.1291,-3.164,-3.2316,-3.3196,-3.3805,-3.4099,-3.3966,-3.4128,-3.4572,-3.4427,-3.4505,-3.4694,-3.4694,-3.4813,-3.4981,-3.4774,-3.4832,-3.4981,-3.4774,-3.4694,-3.4694,-3.4694,-3.4694,-3.4714,-3.4832,-3.4735,-3.4572,-3.4674,-3.4502,-3.4101,-3.3238,-3.2389,-3.154,-3.081,-3.0264,-2.9888,-2.9735,-2.9847,-2.9941,-2.9753,-2.9696,-2.9696,-2.9696,-2.9696,-2.9696,-2.9696,-2.9696,-2.9506,-2.89,-2.8218,-2.7395,-2.6382,-2.5822,-2.5466,-2.5273,-2.5241,-2.5203,-2.519,-2.599,-2.6173,-2.5248,-2.655,-2.7436,-2.7489,-2.7712,-2.8414,-2.9717,-2.8756,-2.8294,-2.8448,-2.8871,-2.8986,-2.8794,-2.9871,-3.0398,-3.0398,-3.0398,-3.0513,-3.1987,-3.2795,-3.3442,-3.4223,-3.5058,-3.5514,-3.4834,-3.6172,-3.7449,-3.6949,-3.6734,-3.6676,-3.6838,-3.6892,-3.6587,-3.5586,-3.4839,-3.434,-3.4106,-3.2221,-3.136,-3.2747,-3.2825,-3.3014,-3.3612,-3.4706,-3.5139,-3.4588,-3.3466,-3.2644,-3.23,-3.1266,-3.0942,-3.1504,-3.1674,-3.2179,-3.3057,-3.355,-3.3935,-3.42,-3.396,-3.4214,-3.487,-3.4599,-3.4691,-3.5053,0.0,-3.5138,-3.5254,-3.5105,-3.5138,-3.5273,-3.5105,-3.4805,-3.452,-3.4901,-3.4558,-3.3985,-3.4515,-3.4369,-3.4044,-3.4805,-3.4715,-3.4206,-3.373,-3.2674,-3.1599,-3.1231,-3.0509,-2.9861,-2.9977,-3.0007,-3.0007,-3.0007,-3.0007,-3.0007,-3.0007,-3.0007,-3.0007,-3.0007,-3.0007,-2.9741,-2.8912,-2.8446,-2.7936,-2.7113,-2.6683,-2.6263,-2.5765,-2.5474,-2.5437,-2.5832,-2.6659,-2.6967,-2.6486,-2.7659,-2.8102,-2.7371,-2.8025,-2.8525,-2.8717,-2.8909,-2.8852,-2.8582,-2.9294,-2.9486,-2.9102,-2.9967,-3.0398,-3.0398,-3.0794,-3.0968,-3.1654,-3.2203,-3.2637,-3.3449,-3.4124,-3.4382,-3.3506,-3.4965,-3.6343,-3.5969,-3.634,-3.6897,-3.7359,-3.7185,-3.6502,-3.5136,-3.4316,-3.3568,-3.2816,-3.0768,-3.0074,-3.193,-3.121,-3.1322,-3.3273,-3.3316,-3.3442,-3.4093,-3.4174,-3.4006,-3.3461,-3.2015,-3.1387,-3.181,-3.2209,-3.2845,-3.3707,-3.3815,-3.3986,-3.4269,-3.3838,-3.4168,-3.5136,-3.4611,-3.4776,-3.5493,-3.5493,-3.5493,-3.5493,-3.5493,-3.5493,-3.5493,-3.5526,-3.4988,-3.4295,-3.5064,-3.4372,-3.3199,-3.393,-3.3699,-3.3314,-3.4853,-3.4659,-3.3869,-3.3983,-3.273,-3.1286,-3.1463,-3.082,-3.0122,-3.0343,-3.0398,-3.0398,-3.0398,-3.0398,-3.0398,-3.0398,-3.0398,-3.0398,-3.0398,-3.0398,-3.016,-2.939,-2.9179,-2.8871,-2.8159,-2.7967,-2.764,-2.6871,-2.6024,-2.5774,-2.6524,-2.7371,-2.789,-2.789,-2.864,-2.8429,-2.6871,-2.814,-2.8332,-2.6986,-2.9044,-2.9602,-2.8255,-2.966,-3.0025,-2.9275,-3.0025,-3.0398,-3.0417,-3.1295,-3.1698,-3.2284,-3.2858,-3.3073,-3.4543,-3.5279,-3.5417,-3.4529,-3.5408,-3.6185,-3.5415,-3.5592,-3.5941,-3.6038,-3.5824,-3.5592,-3.5483,-3.4722,-3.4045,-3.3768,-3.2348,-3.1358,-3.1442,-3.0718,-3.0331,-3.0753,-3.1293,-3.1661,-3.1769,-3.2406,-3.2985,-3.3564,-3.2125,-3.1315,-3.1381,-3.1862,-3.2487,-3.3302,-3.3854,-3.4288,-3.4614,-3.4737,-3.5021,-3.5432,-3.532,-3.5372,-3.5493,-3.5493,0.0,-3.5493,-3.5493,-3.5493,-3.5526,-3.5565,-3.5051,-3.4307,-3.4456,-3.4327,-3.4076,-3.418,-3.4103,-3.4007,-3.4334,-3.4282,-3.4274,-3.4985,-3.3958,-3.2582,-3.2609,-3.1514,-3.0343,-3.0398,-3.0398,-3.0398,-3.0398,-3.0398,-3.0398,-3.0398,-3.0398,-3.0398,-3.0398,-3.0398,-3.034,-3.0198,-2.9621,-2.9132,-2.8909,-2.842,-2.7997,-2.7776,-2.6958,-2.6428,-2.6582,-2.7371,-2.789,-2.789,-2.864,-2.8679,-2.7736,-2.7948,-2.8275,-2.864,-2.9083,-2.9525,-2.9967,-3.0244,-3.0321,-3.0179,-3.0321,-3.0398,-3.0417,-3.1345,-3.178,-3.2149,-3.3012,-3.3721,-3.4905,-3.5618,-3.5551,-3.3799,-3.4981,-3.5957,-3.4221,-3.4506,-3.5077,-3.5078,-3.4805,-3.4569,-3.4515,-3.4135,-3.3828,-3.3809,-3.2642,-3.177,-3.1715,-3.0849,-3.0228,-3.0158,-3.0677,-3.1034,-3.1034,-3.1785,-3.2281,-3.236,-3.1511,-3.1041,-3.1041,-3.1464,-3.2145,-3.3099,-3.3401,-3.4014,-3.4908,-3.5053,-3.5239,-3.5493,-3.5493,-3.5493,-3.5493,-3.5493,-3.5526,-3.5565,-3.5565,-3.532,-3.4979,-3.5018,-3.4224,-3.3122,-3.3558,-3.3147,-3.2423,-3.2858,-3.2705,-3.2404,-3.2865,-3.3256,-3.3667,-3.4159,-3.3396,-3.2378,-3.234,-3.1744,-3.1013,-3.0533,-3.0737,-3.0968,-3.0513,-3.0398,-3.0398,-3.0398,-3.0398,-3.0398,-3.0398,-3.0417,-3.0448,-3.0448,-3.016,-2.9927,-2.989,-2.9602,-2.9233,-2.8786,-2.8338,-2.8053,-2.8058,-2.8384,-2.8756,-2.9217,-2.9563,-2.9429,-2.8582,-2.8948,-2.9179,-2.9102,-2.9544,-2.9967,-3.0379,-3.0398,-3.0641,-3.1133,-3.1133,-3.1376,-3.1888,-3.2779,-3.3216,-3.159,-3.2789,-3.3973,-3.4959,-3.5553,-3.5282,-3.2893,-3.4211,-3.5264,-3.2846,-3.3317,-3.4132,-3.4158,-3.3633,-3.3237,-3.3329,-3.2871,-3.2783,-3.3471,-3.2445,-3.1757,-3.2098,-3.1198,-3.0434,-3.0147,-3.0434,-3.0675,-3.0639,-3.1054,-3.1269,-3.1146,-3.0948,-3.0826,-3.0826,-3.1121,-3.177,-3.2817,-3.305,-3.3731,-3.4819,-3.5078,-3.5289,-3.5493,-3.5493,-3.5493,-3.5493,-3.5526,-3.5565,-3.5584,-3.5432,-3.502,-3.4475,-3.4301,-3.3296,-3.2,-3.2694,-3.2084,-3.1004,-3.1661,-3.1453,-3.0983,-3.1691,-3.2293,-3.281,-3.3114,-3.2589,-3.1884,-3.1835,-3.1696,-3.1379,-3.0617,-3.0956,-3.1295,-3.0621,-3.0448,-3.0448,-3.0448,-3.0448,-3.0448,-3.0448,-3.0487,-3.0529,-3.0527,-3.059,-3.0625,-3.0601,-3.0634,-3.0421,-2.9749,-2.97,-2.9726,-2.9724,-2.9438,-2.9582,-3.0448,-3.0467,-3.0083,-2.9217,-2.9967,-3.0025,-2.9171,-2.9967,-3.0417,-3.0417,-3.0448,-3.0902,-3.1811,-3.181,-3.2297,-3.3227,-3.411,-3.4516,-3.0677,-3.199,-3.3278,-3.4814,-3.5201,-3.4722,-3.2961,-3.3379,-3.3582,-3.1649,-3.2164,-3.2972,-3.3026,-3.1921,-3.1378,-3.2584,-3.0882,-3.0341,-3.3038,-3.2052,-3.1367,-3.2193,-3.1539,-3.0727,-2.9896,-2.9877,-2.9886,-2.9808,-2.9149,-2.9379,-3.0865,-3.0903,-3.0903,-3.0903,-3.0923,-3.1337,-3.2184,-3.3219,-3.3777,-3.3922,-3.497,-3.5479,-3.5493,-3.5493,-3.5493,-3.5493,-3.5565,-3.5603,0.0,-3.4884,-3.4559,-3.442,-3.3704,-3.2826,-3.1999,-3.2085,-3.201,-3.1866,-3.1899,-3.1857,-3.1798,-3.1941,-3.1988,-3.2143,-3.2958,-3.2594,-3.1895,-3.1895,-3.1323,-3.0686,-3.0611,-3.0643,-3.0679,-3.0602,-3.0583,-3.0583,-3.0583,-3.0583,-3.0583,-3.0583,-3.0583,-3.0595,-3.0593,-3.0656,-3.0664,-3.062,-3.0768,-3.0798,-3.0606,-3.0696,-3.0767,-3.0764,-2.9941,-2.9705,-3.051,-3.0583,-3.0244,-2.9413,-3.009,-3.0102,-2.9228,-3.0025,-3.0487,-3.0487,-3.0544,-3.1018,-3.1888,-3.1887,-3.2344,-3.3226,-3.4158,-3.4593,-2.8385,-3.0839,-3.3455,-3.4472,-3.4293,-3.3763,-3.3259,-3.3058,-3.2626,-3.1303,-3.1401,-3.1584,-3.1115,-3.0226,-2.9702,-3.0156,-2.972,-2.9573,-3.0223,-3.0876,-3.1169,-3.0838,-3.0984,-3.1065,-3.1018,-3.0086,-2.9301,-2.8779,-2.8417,-2.8507,-2.9178,-2.932,-2.917,-2.8681,-2.9641,-3.0634,-3.1604,-3.2594,-3.3677,-3.4836,-3.5273,-3.5493,-3.5493,-3.5545,-3.5565,-3.5565,-3.5641,-3.5718,0.0,-3.4901,-3.4272,-3.3763,-3.2957,-3.2108,-3.1339,-3.1342,-3.1348,-3.1328,-3.1317,-3.1304,-3.1297,-3.134,-3.1318,-3.1357,-3.1703,-3.1577,-3.1284,-3.1206,-3.1309,-3.1316,-3.0748,-3.0602,-3.061,-3.061,-3.061,-3.061,-3.061,-3.061,-3.061,-3.061,-3.0626,-3.0656,-3.0656,-3.0743,-3.0802,-3.0777,-3.0856,-3.0874,-3.0837,-3.0859,-3.0901,-3.0905,-3.0476,-3.0309,-3.0633,-3.062,-3.0447,-3.0136,-3.0388,-3.0394,-3.0056,-3.0371,-3.0565,-3.0563,-3.1103,-3.1835,-3.274,-3.3267,-3.399,-3.4886,-3.5264,-3.5441,-2.5406,-2.8285,-3.1635,-3.2509,-3.2305,-3.1977,-3.2305,-3.1982,-3.1392,-3.0423,-3.0299,-3.0133,-2.9417,-2.8582,-2.8025,-2.8198,-2.839,-2.8397,-2.8102,-2.9928,-3.0937,-2.9964,-3.1076,-3.176,-3.1344,-2.985,-2.8687,-2.8135,-2.7865,-2.7721,-2.772,-2.7857,-2.7889,-2.7816,-2.8966,-3.003,-3.1054,-3.2178,-3.3437,-3.4795,-3.5315,-3.5565,-3.5565,-3.5622,-3.5637,-3.5628,-3.572,-3.5815,0.0,-3.4988,-3.4133,-3.332,-3.2519,-3.168,-3.0898,-3.0898,-3.0898,-3.0898,-3.0898,-3.0903,-3.09,-3.0903,-3.0896,-3.0897,-3.0909,-3.0898,-3.0879,-3.0781,-3.1198,-3.1523,-3.086,-3.0685,-3.0685,-3.0685,-3.0685,-3.0685,-3.0685,-3.0685,-3.0685,-3.0685,-3.0737,-3.0765,-3.0765,-3.0833,-3.0898,-3.0898,-3.0898,-3.0896,-3.0843,-3.0837,-3.0836,-3.0839,-3.0762,-3.0723,-3.0762,-3.0721,-3.0685,-3.0685,-3.0899,-3.1017,-3.1006,-3.1272,-3.1388,-3.1406,-3.2016,-3.2795,-3.3716,-3.4318,-3.5109,-3.5996,-3.5996,-3.5996,-2.1614,-2.3992,-2.6932,-2.8404,-2.8883,-2.9179,-2.9651,-2.984,-2.9647,-2.8621,-2.864,-2.8666,-2.82,-2.6979,-2.6305,-2.7173,-2.654,-2.6315,-2.7348,-2.9394,-3.0611,-3.0048,-3.2291,-3.2868,-3.037,-2.8851,-2.8049,-2.81,-2.7303,-2.6817,-2.6817,-2.6826,-2.7569,-2.9221,-2.9225,-2.9621,-3.0494,-3.223,-3.3108,-3.3147,-3.4872,-3.5699,-3.5699,-3.5699,-3.5701,-3.5709,-3.5852,-3.5892,0.0,-3.5034,-3.4199,-3.332,-3.2519,-3.168,-3.0898,-3.0898,-3.0898,-3.0898,-3.0898,-3.0898,-3.0898,-3.0898,-3.0898,-3.0898,-3.0898,-3.0898,-3.0898,-3.0898,-3.0898,-3.0918,-3.0898,-3.0898,-3.0898,-3.0898,-3.0898,-3.0898,-3.0898,-3.0898,-3.0898,-3.0898,-3.0898,-3.0898,-3.0898,-3.0898,-3.0898,-3.0898,-3.0898,-3.0852,-3.073,-3.0691,-3.0701,-3.07,-3.0703,-3.0742,-3.0898,-3.0898,-3.0898,-3.0898,-3.1582,-3.1992,-3.1992,-3.28,-3.3272,-3.3265,-3.3349,-3.3808,-3.4687,-3.4687,-3.5156,-3.5996,-3.5996,-3.5996,-1.8104,-2.0652,-2.3754,-2.4669,-2.5207,-2.5775,-2.6745,-2.7146,-2.7296,-2.7255,-2.7493,-2.7578,-2.7156,-2.6823,-2.6576,-2.6476,-2.701,-2.7423,-2.755,-2.9804,-3.1186,-3.0634,-3.208,-3.1999,-2.9016,-2.8362,-2.763,-2.6417,-2.6067,-2.591,-2.591,-2.5949,-2.6485,-2.7569,-2.8686,-2.9696,-3.0563,-3.1696,-3.2885,-3.4048,-3.463,-3.5174,-3.5697,-3.5784,-3.5843,-3.5836,-3.5931,-3.5962,-3.5869,-3.441,-3.3652,-3.3262,-3.1855,-3.1097,-3.0754,-3.0754,-3.0724,-3.0696,-3.0759,-3.0762,-3.0781,-3.0879,-3.0898,-3.0898,-3.0898,-3.0898,-3.0898,-3.0898,-3.0898,-3.0898,-3.0898,-3.0898,-3.0898,-3.0898,-3.0898,-3.0898,-3.0898,-3.0898,-3.0898,-3.0898,-3.0898,-3.0898,-3.0898,-3.0813,-3.0754,-3.0754,-3.0728,-3.0677,-3.063,-3.0626,-3.0632,-3.0621,-3.0668,-3.0742,-3.0898,-3.1445,-3.1797,-3.1797,-3.2519,-3.2969,-3.2969,-3.3224,-3.3376,-3.3376,-3.3979,-3.4414,-3.4707,-3.5293,-3.5711,-3.5931,-3.5931,-3.5881,-1.4627,-1.6917,-1.9752,-2.0769,-2.1348,-2.2226,-2.4028,-2.439,-2.4652,-2.5789,-2.6003,-2.6051,-2.6232,-2.6172,-2.6112,-2.6116,-2.6539,-2.575,-2.2504,-2.677,-3.0496,-3.1133,-3.1527,-3.0892,-2.8764,-2.7705,-2.6694,-2.5576,-2.5499,-2.5499,-2.5499,-2.5531,-2.6093,-2.7293,-2.8337,-2.9455,-3.0633,-3.1496,-3.248,-3.3555,-3.3924,-3.4515,-3.5334,-3.541,-3.5443,-3.546,-3.584,-3.5801,0.0,-3.4336,-3.3682,-3.3239,-3.185,-3.1048,-3.0656,-3.0667,-3.0635,-3.0614,-3.0647,-3.0661,-3.0687,-3.0765,-3.0784,-3.0788,-3.082,-3.0859,-3.0898,-3.0898,-3.0898,-3.0898,-3.0898,-3.0898,-3.0898,-3.0898,-3.0898,-3.0896,-3.0849,-3.0813,-3.0825,-3.0799,-3.0784,-3.0784,-3.0784,-3.0724,-3.0656,-3.0664,-3.0637,-3.0599,-3.0579,-3.0558,-3.0564,-3.0564,-3.0598,-3.0673,-3.0782,-3.1605,-3.2143,-3.2207,-3.3242,-3.3867,-3.3887,-3.4219,-3.4375,-3.4375,-3.4902,-3.5195,-3.5195,-3.5705,-3.5943,-3.5892,-3.5853,-3.5777,0.0,-1.2982,-1.5153,-1.6701,-1.7505,-1.8635,-2.1276,-2.1573,0.0,-2.4164,-2.4242,-2.426,-2.5465,-2.5265,-2.5206,-2.6041,-2.5615,-2.2422,-1.4422,-2.1438,-2.8277,-3.0651,-3.0404,-2.9784,-2.9179,-2.6928,-2.5502,-2.5486,-2.5486,-2.5486,-2.5486,-2.5486,-2.6287,-2.8044,-2.8105,-2.8945,-3.0703,-3.1525,-3.1956,-3.2014,-3.2892,-3.3769,-3.4609,-3.4608,-3.4609,-3.4648,-3.5469,-3.5351,0.0,-3.4549,-3.3979,-3.3118,-3.2247,-3.1352,-3.0587,-3.0586,-3.0583,-3.0583,-3.0583,-3.0598,-3.0587,-3.0607,-3.0607,-3.0611,-3.0671,-3.0781,-3.0898,-3.0898,-3.0898,-3.0896,-3.0896,-3.0878,-3.0878,-3.0878,-3.0878,-3.0838,-3.0733,-3.0691,-3.0662,-3.0613,-3.0607,-3.0607,-3.0607,-3.0607,-3.0583,-3.059,-3.0583,-3.0564,-3.0506,-3.0487,-3.0487,-3.0487,-3.0506,-3.0539,-3.0594,-3.1446,-3.2077,-3.2258,-3.3729,-3.4648,-3.4765,-3.5546,-3.5976,-3.5976,-3.5976,-3.5976,-3.5976,-3.5911,-3.588,-3.5872,-3.5757,-3.5699,-0.9795,0.0,-1.2027,-1.2613,-1.4231,-1.5904,0.0,-1.8561,-2.0376,-2.1652,-2.2377,-2.3352,-2.52,-2.585,-2.6302,-2.6916,-2.7596,-2.5508,-1.8285,-2.0219,-2.2193,-2.1649,-2.6702,-2.9439,-2.742,-2.6776,-2.6165,-2.539,-2.5341,-2.5341,-2.5341,-2.5409,-2.5918,-2.7028,-2.7089,-2.8337,-3.082,-3.1063,-3.1499,-3.2163,-3.238,-3.291,-3.3691,-3.3647,-3.3665,-3.3711,-3.3867,-3.3848,-3.3652,-3.2934,-3.2502,-3.2208,-3.1299,-3.0764,-3.0518,-3.0529,-3.0487,-3.0448,-3.0506,-3.0513,-3.0528,-3.0586,-3.0606,-3.0597,-3.0626,-3.0682,-3.0762,-3.0879,-3.0832,-3.0761,-3.0761,-3.0704,-3.0672,-3.0672,-3.0672,-3.0658,-3.0639,-3.0617,-3.0625,-3.0595,-3.0606,-3.0606,-3.0606,-3.0567,-3.0527,-3.0518,-3.0487,-3.0448,-3.0417,-3.0417,-3.0417,-3.0417,-3.0467,-3.051,-3.0518,-3.1388,-3.2227,-3.2917,-3.3944,-3.4803,-3.5446,-3.5666,-3.5763,-3.5763,-3.5763,-3.5763,-3.5763,-3.576,-3.5727,-3.568,-3.5641,-3.5603,-0.9731,-0.9432,-0.9897,-1.0457,-1.1748,-1.3197,-1.4305,-1.5751,-1.7231,-1.8617,-1.9589,-2.099,-2.3567,-2.4856,-2.5875,-2.6939,-2.6722,-2.4366,-1.8421,-1.6019,-1.6044,-1.9164,-2.491,-2.8102,-2.6823,-2.6381,-2.5919,-2.539,-2.5322,-2.5264,-2.5163,-2.5201,-2.5584,-2.64,-2.6468,-2.7686,-3.0189,-3.0208,-3.0638,-3.148,-3.148,-3.1909,-3.2709,-3.2667,-3.2676,-3.2722,-3.3106,-3.3044,-3.2664,-3.2166,-3.1951,-3.1811,-3.0922,-3.0506,-3.0448,-3.0448,-3.0417,-3.0398,-3.0448,-3.0448,-3.0467,-3.0506,-3.0506,-3.0506,-3.0544,-3.0576,-3.0638,-3.0726,-3.0709,-3.0646,-3.0656,-3.0626,-3.0604,-3.0604,-3.0604,-3.0585,-3.0565,-3.0867,-3.1129,-3.1121,-3.1102,-3.1218,-3.1583,-3.1314,-3.1044,-3.1044,-3.1025,-3.0852,-3.0436,-3.0398,-3.0398,-3.0398,-3.0417,-3.0621,-3.1025,-3.1526,-3.2212,-3.3134,-3.4345,-3.5214,-3.5689,-3.5708,-3.5708,-3.5708,-3.5708,-3.5708,-3.5708,-3.5669,-3.5643,-3.5603,-3.5584,-3.5545,-1.0288,-0.898,-0.8469,-0.9215,-0.9768,-1.0697,-1.2513,-1.3095,-1.3749,-1.5529,-1.6678,-1.8317,-2.1565,-2.3419,-2.5045,-2.6732,-2.3818,-1.9748,-1.5164,-1.0753,-1.0686,-1.7916,-2.3293,-2.6477,-2.6581,-2.5885,-2.5408,-2.5409,-2.5312,-2.5173,-2.501,-2.4986,-2.5273,-2.5899,-2.5918,-2.6799,-2.8671,-2.9006,-2.9493,-3.0179,-3.0199,-3.0665,-3.1527,-3.1488,-3.1571,-3.1746,0.0,0.0,-3.1702,-3.1683,-3.1639,-3.153,-3.0775,-3.0448,-3.0398,-3.0398,-3.0398,-3.0398,-3.0398,-3.0398,-3.0398,-3.0398,-3.0398,-3.0398,-3.0467,-3.0487,-3.0494,-3.0556,-3.0587,-3.0583,-3.0593,-3.0583,-3.0564,-3.0564,-3.0564,-3.0583,-3.0679,-3.1148,-3.1648,-3.1852,-3.1775,-3.1968,-3.2756,-3.2333,-3.1891,-3.1891,-3.1891,-3.1564,-3.0717,-3.059,-3.0552,-3.0398,-3.0398,-3.0756,-3.1641,-3.1814,-3.2295,-3.3288,-3.4622,-3.5468,-3.5661,-3.568,-3.568,-3.568,-3.568,-3.568,-3.568,-3.5622,-3.5584,-3.5584,-3.5545,-3.5493,-1.0367,-0.8747,-0.7774,-0.7589,-0.8178,-0.8946,-0.9343,-1.0574,-1.2007,-1.3312,-1.5033,-1.7303,-2.081,-2.3294,-2.5411,-2.7207,-1.8755,-1.0617,-0.662,-0.7236,-0.8303,-0.8971,-1.8895,-2.5647,-2.5629,-2.5541,-2.546,-2.5399,-2.519,-2.5034,-2.501,-2.4947,-2.4978,-2.5089,-2.5017,-2.5161,-2.5487,-2.7182,-2.8106,-2.8232,-2.8405,-2.8935,-2.9781,-2.9668,-3.0062,-3.0806,0.0,-3.0874,-3.0786,-3.0728,-3.0706,-3.0679,-3.0487,-3.0398,-3.0398,-3.0398,-3.0398,-3.0398,-3.0398,-3.0398,-3.0398,-3.0398,-3.0398,-3.0398,-3.0398,-3.0417,-3.041,-3.0417,-3.0477,-3.0524,-3.0518,-3.0467,-3.0417,-3.0417,-3.0417,-3.0641,-3.1371,-3.1044,-3.1032,-3.2449,-3.2179,-3.1968,-3.2756,-3.2795,-3.2718,-3.2718,-3.2718,-3.2429,-3.1621,-3.1506,-3.1218,-3.0475,-3.0398,-3.0756,-3.1641,-3.2314,-3.3103,-3.3987,-3.4276,-3.4757,-3.5507,-3.5545,-3.5545,-3.5545,-3.5545,-3.5545,-3.5545,-3.5526,-3.5526,-3.5526,-3.5493,-3.5493,-1.0857,-0.8325,-0.6116,-0.4287,-0.5199,-0.6741,-0.7488,-0.8783,-1.0115,-1.1206,-1.3027,-1.5497,-1.8915,-2.1557,-2.3635,-2.4903,-1.8401,-1.2265,-0.9475,-0.9903,-1.0883,-1.1975,-1.912,-2.4364,-2.5312,-2.5496,-2.5525,-2.5467,-2.5264,-2.5088,-2.4891,-2.4873,-2.4752,-2.4541,-2.4135,-2.3891,-2.3764,-2.5162,-2.6294,-2.7159,-2.7496,-2.7931,-2.8434,-2.8701,-2.9121,-2.964,0.0,-3.0253,-3.0272,-3.0412,-3.0448,-3.0448,-3.0398,-3.0311,-3.0177,-3.0177,-3.0177,-3.0209,-3.0355,-3.0398,-3.0398,-3.0398,-3.0398,-3.0398,-3.0398,-3.0398,-3.0398,-3.0398,-3.0417,-3.0448,-3.0448,-3.0417,-3.0398,-3.0398,-3.0398,-3.0513,-3.091,-3.1064,-3.1333,-3.2102,-3.2295,-3.2622,-3.3449,-3.3603,-3.3603,-3.3603,-3.3603,-3.3141,-3.1852,-3.1698,-3.1371,-3.0494,-3.0398,-3.0929,-3.2237,-3.2699,-3.3468,-3.4814,-3.4911,-3.5084,-3.5474,-3.5493,-3.5493,-3.5493,-3.5493,-3.5493,-3.5493,-3.5493,-3.5493,-3.5493,-3.5493,-3.5493,-1.1535,-0.7713,-0.3886,-0.0654,-0.1843,-0.4022,-0.5012,-0.6531,-0.8274,-1.0037,-1.1971,-1.4397,-1.7693,-2.0655,-2.2551,-2.2411,-1.9247,-1.5847,-1.3264,-1.3114,-1.4025,-1.594,-2.018,-2.3611,-2.5284,-2.5531,-2.5575,-2.5505,-2.5375,-2.5139,-2.4766,-2.469,-2.4469,-2.4053,-2.3365,-2.2914,-2.2757,-2.3498,-2.4596,-2.6003,-2.6472,-2.6892,-2.7246,-2.7695,-2.8108,-2.8489,-2.9098,-2.9478,-2.965,-2.9882,-3.0069,-3.0247,-3.0247,-3.0109,-2.9939,-2.9939,-2.9939,-2.9954,-3.0155,-3.0247,-3.0241,-3.0299,-3.0311,-3.0311,-3.0367,-3.0398,-3.0436,-3.066,-3.0552,-3.0398,-3.0398,-3.0398,-3.0398,-3.0398,-3.0398,-3.0456,-3.066,-3.1237,-3.1814,-3.2218,-3.2776,-3.3487,-3.4353,-3.4507,-3.4507,-3.4507,-3.4507,-3.3968,-3.2487,-3.2295,-3.1948,-3.1083,-3.0987,-3.1602,-3.3083,-3.3391,-3.4083,-3.543,-3.5493,-3.5493,-3.5493,-3.5493,-3.5493,-3.5493,-3.5493,-3.5493,-3.5493,-3.5493,-3.5493,-3.5493,-3.5493,-3.5493,-1.2361,-0.6603,-0.0864,0.2981,0.1691,-0.053,-0.0481,-0.3129,-0.6648,-1.0668,-1.2963,-1.5268,-1.8341,-2.2241,-2.4002,-2.107,-1.9735,-1.7337,-1.231,-1.3935,-1.5553,-1.5234,-2.025,-2.42,-2.546,-2.5587,-2.5563,-2.5505,-2.5374,-2.5097,-2.4639,-2.4389,-2.4028,-2.3572,-2.277,-2.2369,-2.2358,-2.2797,-2.3417,-2.4192,-2.4735,-2.5385,-2.6118,-2.6159,-2.6631,-2.7415,-2.7471,-2.791,-2.8612,-2.8628,-2.9082,-2.9748,-2.9748,-2.9748,-2.9731,-2.9731,-2.9731,-2.9712,-2.9748,-2.9748,-2.9782,-2.9969,-3.0028,-3.0075,-3.0323,-3.0398,-3.0571,-3.1391,-3.1025,-3.0398,-3.0398,-3.0398,-3.0398,-3.0398,-3.0398,-3.0609,-3.1429,-3.166,-3.216,-3.3718,-3.4064,-3.4372,-3.5257,-3.5411,-3.5411,-3.5411,-3.5411,-3.5064,-3.4141,-3.4007,-3.368,-3.2814,-3.2718,-3.3103,-3.4026,-3.4853,-3.5372,-3.5474,-3.5493,-3.5493,-3.5493,-3.5493,-3.5493,-3.5493,-3.5493,-3.5493,-3.5493,-3.5493,-3.5493,-3.5493,-3.5493,-3.5493,-1.416,-0.751,-0.0099,0.5289,0.6762,0.6212,0.335,-0.006,-0.3797,-0.8052,-1.1686,-1.5404,-1.9466,-2.2404,-2.3459,-2.099,-2.0291,-1.9027,-1.6159,-1.5552,-1.6059,-1.7802,-2.1044,-2.3746,-2.5383,-2.5615,-2.5494,-2.5091,-2.4777,-2.4542,-2.4348,-2.386,-2.3505,-2.3324,-2.2667,-2.2315,-2.2289,-2.2703,-2.301,-2.3188,-2.3608,-2.4135,-2.4761,-2.5133,-2.5671,-2.6349,-2.7359,-2.7977,-2.8296,-2.8964,-2.943,-2.9696,-2.9551,-2.9513,-2.9513,-2.9513,-2.9513,-2.9532,-2.9661,-2.9696,-2.9713,-2.978,-2.9813,-2.9829,-2.9927,-2.9958,-3.0148,-3.0969,-3.0969,-3.0803,-3.1117,-3.0814,-3.0398,-3.0398,-3.0398,-3.0494,-3.0833,-3.0891,-3.1237,-3.241,-3.3045,-3.366,-3.4545,-3.5141,-3.5493,-3.5493,-3.5493,-3.5119,-3.4083,-3.4093,-3.3794,-3.2766,-3.3286,-3.3833,-3.416,-3.5007,-3.5493,-3.5493,-3.5493,-3.5493,-3.5493,-3.5493,-3.5493,-3.5493,-3.5493,-3.5493,-3.5493,-3.5493,-3.5493,-3.5512,-3.6007,-3.6257,-1.2859,-0.6349,0.0956,0.8304,1.1959,1.2758,0.8954,0.414,-0.0784,-0.5118,-1.0818,-1.6215,-2.0055,-2.2473,-2.3201,-2.1127,-2.1223,-2.1148,-2.0034,-1.8578,-1.8605,-2.1285,-2.2721,-2.4024,-2.5395,-2.5587,-2.5397,-2.4839,-2.442,-2.42,-2.4199,-2.3633,-2.3267,-2.3212,-2.2708,-2.2382,-2.231,-2.2586,-2.2642,-2.259,-2.2807,-2.3218,-2.3769,-2.4172,-2.4556,-2.4999,-2.6323,-2.704,-2.7356,-2.8355,-2.8961,-2.9282,-2.9272,-2.9267,-2.9267,-2.9267,-2.9267,-2.9289,-2.9436,-2.9476,-2.9476,-2.9589,-2.9607,-2.9626,-2.9678,-2.9696,-2.9922,-3.1016,-3.094,-3.0729,-3.1626,-3.1398,-3.0805,-3.0303,-3.0366,-3.048,-3.0226,-3.059,-3.1145,-3.1738,-3.2732,-3.367,-3.4263,-3.4856,-3.5258,-3.5258,-3.5258,-3.498,-3.4181,-3.4241,-3.4079,-3.3408,-3.4029,-3.4515,-3.4603,-3.4911,-3.5084,-3.5084,-3.5084,-3.5218,-3.5488,-3.5238,-3.5218,-3.5474,-3.5238,-3.5238,-3.5493,-3.5493,-3.5493,-3.5526,-3.6334,-3.6699,-0.7746,-0.2523,0.2701,1.2412,1.6924,1.8584,1.6856,0.9799,0.2293,-0.24,-1.0809,-1.7961,-2.0023,-2.2546,-2.3577,-2.1363,-2.2575,-2.3667,-2.3333,-2.3127,-2.365,-2.531,-2.5325,-2.5309,-2.5571,-2.5524,-2.531,-2.4839,-2.442,-2.42,-2.4199,-2.376,-2.3414,-2.3212,-2.2855,-2.2573,-2.231,-2.231,-2.231,-2.231,-2.231,-2.2624,-2.3189,-2.3189,-2.3189,-2.3242,-2.3972,-2.4749,-2.5561,-2.6356,-2.738,-2.8428,-2.8821,-2.8975,-2.8975,-2.8994,-2.8994,-2.8994,-2.8994,-2.8994,-2.9044,-2.931,-2.9392,-2.9434,-2.9625,-2.9696,-3.0035,-3.1713,-3.0996,-3.0092,-3.1751,-3.2147,-3.1676,-3.0073,-3.0318,-3.0676,-2.9885,-3.1015,-3.2185,-3.2204,-3.3543,-3.4694,-3.4694,-3.4694,-3.4694,-3.4694,-3.4694,-3.4694,-3.4694,-3.4694,-3.4793,-3.507,-3.5105,-3.5207,-3.546,-3.4699,-3.4199,-3.4199,-3.4199,-3.4584,-3.5449,-3.4641,-3.4603,-3.5468,-3.4641,-3.4622,-3.5493,-3.5493,-3.5493,-3.5526,-3.6334,-3.6719,-0.5983,0.079,0.8484,1.9443,2.2019,2.1663,2.0808,1.4955,0.6565,-0.4462,-1.3201,-1.9296,-2.0828,-2.2433,-2.3171,-2.2096,-2.2532,-2.298,-2.2833,-2.3844,-2.4832,-2.5422,-2.5151,-2.4957,-2.5031,-2.5023,-2.4846,-2.4407,-2.4273,-2.4199,-2.4192,-2.3844,-2.3508,-2.3212,-2.2855,-2.2573,-2.231,-2.231,-2.231,-2.231,-2.231,-2.249,-2.2848,-2.2848,-2.2972,-2.3242,-2.4021,-2.4799,-2.5578,-2.641,-2.697,-2.729,-2.7396,-2.7448,-2.7546,-2.829,-2.8565,-2.8633,-2.8905,-2.8994,-2.9017,-2.9089,-2.9112,-2.9134,-2.9185,-2.9206,-2.9428,-3.0487,-3.045,-3.0169,-3.0654,-3.1209,-3.1299,-3.0001,-2.9885,-3.0149,-3.0469,-3.094,-3.1638,-3.2826,-3.3448,-3.3976,-3.46,-3.4694,-3.4694,-3.4694,-3.4694,-3.4694,-3.4694,-3.4489,-3.4553,-3.5053,-3.5105,-3.5122,-3.5207,-3.4993,-3.484,-3.484,-3.484,-3.4481,-3.3686,-3.4007,-3.4314,-3.4584,-3.4334,-3.4622,-3.5493,-3.5493,-3.5493,-3.5532,-3.6949,-3.7603,-0.2224,0.5084,1.3222,2.3327,2.5102,2.4048,2.2829,1.6932,0.8647,-0.2003,-1.052,-1.7226,-2.1104,-2.2661,-2.3277,-2.3026,-2.3089,-2.3174,-2.3151,-2.4252,-2.5115,-2.527,-2.5079,-2.4889,-2.4809,-2.4682,-2.4508,-2.4327,-2.4205,-2.4137,-2.4209,-2.3774,-2.3414,-2.3212,-2.2764,-2.2463,-2.231,-2.231,-2.231,-2.231,-2.231,-2.2388,-2.2537,-2.2537,-2.2643,-2.2884,-2.3676,-2.459,-2.5564,-2.5953,-2.6317,-2.6563,-2.6393,-2.6517,-2.6872,-2.7531,-2.8021,-2.8446,-2.8682,-2.8662,-2.8594,-2.8883,-2.8796,-2.8594,-2.8883,-2.8994,-2.9159,-2.9971,-2.9971,-2.9806,-3.0118,-3.032,-3.0268,-2.9599,-2.9659,-2.9939,-3.0107,-3.0406,-3.1022,-3.2347,-3.2851,-3.3355,-3.4199,-3.433,-3.433,-3.433,-3.433,-3.433,-3.433,-3.4165,-3.4218,-3.4696,-3.4736,-3.4794,-3.4926,-3.4622,-3.4414,-3.4414,-3.4414,-3.3876,-3.2634,-3.3527,-3.4203,-3.4549,-3.411,-3.4362,-3.5354,-3.5354,-3.5403,-3.5532,-3.6873,-3.768,0.3003,1.004,1.7022,2.4778,2.6495,2.5704,2.3464,1.706,0.981,0.3549,-0.4709,-1.3108,-2.0792,-2.293,-2.3625,-2.3965,-2.394,-2.3921,-2.4028,-2.4414,-2.4754,-2.4955,-2.5015,-2.4945,-2.4741,-2.4372,-2.4202,-2.4372,-2.4045,-2.3931,-2.4133,-2.3544,-2.3189,-2.3189,-2.2634,-2.2321,-2.231,-2.231,-2.231,-2.231,-2.231,-2.231,-2.231,-2.231,-2.231,-2.2344,-2.3088,-2.4154,-2.5387,-2.508,-2.5346,-2.59,-2.5543,-2.5888,-2.6586,-2.6631,-2.7308,-2.819,-2.8196,-2.7949,-2.7783,-2.8608,-2.8411,-2.7952,-2.8778,-2.8994,-2.914,-2.9879,-2.9512,-2.909,-2.9879,-2.9494,-2.8902,-2.8975,-2.9567,-2.9916,-2.9255,-2.9696,-3.0448,-3.1237,-3.199,-3.2724,-3.3458,-3.3587,-3.3605,-3.3678,-3.3623,-3.3605,-3.3678,-3.3623,-3.37,-3.4041,-3.4088,-3.424,-3.4614,-3.3936,-3.3463,-3.3463,-3.3463,-3.3145,-3.2373,-3.3256,-3.4137,-3.4937,-3.3923,-3.3961,-3.5051,-3.5051,-3.519,-3.5451,-3.6257,-3.7117,0.837,1.4691,2.0085,2.5489,2.6502,2.5784,2.4431,2.0649,1.5184,0.733,-0.3005,-1.275,-1.9589,-2.1976,-2.316,-2.3948,-2.3886,-2.391,-2.4409,-2.451,-2.4626,-2.482,-2.4719,-2.4508,-2.4191,-2.3455,-2.3111,-2.3454,-2.2891,-2.2901,-2.3759,-2.3414,-2.3189,-2.3189,-2.2815,-2.2527,-2.231,-2.231,-2.231,0.0,-2.231,-2.231,-2.231,-2.231,-2.231,-2.2344,-2.3088,-2.3579,-2.3866,-2.3799,-2.3862,-2.3981,-2.3898,-2.4333,-2.503,-2.5333,-2.5991,-2.6665,-2.6606,-2.6542,-2.6636,-2.7702,-2.7934,-2.7952,-2.8778,-2.8994,-2.903,-2.9195,-2.8686,-2.8246,-2.9053,-2.8668,-2.8227,-2.8847,-2.9122,-2.936,-2.9843,-3.0081,-3.0448,-3.1237,-3.1531,-3.1715,-3.188,-3.1916,-3.2118,-3.2761,-3.232,-3.2137,-3.2779,-3.2302,-3.2244,-3.3171,-3.3268,-3.3533,-3.4255,-3.4143,-3.4031,-3.4031,-3.4031,-3.4046,-3.4146,-3.3733,-3.3582,-3.3771,-3.3524,-3.3864,-3.4793,-3.4793,-3.4832,-3.4908,-3.5685,-3.6634,1.2896,1.863,2.2695,2.5381,2.6075,2.5787,2.4537,2.1965,1.8187,1.2438,0.1623,-0.9605,-1.8977,-2.1528,-2.2539,-2.3539,-2.377,-2.3967,-2.4443,-2.4454,-2.448,-2.4647,-2.4408,-2.4026,-2.3397,-2.2916,-2.265,-2.2663,-2.2506,-2.2694,-2.3419,-2.3141,-2.2972,-2.2972,-2.2652,-2.2436,-2.231,-2.231,-2.231,-2.231,-2.231,-2.231,-2.231,-2.231,-2.231,-2.2327,-2.2716,-2.3071,-2.3376,-2.3021,-2.3088,-2.3359,-2.3004,-2.3325,-2.3981,-2.4201,-2.4964,-2.5875,-2.5821,-2.5804,-2.5929,-2.69,-2.7236,-2.731,-2.7732,-2.8136,-2.8356,-2.797,-2.7548,-2.7328,-2.775,-2.7548,-2.7438,-2.8227,-2.8723,-2.9104,-2.9549,-2.9641,-2.9861,-3.0668,-3.0834,-3.0944,-3.1329,-3.1384,-3.1659,-3.2485,-3.2247,-3.2265,-3.3073,-3.2816,-3.2764,-3.3327,-3.3364,-3.3549,-3.3956,-3.3993,-3.3993,-3.3993,-3.3993,-3.4093,-3.4279,-3.3827,-3.3631,-3.3786,-3.3672,-3.3877,-3.4445,-3.4445,-3.4551,-3.4713,-3.5128,-3.5853,1.5002,2.0787,2.4517,2.4892,2.5363,2.5404,2.4044,2.2143,1.9794,1.6631,0.6271,-0.5744,-1.7231,-2.0503,-2.1766,-2.27,-2.3221,-2.361,-2.3866,-2.375,-2.3747,-2.4061,-2.3841,-2.3335,-2.2512,-2.2482,-2.2345,-2.1972,-2.2233,-2.265,-2.3093,-2.2815,-2.266,-2.2695,-2.2453,-2.231,-2.231,-2.231,-2.231,-2.231,-2.231,-2.231,-2.231,-2.231,-2.231,-2.231,-2.231,-2.2649,-2.3156,-2.2564,-2.2665,-2.3139,-2.2547,-2.275,-2.3376,-2.3328,-2.4112,-2.5217,-2.5204,-2.5162,-2.525,-2.6096,-2.6392,-2.6429,-2.6557,-2.7053,-2.7457,-2.6796,-2.6502,-2.6465,-2.6741,-2.6612,-2.6631,-2.7567,-2.8319,-2.881,-2.8957,-2.8994,-2.9195,-2.9861,-2.9989,-3.021,-3.087,-3.1091,-3.1458,-3.2284,-3.2394,-3.2687,-3.3495,-3.3476,-3.344,-3.3587,-3.3715,-3.3862,-3.4009,-3.4156,-3.4229,-3.4229,-3.4082,-3.4009,-3.4009,-3.3862,-3.3902,-3.4123,-3.3928,-3.3902,-3.4123,-3.4123,-3.4265,-3.4548,-3.4548,-3.508,1.0953,1.8534,2.4492,2.4485,2.4429,2.4059,2.2888,2.197,2.0256,1.6401,0.6796,-0.33,-1.1207,-1.6998,-2.0677,-2.0989,-2.154,-2.1896,-2.1879,-2.1374,-2.1369,-2.2307,-2.2375,-2.2189,-2.1779,-2.1746,-2.1633,-2.1344,-2.1368,-2.1789,-2.2712,-2.25,-2.2463,-2.2695,-2.2453,-2.231,-2.231,-2.231,-2.231,-2.231,-2.231,-2.231,-2.231,-2.231,-2.231,-2.231,-2.231,-2.2361,-2.2446,-2.2344,-2.2361,-2.2446,-2.2344,-2.275,-2.3338,-2.2942,-2.3344,-2.4094,-2.3986,-2.3927,-2.4106,-2.5193,-2.5568,-2.5676,-2.6392,-2.6686,-2.6741,-2.6631,-2.6098,-2.5899,-2.7273,-2.6594,-2.5954,-2.7438,-2.7879,-2.8154,-2.8847,-2.8994,-2.9012,-2.9122,-2.914,-2.92,-2.931,-2.9898,-3.0632,-3.1439,-3.1549,-3.1843,-3.2669,-3.2155,-3.199,-3.2706,-3.3385,-3.4082,-3.477,-3.5532,-3.5973,-3.5973,-3.5275,-3.4825,-3.4825,-3.4174,-3.3815,-3.3868,-3.3815,-3.3815,-3.3868,-3.3868,-3.3895,-3.3902,-3.3902,-3.4877,1.2552,1.9369,2.3584,2.3582,2.3399,2.2985,2.2017,2.0931,1.8996,1.495,0.8416,0.0627,-0.859,-1.4169,-1.7845,-1.9276,-2.0242,-2.1052,-2.1744,-2.1581,-2.1781,-2.2767,-2.2189,-2.1666,-2.1499,-2.1416,-2.1139,-2.0568,-2.1329,-2.2021,-2.2446,-2.236,-2.2332,-2.2463,-2.236,-2.231,-2.231,-2.231,-2.231,-2.231,-2.231,-2.231,-2.231,-2.231,-2.231,-2.231,-2.231,-2.231,-2.231,-2.231,-2.231,-2.231,-2.231,-2.2513,-2.279,-2.272,-2.3049,-2.3538,-2.3647,-2.3816,-2.4051,-2.4554,-2.5035,-2.5384,-2.5273,-2.5566,-2.5823,-2.5383,-2.5328,-2.5476,-2.5713,-2.5585,-2.5697,-2.6851,-2.7126,-2.7475,-2.8718,-2.8994,-2.8994,-2.8994,-2.8994,-2.9122,-2.9604,-2.9971,-3.0632,-3.188,-3.2063,-3.2357,-3.3183,-3.2963,-3.3054,-3.3853,-3.4025,-3.4524,-3.5632,-3.5805,-3.5763,-3.5577,-3.5192,-3.4789,-3.4357,-3.399,-3.3807,-3.3807,-3.3807,-3.3807,-3.3807,-3.3807,-3.4027,-3.4486,-3.4486,-3.5193,1.2671,1.8592,2.1746,2.222,2.2124,2.172,2.103,1.9762,1.7646,1.3652,0.99,0.4245,-0.5724,-1.1325,-1.5181,-1.7421,-1.8673,-1.9716,-2.0805,-2.0819,-2.1143,-2.221,-2.1257,-2.0649,-2.0977,-2.1053,-2.082,-2.0176,-2.1495,-2.231,-2.231,-2.231,-2.231,-2.231,-2.231,-2.231,-2.231,-2.231,-2.2237,-2.2106,-2.2237,-2.2237,-2.2135,-2.2254,-2.231,-2.231,-2.231,-2.231,-2.231,-2.231,-2.231,-2.231,-2.231,-2.2349,-2.2453,-2.2712,-2.3045,-2.3369,-2.3714,-2.3996,-2.419,-2.419,-2.4612,-2.4999,-2.4373,-2.4612,-2.5017,-2.4612,-2.4944,-2.5366,-2.5162,-2.5401,-2.5897,-2.6704,-2.6906,-2.7291,-2.8705,-2.8994,-2.8994,-2.8994,-2.9159,-2.9512,-3.0099,-3.054,-3.1219,-3.243,-3.2779,-3.3128,-3.3715,-3.3707,-3.3963,-3.4739,-3.4568,-3.4925,-3.609,-3.6035,-3.5825,-3.5563,-3.5283,-3.4867,-3.4246,-3.3954,-3.3807,-3.3807,-3.3807,-3.3807,-3.3807,-3.4009,-3.4412,-3.5009,-3.521,-3.5789,0.7835,1.3852,1.8584,2.0369,2.0432,1.9973,1.9758,1.8737,1.685,1.3163,1.0759,0.685,-0.1037,-0.8235,-1.3583,-1.5302,-1.6402,-1.725,-1.777,-1.7355,-1.7518,-1.8982,-1.8455,-1.8515,-1.9839,-2.0497,-2.0724,-2.0492,-2.1625,-2.231,-2.231,-2.231,-2.231,-2.231,-2.231,-2.231,-2.231,-2.231,-2.2077,-2.1658,-2.2106,-2.2077,-2.1658,-2.2106,-2.231,-2.231,-2.231,-2.231,-2.231,-2.231,-2.231,-2.231,-2.231,-2.2463,-2.2721,-2.3045,-2.3392,-2.3714,-2.4074,-2.419,-2.419,-2.419,-2.4226,-2.4245,-2.4208,-2.4226,-2.441,-2.5146,-2.5384,-2.5752,-2.7218,-2.7071,-2.6741,-2.7548,-2.7732,-2.797,-2.8833,-2.8994,-2.8994,-2.8994,-2.9622,-3.0155,-3.0191,-3.1476,-3.2504,-3.2596,-3.3256,-3.3752,-3.3788,-3.3465,-3.3521,-3.4253,-3.4597,-3.5084,-3.5881,-3.6643,-3.7106,-3.7071,-3.6054,-3.5457,-3.5403,-3.4381,-3.3807,-3.3807,-3.3807,-3.3807,-3.3807,-3.4578,-3.4954,-3.5009,-3.5862,-3.667,0.1262,0.6824,1.1521,1.5957,1.719,1.7308,1.7288,1.6491,1.5028,1.2414,1.103,0.8036,0.0639,-0.5933,-1.1208,-1.4328,-1.5812,-1.7023,-1.8209,-1.7735,-1.777,-1.9144,-1.8477,-1.8115,-1.8625,-1.9623,-2.0186,-2.0118,-2.0947,-2.1584,-2.184,-2.1853,-2.2003,-2.2282,-2.231,-2.2152,-2.1853,-2.1584,-2.1385,-2.1213,-2.1645,-2.1764,-2.1628,-2.2077,-2.231,-2.231,-2.231,-2.231,-2.231,-2.231,-2.231,-2.231,-2.231,-2.2377,-2.2517,-2.3014,-2.3141,-2.3141,-2.3692,-2.3876,-2.3876,-2.3876,-2.4016,-2.419,-2.419,-2.419,-2.4263,-2.4538,-2.5017,-2.5421,-2.5456,-2.6043,-2.6753,-2.7282,-2.7816,-2.8196,-2.828,-2.8281,-2.8281,-2.8281,-2.891,-2.9591,-3.0112,-3.1317,-3.2391,-3.29,-3.3451,-3.3807,-3.3807,-3.3662,-3.3803,-3.4303,-3.4599,-3.5066,-3.5898,-3.6408,-3.6576,-3.6392,-3.5545,-3.501,-3.4976,-3.3965,-3.3644,-3.4123,-3.442,-3.4321,-3.3807,-3.41,-3.4603,-3.532,-3.5628,-3.6317,-0.57,-0.0852,0.3712,0.9145,1.1348,1.2572,1.4061,1.4172,1.3632,1.2282,1.0981,0.818,0.1871,-0.4082,-0.9141,-1.2653,-1.4348,-1.5775,-1.7505,-1.7437,-1.7529,-1.8389,-1.7906,-1.7598,-1.7846,-1.9015,-1.9796,-1.9811,-2.0543,0.0,-2.1582,-2.1351,-2.1458,-2.1938,-2.1938,-2.1809,-2.1612,-2.1337,-2.1055,-2.0748,-2.1337,-2.1521,-2.143,-2.2003,-2.231,-2.231,-2.231,-2.231,-2.231,-2.231,-2.231,-2.231,-2.231,-2.2349,-2.249,-2.289,-2.2972,-2.2923,-2.3392,-2.3522,-2.3522,-2.3522,-2.3774,-2.4016,-2.4016,-2.4113,-2.4263,-2.452,-2.4999,-2.5309,-2.4951,-2.5561,-2.6462,-2.7248,-2.7549,-2.7654,-2.7683,-2.7794,-2.7968,-2.8234,-2.8859,-2.9637,-3.0415,-3.1462,-3.2391,-3.3112,-3.3437,-3.3606,-3.3606,-3.3447,-3.3593,-3.4207,-3.4268,-3.4687,-3.5793,-3.6022,-3.6025,-3.5797,-3.5262,-3.4972,-3.5118,-3.4372,-3.4292,-3.4945,-3.5279,-3.5183,-3.4633,-3.4908,-3.5425,-3.6155,-3.628,-3.6611,0.0,0.0,0.0,0.003,0.2937,0.5826,1.0015,1.1893,1.2773,1.2715,1.0663,0.7454,0.2897,-0.266,-0.75,-1.0221,-1.1871,-1.347,-1.5309,-1.6071,-1.6469,-1.645,-1.6491,-1.6811,-1.7502,-1.8743,-1.9504,-1.957,-2.0434,-2.115,-2.1521,-2.0907,-2.0744,-2.1211,-2.1211,-2.134,-2.1582,-2.1582,-2.1134,-2.028,-2.1165,-2.1368,-2.1039,-2.1886,-2.2282,-2.231,-2.231,-2.231,-2.231,-2.231,-2.231,-2.231,-2.231,-2.2463,-2.2695,-2.2695,-2.2898,-2.3165,-2.3165,-2.3189,-2.3189,-2.3189,-2.3414,-2.3692,-2.3692,-2.3917,-2.4335,-2.5106,-2.5346,-2.545,-2.595,-2.581,-2.5975,-2.7508,-2.7011,-2.6385,-2.713,-2.7589,-2.8081,-2.8794,-2.9589,-3.0384,-3.1108,-3.1921,-3.2648,-3.3075,-3.3184,-3.3184,-3.3184,-3.2795,-3.2932,-3.3973,-3.3704,-3.4058,-3.547,-3.565,-3.5667,-3.5667,-3.5359,-3.5397,-3.5931,-3.5627,-3.5693,-3.6292,-3.6292,-3.6292,-3.6292,-3.7074,-3.7459,-3.7466,-3.7718,-3.7578,-2.1031,0.0,0.0,0.0,0.0,0.0,0.4249,0.9051,1.2414,1.0822,1.1157,0.9633,0.2642,-0.2986,-0.7202,-0.8975,-1.1271,-1.329,-1.4732,-1.5454,-1.5872,-1.5855,-1.659,-1.7181,-1.7356,-1.8401,-1.9089,0.0,-1.9702,-2.0243,-2.0634,-2.1064,-2.1524,-2.1961,-2.1657,-2.1401,-2.1181,-2.0846,-2.0382,-1.9874,-2.0416,-2.0781,-2.1023,-2.1538,-2.1974,-2.231,-2.231,-2.231,-2.231,-2.231,-2.231,-2.231,-2.231,-2.2349,-2.2409,-2.2634,-2.2625,-2.2571,-2.2764,-2.2848,-2.2848,-2.2848,-2.3069,-2.3346,-2.3346,-2.3392,-2.3513,-2.375,-2.3804,-2.4104,-2.5348,-2.5202,-2.5199,-2.7023,-2.6822,-2.6325,-2.6785,-2.6954,-2.7087,-2.7293,-2.8408,-2.9385,-2.9591,-3.0941,-3.2022,-3.2161,-3.2484,-3.2681,-3.2681,-3.3029,-3.3319,-3.3318,-3.446,-3.5257,-3.5346,-3.6249,-3.6746,-3.6746,-3.5327,-3.5178,-3.6763,-3.4796,-3.4429,-3.597,-3.6396,-3.6414,-3.6022,-3.6035,-3.6161,-3.6327,-3.6282,-3.6147,-2.4245,-2.1896,-1.8971,-1.6547,0.0,0.0,-0.1856,0.3822,0.8483,0.9591,1.1014,1.0083,0.3596,-0.2019,-0.6244,-0.7905,-0.9811,-1.184,-1.4029,-1.4824,-1.532,-1.5588,-1.6429,-1.6951,-1.6951,-1.7947,-1.8574,-1.8574,-1.9281,-1.9823,-2.0125,-2.0791,-2.1358,-2.1837,-2.158,-2.1302,-2.0991,-2.0731,-2.0296,-1.9711,-2.0089,-2.0449,-2.0715,-2.1134,-2.1598,-2.2003,-2.2003,-2.2106,-2.231,-2.231,-2.231,-2.231,-2.231,-2.231,-2.2338,-2.249,-2.2409,-2.2321,-2.249,-2.2537,-2.2537,-2.2537,-2.2738,-2.2996,-2.2996,-2.3093,-2.3189,-2.3189,-2.3093,-2.3348,-2.4883,-2.4418,-2.4118,-2.6495,-2.6244,-2.5702,-2.6521,-2.6691,-2.6793,-2.7097,-2.8146,-2.9076,-2.9397,-3.0643,-3.1603,-3.1789,-3.2022,-3.2196,-3.2196,-3.2582,-3.2824,-3.272,-3.3727,-3.4545,-3.4936,-3.563,-3.6214,-3.6487,-3.5421,-3.5417,-3.6808,-3.5292,-3.5056,-3.6427,-3.6756,-3.6629,-3.6103,-3.638,-3.6363,-3.6103,-3.6,-3.5997,-2.4245,-2.3917,-2.3237,-2.0893,-1.8437,0.0,-0.8242,-0.2896,0.2169,0.7595,0.9432,0.8798,0.4502,-0.087,-0.5253,-0.6993,-0.8069,-0.9841,-1.312,-1.4086,-1.4732,-1.541,-1.6008,-1.6423,-1.6466,-1.7435,-1.8027,-1.8106,-1.9095,-1.9756,-1.9941,-2.0289,-2.0685,-2.1143,-2.1187,-2.1089,-2.091,-2.0926,-2.0499,-1.9711,-2.0054,-2.0246,-2.0314,-2.0715,-2.115,-2.1521,-2.1521,-2.1764,-2.2152,-2.2209,-2.2237,-2.231,-2.231,-2.231,-2.231,-2.231,-2.231,-2.231,-2.231,-2.231,-2.231,-2.231,-2.2463,-2.266,-2.266,-2.2848,-2.3111,-2.3111,-2.2943,-2.3127,-2.4568,-2.3756,-2.3257,-2.6031,-2.5625,-2.4983,-2.6387,-2.6691,-2.6894,-2.7571,-2.8383,-2.9194,-2.9871,-3.0666,-3.1312,-3.1696,-3.1716,-3.1716,-3.1716,-3.1785,-3.1981,-3.2286,-3.2439,-3.309,-3.4482,-3.4644,-3.4993,-3.5715,-3.5654,-3.5839,-3.644,-3.6305,-3.6475,-3.7097,-3.7058,-3.6803,-3.6374,-3.7305,-3.723,-3.6291,-3.6395,-3.6568,-2.4299,-2.4258,-2.4212,-2.3708,-2.3566,0.0,-1.5231,-0.9442,-0.4403,-0.0634,0.3016,0.4453,0.0787,-0.3021,-0.5833,-0.6406,-0.7731,-0.9496,-1.1846,-1.2773,-1.3585,-1.4732,-1.541,-1.5964,-1.6466,-1.7076,-1.7626,-1.8066,-1.9095,-1.9849,-2.0195,-2.0313,-2.0542,-2.1019,-2.105,-2.0847,-2.0449,-2.0449,-2.0193,-1.969,-1.9782,-2.0,-2.0314,-2.0382,-2.0682,-2.1118,-2.1118,-2.1166,-2.1291,-2.1598,-2.1974,-2.231,-2.231,-2.231,-2.231,-2.231,-2.231,-2.231,-2.231,-2.231,-2.231,-2.231,-2.2349,-2.2388,-2.2388,-2.2415,-2.2497,-2.2497,-2.2869,-2.3476,-2.436,-2.4333,-2.4509,-2.6268,-2.6031,-2.5625,-2.6505,-2.6691,-2.6742,-2.6894,-2.8027,-2.9025,-2.9178,-3.0311,-3.123,-3.1329,-3.1329,-3.1329,-3.1329,-3.1839,-3.2224,-3.2297,-3.3242,-3.4185,-3.5082,-3.5496,-3.606,-3.6829,-3.5948,-3.5879,-3.7002,-3.5645,-3.5394,-3.6522,-3.6139,-3.6054,-3.6374,-3.6603,-3.6357,-3.5756,-3.6429,-3.6758,-2.4759,-2.4559,-2.4666,-2.4722,-2.4957,0.0,0.0,-1.6102,-1.1299,-0.9109,-0.4244,-0.0973,-0.2865,-0.6062,-0.8508,-0.8813,-0.8508,-0.8797,-1.0559,-1.1935,-1.3158,-1.4143,-1.4778,-1.5377,-1.6008,-1.6544,-1.7203,-1.8027,-1.8612,-1.9214,-1.9904,-1.9939,-2.0265,-2.0959,-2.0991,-2.0748,-2.0299,-2.0314,-2.0089,-1.969,-1.969,-1.9818,-2.0,-2.0,-2.0227,-2.0649,-2.0649,-2.0797,-2.1039,-2.1213,-2.1446,-2.1691,-2.2123,-2.231,-2.231,-2.231,-2.231,-2.231,-2.231,-2.231,-2.231,-2.231,-2.231,-2.231,-2.231,-2.231,-2.231,-2.231,-2.2835,-2.3562,-2.432,-2.4506,-2.4879,-2.6336,-2.6133,-2.5812,-2.6539,-2.6691,-2.6691,-2.6691,-2.7926,-2.9011,-2.9011,-3.0209,-3.119,-3.119,-3.119,-3.119,-3.119,-3.1512,-3.1987,-3.2642,-3.2694,-3.3412,-3.5134,-3.4931,-3.5169,-3.6329,-3.5803,-3.5744,-3.6381,-3.5522,-3.5348,-3.5968,-3.5739,-3.5739,-3.6028,-3.6028,-3.5854,-3.5622,-3.6011,-3.6603,-2.5179,-2.4804,-2.4828,-2.4962,-2.4932,-2.4954,0.0,0.0,0.0,-1.6164,-1.1248,-0.716,-0.721,-0.9583,-1.1556,-1.1536,-0.9867,-0.8892,-0.9828,-1.1481,-1.2822,-1.3321,-1.3831,-1.4378,-1.4993,-1.5648,-1.6469,-1.7531,-1.78,-1.8299,-1.9119,-1.931,-1.9803,-2.0707,-2.0726,-2.0559,-2.0207,-2.017,-1.9954,-1.9468,-1.9474,-1.9495,-1.9495,-1.9495,-1.9753,-2.0177,-2.0177,-2.0398,-2.078,-2.0829,-2.0862,-2.0959,-2.1811,-2.2106,-2.2077,-2.2254,-2.2237,-2.218,-2.2282,-2.231,-2.231,-2.231,-2.231,-2.231,-2.231,-2.231,-2.231,-2.231,-2.2936,-2.3748,-2.4371,-2.4726,-2.5203,-2.6404,-2.6251,-2.5981,-2.6573,-2.6691,-2.6742,-2.6877,-2.8027,-2.9011,-2.9011,-3.0209,-3.119,-3.119,-3.119,-3.119,-3.119,-3.119,-3.1657,-3.2821,-3.2047,-3.2423,-3.4938,-3.4226,-3.4184,-3.5537,-3.5622,-3.5622,-3.5622,-3.5622,-3.5622,-3.5622,-3.5622,-3.5622,-3.5622,-3.5622,-3.5622,-3.5622,-3.5774,-3.6502,-2.5223,-2.4804,-2.4828,-2.4962,-2.5041,-2.4995,-2.4763,0.0,-2.0407,-1.9176,0.0,-1.4283,-1.3582,0.0,0.0,-1.2277,-1.1816,-1.1352,-1.0664,-1.1355,-1.1895,-1.1957,-1.1997,-1.2319,-1.2952,-1.4052,-1.5024,-1.5755,-1.6738,-1.7396,-1.7653,-1.8349,-1.9059,-1.9832,-1.9841,-1.9803,-1.9769,-1.9768,-1.9343,-1.8556,-1.8743,-1.8807,-1.8807,-1.8807,-1.9156,-1.9782,-1.9782,-1.9782,-1.9889,-2.0227,-2.0382,-2.0483,-2.1337,-2.146,-2.1229,-2.202,-2.2032,-2.1718,-2.2152,-2.231,-2.231,-2.231,-2.231,-2.231,-2.231,-2.231,-2.231,-2.231,-2.3291,-2.4404,-2.4489,-2.5456,-2.6488,-2.6657,-2.664,-2.659,-2.6674,-2.6691,-2.6894,-2.7571,-2.8383,-2.9011,-2.9011,-3.0209,-3.119,-3.119,-3.119,-3.119,-3.119,-3.119,-3.1517,-3.2309,-3.2246,-3.2822,-3.444,-3.4464,-3.4726,-3.5571,-3.5622,-3.5622,-3.5622,-3.5622,-3.5622,-3.5622,-3.5622,-3.5622,-3.5622,-3.5622,-3.5622,-3.5639,-3.6332,-3.6738,-2.5373,-2.4993,-2.4956,-2.513,-2.5041,-2.495,-2.5039,-2.4254,-2.3368,-2.2867,0.0,0.0,0.0,0.0,0.0,0.0,-1.4057,-1.2731,-1.187,-1.1437,-1.1208,-1.119,-1.1701,-1.213,-1.2378,-1.3044,-1.374,-1.4415,-1.4891,-1.5656,-1.6773,-1.7118,-1.7841,-1.9016,-1.8857,-1.9073,-1.9674,-1.9089,-1.8469,-1.7896,-1.7806,-1.7786,-1.7783,-1.8421,-1.8852,-1.9136,-1.951,-1.969,-1.9711,-1.9874,-1.9929,-2.0,-2.0616,-2.091,-2.1023,-2.1415,-2.1415,-2.1275,-2.1493,-2.1554,-2.1584,-2.1811,-2.1751,-2.1645,-2.2152,-2.2106,-2.2057,-2.2743,-2.368,-2.4608,-2.5033,-2.5913,-2.6691,-2.6691,-2.6691,-2.6691,-2.6691,-2.6691,-2.6793,-2.7114,-2.8146,-2.9011,-2.9011,-3.0209,-3.119,-3.119,-3.119,-3.119,-3.119,-3.119,-3.1788,-3.3247,-3.273,-3.3216,-3.5419,-3.4942,-3.481,-3.5571,-3.5622,-3.5622,-3.5622,-3.5622,-3.5622,-3.5622,-3.5622,-3.5622,-3.5622,-3.5622,-3.5622,-3.5622,-3.596,-3.6349,-2.5484,-2.5184,-2.5111,-2.5264,-2.508,-2.4948,-2.5292,-2.5224,-2.5111,-2.5253,-2.473,0.0,0.0,0.0,-2.0323,-1.9028,0.0,-1.4676,-1.339,-1.2117,-1.1157,-1.061,-1.0874,-1.1174,-1.1353,-1.1575,-1.2058,-1.2959,-1.3092,-1.37,-1.5002,-1.5732,-1.6541,-1.7512,-1.7598,-1.8031,-1.8796,-1.8232,-1.76,-1.6876,-1.6876,-1.6803,-1.6694,-1.7592,-1.8227,-1.8642,-1.9001,-1.9226,-1.934,-1.9405,-1.9525,-1.9726,-2.0035,-2.033,-2.0665,-2.0894,-2.0926,-2.0829,-2.0975,-2.0991,-2.1055,-2.1337,-2.1244,-2.1134,-2.1751,-2.1837,-2.1931,-2.2922,-2.3883,-2.474,-2.5424,-2.615,-2.6691,-2.6691,-2.6691,-2.6691,-2.6691,-2.6691,-2.6759,-2.6962,-2.7909,-2.8738,-2.8941,-3.0209,-3.119,-3.119,-3.119,-3.119,-3.119,-3.119,-3.1822,-3.352,-3.2861,-3.3206,-3.5408,-3.4934,-3.481,-3.5571,-3.5622,-3.5622,-3.5622,-3.5622,-3.5622,-3.5622,-3.5622,-3.5622,-3.5622,-3.5622,-3.5622,-3.5622,-3.5622,-3.5926,-2.5534,-2.5303,-2.5284,-2.5303,-2.5152,-2.5046,-2.5253,-2.5152,-2.5088,-2.5418,-2.5258,-2.5074,-2.5127,-2.4477,-2.3511,-2.216,-2.0222,0.0,0.0,-1.3697,-1.2033,-1.0064,-0.8795,-0.8354,-0.9227,-0.9165,-0.976,-1.1288,-1.1633,-1.1733,-1.1657,-1.3984,-1.5197,-1.484,-1.5925,-1.6584,-1.6603,-1.73,-1.6846,-1.5268,-1.5996,-1.6041,-1.5561,-1.5984,-1.6983,-1.8384,-1.7936,-1.8022,-1.848,-1.8653,-1.9106,-1.969,-1.9711,-1.9726,-1.9854,-2.0698,-2.0715,-2.0382,-2.0829,-2.0991,-2.0991,-2.1039,-2.0991,-2.1007,-2.1023,-2.1471,-2.2082,-2.2571,-2.3704,-2.4927,-2.5445,-2.615,-2.6691,-2.6691,-2.6691,-2.6691,-2.6691,-2.6691,-2.6911,-2.7638,-2.7789,-2.8095,-2.8856,-3.0209,-3.119,-3.119,-3.119,-3.119,-3.119,-3.119,-3.1478,-3.228,-3.233,-3.2594,-3.3448,-3.41,-3.481,-3.5571,-3.5622,-3.5622,-3.5622,-3.5622,-3.5622,-3.5622,-3.5622,-3.5622,-3.5622,-3.5622,-3.5622,-3.5622,-3.5622,-3.5639,0.0,0.0,-2.5122,-2.5264,0.0,-2.493,-2.5233,-2.5152,-2.5103,-2.5417,-2.5393,-2.5312,-2.5385,-2.4943,-2.4164,-2.3009,-2.1117,-1.9103,0.0,-1.3742,-1.0656,-0.8606,-0.8425,-0.8593,-0.8775,-0.8822,-0.9388,-1.0555,-1.0501,-1.078,-1.1594,-1.1826,-1.2647,-1.424,-1.4163,-1.4507,-1.529,-1.4971,-1.447,-1.3831,-1.4051,-1.4258,-1.4459,-1.5319,-1.6009,-1.6498,-1.6789,-1.7004,-1.7205,-1.7981,-1.8458,-1.8693,-1.9439,-1.969,-1.9762,-2.0015,-2.005,-1.9945,-2.007,-2.0139,-2.0174,-2.0465,-2.0364,-2.0335,-2.1351,-2.1603,-2.1843,-2.3237,-2.3955,-2.4511,-2.5163,-2.517,-2.5157,-2.5595,-2.5653,-2.5594,-2.5684,-2.6245,-2.6691,-2.663,-2.6992,-2.7534,-2.8091,-2.8849,-2.9609,-3.0347,-3.0886,-3.119,-3.119,-3.119,-3.1461,-3.2205,-3.273,-3.3322,-3.4066,-3.481,-3.5351,-3.5605,-3.5622,-3.5622,-3.5622,-3.5622,-3.5622,-3.5622,-3.5622,-3.5622,-3.5622,-3.5622,-3.5622,-3.5622,-3.5622,-3.5622,-2.5409,-2.5271,0.0,-2.5264,-2.5072,0.0,-2.5243,-2.5149,-2.513,-2.5437,-2.5488,-2.5488,-2.5529,-2.5155,-2.4527,-2.3597,-2.179,-1.9698,0.0,-1.3731,-1.0598,-0.8553,-0.8187,-0.8098,-0.8092,-0.8421,-0.9022,-0.9824,-0.947,-0.9544,-1.0257,-0.9887,-1.0432,-1.2104,-1.2618,-1.3246,-1.4018,-1.3925,-1.3617,-1.3132,-1.3317,-1.3411,-1.3433,-1.4473,-1.4916,-1.4976,-1.5751,-1.6208,-1.6494,-1.7398,-1.8014,-1.8441,-1.917,-1.953,-1.969,-1.969,-1.969,-1.969,-1.969,-1.969,-1.9747,-2.0,-1.9909,-1.9939,-2.1166,-2.1502,-2.1725,-2.3117,-2.3828,-2.4293,-2.4713,-2.4692,-2.4644,-2.5109,-2.5146,-2.5082,-2.5201,-2.5709,-2.6087,-2.5762,-2.6118,-2.6503,-2.68,-2.7508,-2.8426,-2.9605,-3.0232,-3.0559,-3.0559,-3.074,-3.1063,-3.1515,-3.242,-3.3406,-3.4404,-3.4709,-3.5064,-3.5588,-3.5368,-3.5351,-3.5605,-3.5622,-3.5504,-3.5216,-3.5487,-3.5487,-3.5216,-3.5487,-3.5622,-3.5622,-3.5622,-3.5622]}]]